     2              OBSERVATION DATA    GPS                 RINEX VERSION / TYPE
teqc 2000Jul20 Karen Wendt 20040109 22:39:18UTC             PGM / RUN BY / DATE
                                                            COMMENT
L2: 1 -> 1; 150 -> 5; 250 -> 9                              COMMENT
L2: 1 -> 1; 150 -> 5; 250 -> 9                              COMMENT
L2: 1 -> 1; 150 -> 5; 250 -> 9                              COMMENT
L2: 1 -> 1; 150 -> 5; 250 -> 9                              COMMENT
L2: 1 -> 1; 150 -> 5; 250 -> 9                              COMMENT
L2: 1 -> 1; 150 -> 5; 250 -> 9                              COMMENT
L2: 1 -> 1; 150 -> 5; 250 -> 9                              COMMENT
L2: 1 -> 1; 150 -> 5; 250 -> 9                              COMMENT
L2: 1 -> 1; 150 -> 5; 250 -> 9                              COMMENT
L2: 1 -> 1; 150 -> 5; 250 -> 9                              COMMENT
L2: 1 -> 1; 150 -> 5; 250 -> 9                              COMMENT
L2: 1 -> 1; 150 -> 5; 250 -> 9                              COMMENT
L2: 1 -> 1; 150 -> 5; 250 -> 9                              COMMENT
L2: 1 -> 1; 150 -> 5; 250 -> 9                              COMMENT
Original Marker Name: 1009 1009_unstamped_USNavy_12thNavalDiCOMMENT
Campaign Name: USGS San Simeon 2003-2004                    COMMENT
4-Character Station Name: 1009                              COMMENT
6-Character Antenna Code: DMRCHT                            COMMENT
Vertical Measurement Point: BCR                             COMMENT
Vertical Offset to Rinex Ref. Point: 0.0348                 COMMENT
Radial Measurement Point: ECF                               COMMENT
Radial Offset to Rinex Ref. Point: 0.1897                   COMMENT
Antenna Height from Field Measurement: 1.3160 m             COMMENT
Additional Antenna Identification Info.:                    COMMENT
Turborogue and Ashtech Choke Ring                           COMMENT
Original XYZ: -2693923.0095 -4433485.9622 3698010.6509      COMMENT
New XYZ position is based on association with SCEC monument COMMENT
E1F0L8A0+0011. Position of that monument is believed to be  COMMENT
valid to within 1 m horizontally; vertical accuracy         COMMENT
should be no worse than 3-times this value.                 COMMENT
                                                            COMMENT
Revised Rinex header created by UCSD GPS archive for        COMMENT
GSAC on 20-Apr-2005 (2005:110) 16:29:16 GMT                 COMMENT
For assistance contact dagnew@ucsd.edu                      COMMENT
or anderson@python.ucsd.edu                                 COMMENT
                                                            COMMENT
1009 1009_UNSTAMPED_USNAVY_12THNAVALDIST.                   MARKER NAME
CHS US GEOLOGICAL SURVEY                                    OBSERVER / AGENCY
LP020000801 ASHTECH Z-XII3 CD00                             REC # / TYPE / VERS
CR620022602 DORNE-MARGOL. TYPE T                            ANT # / TYPE
 -2693942.0000 -4433464.0000  3698003.0000                  APPROX POSITION XYZ
        1.2675        0.0000        0.0000                  ANTENNA: DELTA H/E/N
     1     1     0                                          WAVELENGTH FACT L1/2
     5    C1    L1    L2    P1    P2                        # / TYPES OF OBSERV
    30                                                      INTERVAL
  2004     1     7     0     0   30.000000                  TIME OF FIRST OBS
  2004     1     7    23    59   30.000000                  TIME OF LAST OBS
                                                            END OF HEADER
 04  1  7  0  0 30.0000000  0  7G24G 5G30G21G10G17G 6
  22382100.042   -17294012.45049 -13460613.83746  22382099.865    22382106.149
  21016997.164   -22236437.08749 -17085198.11747  21016996.666    21017002.235
  20218353.707   -27271467.59249 -21231441.10148  20218353.995    20218358.467
  24043600.421   -10917918.74549  -8486305.21045  24043600.142    24043606.319
  21084965.371   -22842226.66949 -17532927.65147  21084964.613    21084970.436
  20632463.844   -26219510.58149 -20417183.41948  20632463.353    20632469.107
  21994457.524   -21471783.74049 -16720325.25147  21994457.404    21994463.043
 04  1  7  0  1  0.0000000  0  7G24G 5G30G21G10G17G 6
  22397061.232   -17215390.90949 -13399350.32446  22397061.077    22397067.333
  21029401.515   -22171251.72949 -17034404.35047  21029401.049    21029406.596
  20216270.011   -27282417.23749 -21239973.28848  20216270.307    20216274.779
  24026920.228   -11005574.16449  -8554608.05745  24026919.850    24026925.823
  21080983.575   -22863151.05049 -17549232.36447  21080982.809    21080988.672
  20636213.020   -26199808.47549 -20401831.13548  20636212.537    20636218.293
  21983050.119   -21531729.82349 -16767036.46947  21983050.001    21983055.609
 04  1  7  0  1 30.0000000  0  7G24G 5G30G21G10G17G 6
  22412045.886   -17136646.22749 -13337990.86146  22412045.734    22412051.960
  21041890.549   -22105621.61449 -16983264.01647  21041890.073    21041895.599
  20214296.315   -27292788.97949 -21248055.15848  20214296.633    20214301.099
  24010272.923   -11093056.65249  -8622776.16045  24010272.385    24010278.246
  21077120.188   -22883453.10749 -17565052.14447  21077119.454    21077125.315
  20640028.585   -26179757.68249 -20386207.14648  20640028.086    20640033.867
  21971661.552   -21591576.82749 -16813670.48147  21971661.445    21971667.074
 04  1  7  0  2  0.0000000  0  7G24G 5G30G21G10G17G 6
  22427053.729   -17057779.67949 -13276536.43446  22427053.594    22427059.784
  21054464.027   -22039547.73449 -16931777.89147  21054463.548    21054469.063
  20212432.897   -27302581.40049 -21255685.60848  20212433.194    20212437.674
  23993658.608   -11180365.15349  -8690808.67645  23993658.126    23993663.831
  21073375.503   -22903131.64049 -17580386.05547  21073374.756    21073380.611
  20643910.324   -26159358.84549 -20370311.95348  20643909.829    20643915.619
  21960292.133   -21651323.51649 -16860226.32147  21960292.026    21960297.673
 04  1  7  0  2 30.0000000  0  7G24G 5G30G21G10G17G 6
  22442084.558   -16978792.20249 -13214987.78346  22442084.418    22442090.597
  21067121.690   -21973031.21049 -16879946.85347  21067121.196    21067126.741
  20210679.980   -27311793.03549 -21262863.50348  20210680.277    20210684.770
  23977077.651   -11267497.89449  -8758704.25745  23977077.195    23977082.918
  21069749.807   -22922184.75949 -17595232.63647  21069749.076    21069754.915
  20647858.217   -26138612.56549 -20354146.02848  20647857.735    20647863.518
  21948942.069   -21710968.23449 -16906702.69947  21948941.974    21948947.666
 04  1  7  0  3  0.0000000  0  7G24G 5G30G21G10G17G 6
  22457137.953   -16899686.16049 -13153346.74946  22457137.827    22457144.051
  21079863.146   -21906074.58549 -16827772.88047  21079862.655    21079868.223
  20209037.549   -27320424.07849 -21269588.98748  20209037.854    20209042.318
  23960530.239   -11354454.79349  -8826462.80945  23960529.741    23960535.516
  21066243.117   -22940612.72349 -17609592.07947  21066242.364    21066248.165
  20651871.806   -26117520.98049 -20337711.03248  20651871.327    20651877.139
  21937611.462   -21770510.92949 -16953099.59147  21937611.348    21937617.026
 04  1  7  0  3 30.0000000  0  7G24G 5G30G21G10G17G 6
  22472213.549   -16820463.46949 -13091614.81946  22472213.410    22472219.706
  21092688.096   -21838679.10249 -16775256.93847  21092687.616    21092693.144
  20207505.799   -27328473.49449 -21275861.25848  20207506.095    20207510.554
  23944016.418   -11441235.05649  -8894083.71745  23944015.933    23944021.707
  21062855.607   -22958414.23249 -17623463.37347  21062854.829    21062860.628
  20655950.910   -26096085.09149 -20321007.75348  20655950.433    20655956.262
  21926300.371   -21829950.58849 -16999416.19047  21926300.268    21926306.024
 04  1  7  0  4  0.0000000  0  7G24G 5G30G21G10G17G 6
  22487311.081   -16741125.75049 -13029793.26246  22487310.919    22487317.218
  21105596.228   -21770846.43449 -16722400.33647  21105595.750    21105601.275
  20206084.879   -27335940.37049 -21281679.60348  20206085.178    20206089.661
  23927536.387   -11527837.66049  -8961566.20345  23927536.022    23927541.784
  21059587.517   -22975587.95849 -17636845.48847  21059586.752    21059592.574
  20660095.318   -26074306.33149 -20304037.29948  20660094.814    20660100.624
  21915009.135   -21889286.22149 -17045651.72947  21915009.045    21915014.850
 04  1  7  0  4 30.0000000  0  7G24G 5G30G21G10G17G 6
  22502430.059   -16661675.21949 -12967883.78946  22502429.862    22502436.175
  21118587.114   -21702579.11449 -16669205.04147  21118586.627    21118592.115
  20204774.886   -27342824.62249 -21287043.95348  20204775.175    20204779.653
  23911090.494   -11614261.75749  -9028909.59345  23911090.037    23911095.843
  21056439.017   -22992133.60749 -17649738.18647  21056438.251    21056444.050
  20664304.594   -26052186.41849 -20286801.00848  20664304.090    20664309.888
  21903737.812   -21948517.45949 -17091805.92147  21903737.708    21903743.506
 04  1  7  0  5  0.0000000  0  7G24G 5G30G21G10G17G 6
  22517570.154   -16582113.79349 -12905887.90646  22517569.971    22517576.268
  21131660.290   -21633879.08649 -16615672.57347  21131659.796    21131665.304
  20203575.844   -27349125.71049 -21291953.89348  20203576.125    20203580.606
  23894678.528   -11700507.04849  -9096113.65145  23894678.069    23894683.779
  21053410.062   -23008050.68749 -17662141.09547  21053409.308    21053415.100
  20668578.502   -26029726.72049 -20269299.95548  20668578.031    20668583.862
  21892486.486   -22007643.54549 -17137878.17747  21892486.407    21892492.183
 04  1  7  0  5 30.0000000  0  7G24G 5G30G21G10G17G 6
  22532731.020   -16502442.64349 -12843806.52546  22532730.885    22532737.233
  21144815.617   -21564747.41349 -16561803.75647  21144815.129    21144820.651
  20202488.017   -27354842.17049 -21296408.27948  20202488.298    20202492.772
  23878300.775   -11786572.26849  -9163177.38845  23878300.416    23878306.020
  21050501.028   -23023337.74449 -17674053.07547  21050500.282    21050506.083
  20672916.984   -26006927.92449 -20251534.67048  20672916.498    20672922.338
  21881255.505   -22066662.87649 -17183867.24747  21881255.382    21881261.180
 04  1  7  0  6  0.0000000  0  7G24G 5G30G21G10G17G 6
  22547912.434   -16422663.85049 -12781641.26446  22547912.305    22547918.630
  21158052.746   -21495185.98049 -16507600.05947  21158052.265    21158057.781
  20201511.473   -27359973.96149 -21300407.07748  20201511.755    20201516.229
  23861957.405   -11872456.73549  -9230100.29045  23861956.991    23861962.623
  21047711.987   -23037994.26749 -17685473.73347  21047711.243    21047717.020
  20677319.670   -25983791.77149 -20233506.50548  20677319.160    20677325.016
  21870044.896   -22125574.89949 -17229772.69547  21870044.793    21870050.601
 04  1  7  0  6 30.0000000  0  7G24G 5G30G21G10G17G 6
  22563114.067   -16342779.08349 -12719393.42646  22563113.941    22563120.241
  21171371.293   -21425196.81549 -16453063.07247  21171370.805    21171376.302
  20200646.337   -27364520.45749 -21303949.80648  20200646.613    20200651.071
  23845648.700   -11958159.52349  -9296881.61045  23845648.301    23845653.973
  21045043.052   -23052019.48649 -17696402.46947  21045042.310    21045048.089
  20681786.270   -25960319.40249 -20215216.36148  20681785.808    20681791.650
  21858854.913   -22184378.81249 -17275593.90547  21858854.800    21858860.564
 04  1  7  0  7  0.0000000  0  7G24G 5G30G21G10G17G 6
  22578335.388   -16262790.58349 -12657064.75746  22578335.284    22578341.602
  21184770.719   -21354782.56949 -16398194.84847  21184770.189    21184775.730
  20199892.549   -27368481.62249 -21307036.42748  20199892.835    20199897.287
  23829374.539   -12043680.93349  -9363521.60445  23829374.008    23829379.803
  21042494.267   -23065413.42349 -17706839.29647  21042493.515    21042499.307
  20686316.510   -25936513.04149 -20196665.95748  20686316.051    20686321.849
  21847685.513   -22243074.32949 -17321330.64747  21847685.402    21847691.144
 04  1  7  0  7 30.0000000  0  7G24G 5G30G21G10G17G 6
  22593576.329   -16182699.17049 -12594655.88846  22593576.193    22593582.492
  21198250.868   -21283943.63849 -16342995.70047  21198250.367    21198255.952
  20199250.455   -27371855.94549 -21309665.77448  20199250.730    20199255.138
  23813135.219   -12129018.33449  -9430018.21445  23813134.760    23813140.564
  21040065.952   -23078174.30449 -17716782.83947  21040065.196    21040070.986
  20690910.278   -25912372.88249 -20177855.45648  20690909.791    20690915.582
  21836537.124   -22301659.61449 -17366981.50247  21836537.000    21836542.701
 04  1  7  0  8  0.0000000  0  7G24G 5G30G21G10G17G 6
  22608836.248   -16102507.55749 -12532168.96146  22608836.148    22608842.533
  21211811.376   -21212682.93149 -16287467.89847  21211810.869    21211816.426
  20198719.964   -27374643.74249 -21311838.08548  20198720.247    20198724.642
  23796930.807   -12214172.54349  -9496372.05745  23796930.409    23796936.081
  21037758.007   -23090302.40449 -17726233.30447  21037757.264    21037763.050
  20695567.041   -25887901.29149 -20158786.69248  20695566.567    20695572.342
  21825409.723   -22360134.56249 -17412546.37947  21825409.593    21825415.275
 04  1  7  0  8 30.0000000  0  7G24G 5G30G21G10G17G 6
  22624115.137   -16022216.93149 -12469604.86546  22624115.001    22624121.385
  21225451.875   -21141001.71249 -16231612.42647  21225451.376    21225456.932
  20198301.226   -27376844.07349 -21313552.63248  20198301.507    20198305.934
  23780761.625   -12299142.43049  -9562582.28745  23780761.192    23780766.814
  21035570.791   -23101796.48349 -17735189.72947  21035570.048    21035575.815
  20700286.775   -25863098.96449 -20139460.21448  20700286.290    20700292.088
  21814303.542   -22418497.77649 -17458024.18047  21814303.402    21814309.086
 04  1  7  0  9  0.0000000  0  7G24G 5G30G21G10G17G 6
  22639412.380   -15941829.06449 -12406964.99446  22639412.251    22639418.691
  21239171.943   -21068902.46949 -16175431.21847  21239171.398    21239176.965
  20197994.326   -27378456.74849 -21314809.26348  20197994.599    20197999.045
  23764627.674   -12383927.08149  -9628648.17945  23764627.221    23764632.798
  21033504.183   -23112656.41049 -17743652.01447  21033503.429    21033509.225
  20705069.154   -25837967.65349 -20119877.38048  20705068.639    20705074.433
  21803218.738   -22476748.74649 -17503414.53047  21803218.606    21803224.264
 04  1  7  0  9 30.0000000  0  7G24G 5G30G21G10G17G 6
  22654727.870   -15861345.60049 -12344250.64346  22654727.748    22654734.200
  21252971.132   -20996387.07349 -16118925.73747  21252970.655    21252976.178
  20197799.382   -27379481.17349 -21315607.52048  20197799.664    20197804.107
  23748529.026   -12468525.71649  -9694569.11345  23748528.566    23748534.209
  21031558.385   -23122881.50049 -17751619.62347  21031557.666    21031563.439
  20709913.869   -25812508.47349 -20100039.06248  20709913.355    20709919.129
  21792155.510   -22534886.30949 -17548716.50547  21792155.365    21792161.031
 04  1  7  0 10  0.0000000  0  7G24G 5G30G21G10G17G 6
  22670061.234   -15780768.29349 -12281463.15246  22670061.114    22670067.572
  21266849.264   -20923457.32649 -16062097.38847  21266848.747    21266854.240
  20197716.456   -27379917.00149 -21315947.13148  20197716.742    20197721.180
  23732465.780   -12552937.73649  -9760344.62845  23732465.406    23732471.022
  21029733.594   -23132471.09049 -17759092.03347  21029732.859    21029738.589
  20714820.639   -25786723.14249 -20079946.60148  20714820.158    20714825.917
  21781113.987   -22592909.66249 -17593929.48547  21781113.859    21781119.525
 04  1  7  0 10 30.0000000  0  7G24G 5G30G21G10G17G 6
  22685412.163   -15700098.84549 -12218603.88146  22685412.046    22685418.493
  21280805.934   -20850114.77849 -16004947.37347  21280805.385    21280810.910
  20197745.636   -27379763.65749 -21315827.64448  20197745.922    20197750.385
  23716438.281   -12637162.13249  -9825973.94545  23716437.951    23716443.558
  21028029.786   -23141424.72649 -17766068.90247  21028029.038    21028034.800
  20719789.378   -25760612.43249 -20059600.60248  20719788.879    20719794.660
  21770094.479   -22650817.57449 -17639052.51447  21770094.337    21770100.011
 04  1  7  0 11  0.0000000  0  7G24G 5G30G21G10G17G 6
  22700780.251   -15619339.09949 -12155674.23446  22700780.137    22700786.596
  21294840.641   -20776361.91249 -15947477.62847  21294840.119    21294845.652
  20197886.863   -27379021.34749 -21315249.22348  20197887.164    20197891.641
  23700446.706   -12721198.89249  -9891457.04545  23700446.273    23700451.825
  21026447.036   -23149742.32349 -17772550.15047  21026446.284    21026452.047
  20724819.588   -25734178.54849 -20039002.77448  20724819.066    20724824.861
  21759096.970   -22708609.66249 -17684085.29147  21759096.861    21759102.543
 04  1  7  0 11 30.0000000  0  7G24G 5G30G21G10G17G 6
  22716165.191   -15538491.02249 -12092675.76846  22716165.016    22716171.500
  21308952.944   -20702201.10549 -15889690.00947  21308952.449    21308957.977
  20198140.260   -27377689.78049 -21314211.64448  20198140.548    20198145.009
  23684490.816   -12805047.41349  -9956793.47645  23684490.379    23684495.986
  21024985.389   -23157423.46749 -17778535.46447  21024984.626    21024990.343
  20729911.023   -25707422.86049 -20018154.19048  20729910.531    20729916.313
  21748121.705   -22766284.97049 -17729027.07147  21748121.569    21748127.259
 04  1  7  0 12  0.0000000  0  7G24G 5G30G21G10G17G 6
  22731566.679   -15457555.88049 -12029609.45646  22731566.494    22731572.926
  21323142.746   -20627633.51649 -15831585.41847  21323142.226    21323147.738
  20198505.942   -27375768.06949 -21312714.21048  20198506.225    20198510.718
  23668570.937   -12888706.33949 -10021982.16645  23668570.540    23668576.215
  21023645.024   -23164467.08149 -17784023.99547  21023644.264    21023649.997
  20735063.530   -25680346.15449 -19997055.46248  20735063.044    20735068.826
  21737168.898   -22823842.07449 -17773876.74547  21737168.791    21737174.460
 04  1  7  0 12 30.0000000  0  7G24G 5G30G21G10G17G 6
  22746984.370   -15376535.29049 -11966476.55946  22746984.240    22746990.709
  21337409.509   -20552661.33649 -15773165.56347  21337408.999    21337414.517
  20198983.955   -27373255.89249 -21310756.67448  20198984.254    20198988.760
  23652687.317   -12972175.05249 -10087022.63945  23652686.966    23652692.415
  21022426.012   -23170873.08349 -17789015.69147  21022425.278    21022431.000
  20740276.905   -25652949.93749 -19975707.76948  20740276.405    20740282.169
  21726238.810   -22881279.94949 -17818633.51247  21726238.688    21726244.389
 04  1  7  0 13  0.0000000  0  7G24G 5G30G21G10G17G 6
  22762418.064   -15295430.96149 -11903278.40946  22762417.916    22762424.382
  21351752.725   -20477287.00849 -15714432.34147  21351752.200    21351757.806
  20199574.412   -27370153.24449 -21308339.02948  20199574.725    20199579.188
  23636839.988   -13055452.97849 -10151914.45345  23636839.637    23636844.973
  21021328.387   -23176641.18949 -17793510.32147  21021327.648    21021333.348
  20745550.718   -25625235.87149 -19954112.39448  20745550.224    20745555.962
  21715331.566   -22938597.85049 -17863296.79347  21715331.469    21715337.142
 04  1  7  0 13 30.0000000  0  7G24G 5G30G21G10G17G 6
  22777867.406   -15214244.52549 -11840016.28746  22777867.221    22777873.690
  21366172.196   -20401512.13549 -15655387.01147  21366171.697    21366177.285
  20200277.267   -27366459.96749 -21305461.15948  20200277.539    20200282.004
  23621029.146   -13138539.47249 -10216657.11845  23621028.702    23621034.082
  21020352.216   -23181771.10649 -17797507.66147  21020351.454    21020357.123
  20750884.729   -25597205.49749 -19932270.55348  20750884.212    20750889.971
  21704447.355   -22995794.82549 -17907865.85347  21704447.224    21704452.865
 04  1  7  0 14  0.0000000  0  7G24G 5G30G21G10G17G 6
  22793331.914   -15132977.96249 -11776691.73746  22793331.755    22793338.245
  21380667.480   -20325339.06249 -15596031.39847  21380666.972    21380672.549
  20201092.412   -27362176.07949 -21302123.07048  20201092.695    20201097.221
  23605254.699   -13221434.20749 -10281250.34345  23605254.242    23605259.723
  21019497.468   -23186262.87549 -17801007.74347  21019496.705    21019502.409
  20756278.599   -25568860.16549 -19910183.29448  20756278.108    20756283.923
  21693586.265   -23052870.12649 -17952340.10047  21693586.153    21693591.760
 04  1  7  0 14 30.0000000  0  7G24G 5G30G21G10G17G 6
  22808811.423   -15051632.60149 -11713305.77946  22808811.288    22808817.785
  21395238.099   -20248769.90049 -15536367.14247  21395237.605    21395243.126
  20202020.029   -27357301.30349 -21298324.54748  20202020.352    20202024.844
  23589517.053   -13304136.14849 -10345693.34745  23589516.557    23589522.024
  21018764.233   -23190116.01249 -17804010.18647  21018763.473    21018769.181
  20761732.182   -25540201.48349 -19887851.86348  20761731.712    20761737.536
  21682748.582   -23109822.72049 -17996718.72947  21682748.426    21682754.023
 04  1  7  0 15  0.0000000  0  7G24G 5G30G21G10G17G 6
  22824305.682   -14970210.11449 -11649859.71746  22824305.512    22824312.015
  21409883.763   -20171806.48549 -15476395.67147  21409883.256    21409888.817
  20203060.272   -27351835.24749 -21294065.29448  20203060.522    20203065.016
  23573816.032   -13386645.03249 -10409985.91045  23573815.498    23573820.954
  21018152.596   -23193330.00449 -17806514.59547  21018151.846    21018157.558
  20767245.235   -25511230.40049 -19865277.00148  20767244.736    20767250.558
  21671934.397   -23166651.49249 -18041000.87147  21671934.282    21671939.879
 04  1  7  0 15 30.0000000  0  7G24G 5G30G21G10G17G 6
  22839814.320   -14888711.92149 -11586354.66646  22839814.146    22839820.574
  21424604.047   -20094450.80949 -15416118.54747  21424603.575    21424609.200
  20204212.930   -27345777.57849 -21289345.03648  20204213.224    20204217.757
  23558152.010   -13468959.38549 -10474126.91045  23558151.552    23558156.865
  21017662.634   -23195904.73049 -17808520.87347  21017661.905    21017667.595
  20772817.478   -25481948.19949 -19842459.71248  20772816.978    20772822.785
  21661144.072   -23223355.21349 -18085185.57347  21661143.932    21661149.526
 04  1  7  0 16  0.0000000  0  7G24G 5G30G21G10G17G 6
  22855336.992   -14807139.58849 -11522791.85246  22855336.840    22855343.298
  21439398.660   -20016704.63049 -15355537.13747  21439398.173    21439403.825
  20205478.298   -27339128.16449 -21284163.68048  20205478.588    20205483.106
  23542524.988   -13551078.65949 -10538115.89645  23542524.639    23542530.076
  21017294.378   -23197840.08849 -17810028.94447  21017293.620    21017299.324
  20778448.548   -25452356.70149 -19819401.41248  20778448.050    20778453.892
  21650377.599   -23279933.06449 -18129272.19847  21650377.515    21650383.112
 04  1  7  0 16 30.0000000  0  7G24G 5G30G21G10G17G 6
  22870873.459   -14725494.94649 -11459172.68346  22870873.314    22870879.747
  21454267.145   -19938570.37749 -15294653.32847  21454266.640    21454272.287
  20206856.235   -27331887.24149 -21278521.41248  20206856.514    20206861.019
  23526935.326   -13633002.81149 -10601952.84245  23526934.922    23526940.429
  21017047.775   -23199135.88949 -17811038.66547  21017047.041    21017052.737
  20784138.280   -25422456.90149 -19796102.88148  20784137.771    20784143.624
  21639635.381   -23336383.81349 -18173259.78447  21639635.282    21639640.911
 04  1  7  0 17  0.0000000  0  7G24G 5G30G21G10G17G 6
  22886423.269   -14643780.09649 -11395498.80446  22886423.109    22886429.553
  21469208.955   -19860050.68149 -15233469.17547  21469208.456    21469214.130
  20208346.608   -27324055.24749 -21272418.56448  20208346.873    20208351.423
  23511383.002   -13714731.58649 -10665637.56145  23511382.448    23511387.874
  21016922.746   -23199792.84749 -17811550.57947  21016921.998    21016927.707
  20789886.178   -25392251.34749 -19772566.09448  20789885.692    20789891.540
  21628917.423   -23392707.04249 -18217148.00147  21628917.312    21628922.924
 04  1  7  0 17 30.0000000  0  7G24G 5G30G21G10G17G 6
  22901986.249   -14561996.23949 -11331771.16246  22901986.115    22901992.565
  21484223.695   -19781147.72749 -15171986.38247  21484223.182    21484228.912
  20209949.502   -27315631.87049 -21265854.90048  20209949.813    20209954.329
  23495867.904   -13796263.99849 -10729169.26945  23495867.319    23495872.705
  21016919.377   -23199810.46049 -17811564.30447  21016918.640    21016924.336
  20795692.191   -25361740.87549 -19748791.70948  20795691.692    20795697.515
  21618223.946   -23448901.57049 -18260935.93247  21618223.835    21618229.437
 04  1  7  0 18  0.0000000  0  7G24G 5G30G21G10G17G 6
  22917562.160   -14480144.71449 -11267990.79546  22917561.992    22917568.433
  21499310.971   -19701863.33849 -15110206.36447  21499310.477    21499316.276
  20211665.015   -27306617.02649 -21258830.35848  20211665.295    20211669.799
  23480390.285   -13877599.40549 -10792547.46946  23480389.675    23480395.029
  21017037.691   -23199188.53749 -17811079.69547  21017036.978    21017042.693
  20801555.879   -25330926.97549 -19724780.89048  20801555.373    20801561.222
  21607555.159   -23504966.32449 -18304622.73747  21607555.051    21607560.651
 04  1  7  0 18 30.0000000  0  7G24G 5G30G21G10G17G 6
  22933150.634   -14398226.93849 -11204158.79446  22933150.420    22933156.894
  21514470.530   -19622199.60649 -15048130.75447  21514470.022    21514475.820
  20213493.060   -27297010.53749 -21251344.78448  20213493.360    20213497.847
  23464950.101   -13958737.09349 -10855771.61446  23464949.614    23464955.042
  21017277.743   -23197927.13849 -17810096.79047  21017277.032    21017282.751
  20807477.027   -25299810.87249 -19700534.58548  20807476.544    20807482.411
  21596911.293   -23560900.04149 -18348207.43647  21596911.199    21596916.799
 04  1  7  0 19  0.0000000  0  7G24G 5G30G21G10G17G 6
  22948751.329   -14316244.74549 -11140276.59846  22948751.110    22948757.604
  21529701.847   -19542158.81449 -14985761.33447  21529701.308    21529707.115
  20215433.669   -27286812.52949 -21243398.29448  20215433.956    20215438.482
  23449547.855   -14039676.37049 -10918841.12846  23449547.376    23449552.846
  21017639.501   -23196026.11549 -17808615.48147  21017638.771    21017644.487
  20813455.434   -25268394.21849 -19676054.08348  20813454.965    20813460.832
  21586292.608   -23616701.75049 -18391689.27547  21586292.501    21586298.074
 04  1  7  0 19 30.0000000  0  7G24G 5G30G21G10G17G 6
  22964363.914   -14234199.97949 -11076345.64946  22964363.761    22964370.239
  21545004.372   -19461743.22549 -14923099.86447  21545003.874    21545009.711
  20217486.835   -27276023.41649 -21234991.20548  20217487.105    20217491.607
  23434183.624   -14120416.83249 -10981755.73146  23434183.043    23434188.376
  21018122.961   -23193485.82149 -17806636.03147  21018122.207    21018127.882
  20819490.747   -25236678.31349 -19651340.40148  20819490.277    20819496.173
  21575699.176   -23672370.68449 -18435067.65047  21575699.054    21575704.615
 04  1  7  0 20  0.0000000  0  7G24G 5G30G21G10G17G 6
  22979988.245   -14152093.79949 -11012366.84346  22979988.075    22979994.574
  21560377.943   -19380954.66449 -14860147.76947  21560377.451    21560383.327
  20219652.495   -27264642.91849 -21226123.29048  20219652.746    20219657.249
  23418857.025   -14200957.92049 -11044514.96946  23418856.484    23418861.767
  21018727.980   -23190306.20249 -17804158.41147  21018727.238    21018732.947
  20825582.739   -25204664.74249 -19626394.77048  20825582.269    20825588.180
  21565131.192   -23727905.56249 -18478341.56447  21565131.090    21565136.636
 04  1  7  0 20 30.0000000  0  7G24G 5G30G21G10G17G 6
  22995624.000   -14069927.49549 -10948341.18146  22995623.821    22995630.352
  21575822.126   -19299795.16249 -14796906.62347  21575821.629    21575827.479
  20221930.610   -27252671.00449 -21216794.53348  20221930.879    20221935.413
  23403568.522   -14281298.53749 -11107118.01246  23403568.057    23403573.312
  21019454.777   -23186487.03549 -17801182.44247  21019454.025    21019459.728
  20831731.230   -25172354.51449 -19601217.97648  20831730.743    20831736.611
  21554589.042   -23783305.09449 -18521510.01747  21554588.909    21554594.438
 04  1  7  0 21  0.0000000  0  7G24G 5G30G21G10G17G 6
  23011270.749   -13987702.58649 -10884269.86946  23011270.609    23011277.249
  21591336.527   -19218266.73149 -14733378.00647  21591336.009    21591341.834
  20224321.387   -27240107.57049 -21207004.85548  20224321.653    20224326.191
  23388318.403   -14361438.38649 -11169564.60246  23388318.044    23388323.153
  21020303.272   -23182028.38549 -17797708.17247  21020302.497    21020308.192
  20837935.830   -25139749.12049 -19575811.18848  20837935.328    20837941.213
  21544072.791   -23838568.07549 -18564572.06347  21544072.699    21544078.247
 04  1  7  0 21 30.0000000  0  7G24G 5G30G21G10G17G 6
  23026928.372   -13905421.36149 -10820154.65546  23026928.220    23026934.895
  21606920.463   -19136372.60449 -14669564.42747  21606919.980    21606925.747
  20226824.511   -27226953.80949 -21196755.18248  20226824.761    20226829.303
  23373106.620   -14441377.60249 -11231854.84546  23373106.045    23373111.229
  21021273.196   -23176931.38849 -17793736.49047  21021272.456    21021278.125
  20844196.160   -25106850.78449 -19550176.13648  20844195.664    20844201.562
  21533582.632   -23893694.23649 -18607527.49947  21533582.501    21533588.084
 04  1  7  0 22  0.0000000  0  7G24G 5G30G21G10G17G 6
  23042596.506   -13823084.88049 -10755996.39746  23042596.332    23042603.045
  21622573.699   -19054114.80649 -14605467.46847  21622573.174    21622578.911
  20229439.870   -27213209.51649 -21186045.34948  20229440.160    20229444.736
  23357932.917   -14521115.22649 -11293988.02146  23357932.400    23357937.659
  21022364.642   -23171195.80249 -17789267.20347  21022363.900    21022369.583
  20850512.041   -25073660.70849 -19524313.74848  20850511.551    20850517.422
  21523118.738   -23948682.24249 -18650375.27847  21523118.615    21523124.206
 04  1  7  0 22 30.0000000  0  7G24G 5G30G21G10G17G 6
  23058274.883   -13740694.36349 -10691796.04246  23058274.728    23058281.488
  21638295.666   -18971495.15449 -14541088.54947  21638295.170    21638300.935
  20232167.761   -27198874.60349 -21174875.29748  20232168.041    20232172.583
  23342797.892   -14600650.25349 -11355963.33146  23342797.378    23342802.521
  21023577.690   -23164821.25249 -17784300.02547  21023576.951    21023582.631
  20856883.254   -25040179.81049 -19498224.75048  20856882.750    20856888.605
  21512681.420   -24003530.57449 -18693114.21947  21512681.301    21512686.916
 04  1  7  0 23  0.0000000  0  7G24G 5G30G21G10G17G 6
  23073963.281   -13658251.70649 -10627555.04446  23073963.048    23073969.875
  21654086.193   -18888515.77149 -14476429.32047  21654085.658    21654091.460
  20235007.926   -27183949.72249 -21163245.53148  20235008.155    20235012.708
  23327701.445   -14679982.68449 -11417780.75946  23327700.979    23327706.058
  21024912.125   -23157808.56949 -17778835.60247  21024911.407    21024917.143
  20863309.467   -25006409.90349 -19471910.54948  20863308.962    20863314.818
  21502270.806   -24058238.59749 -18735743.83347  21502270.698    21502276.270
 04  1  7  0 23 30.0000000  0  7G24G 5G30G21G10G17G 6
  23089661.276   -13575758.45449 -10563274.61646  23089661.041    23089667.851
  21669944.644   -18805179.07649 -14411491.65747  21669944.130    21669949.941
  20237960.251   -27168434.86949 -21151156.04348  20237960.502    20237965.100
  23312643.558   -14759111.72649 -11479439.72646  23312643.123    23312648.362
  21026368.041   -23150157.83949 -17772873.99447  21026367.309    21026373.036
  20869790.417   -24972352.55649 -19445372.36848  20869789.895    20869795.754
  21491887.185   -24112804.92249 -18778263.02847  21491887.076    21491892.638
 04  1  7  0 24  0.0000000  0  7G24G 5G30G21G10G17G 6
  23105368.640   -13493215.60749 -10498955.55346  23105368.486    23105375.250
  21685870.621   -18721487.42449 -14346277.41947  21685870.144    21685875.972
  20241024.863   -27152330.26649 -21138607.01248  20241025.150    20241029.703
  23297624.673   -14838036.76349 -11540939.70146  23297624.210    23297629.437
  21027945.277   -23141869.29349 -17766415.39147  21027944.517    21027950.287
  20876325.826   -24938008.63649 -19418610.88448  20876325.301    20876331.188
  21481530.768   -24167228.35049 -18820670.87747  21481530.636    21481536.176
 04  1  7  0 24 30.0000000  0  7G24G 5G30G21G10G17G 6
  23121085.204   -13410624.62749 -10434598.98246  23121085.026    23121091.877
  21701863.782   -18637442.97949 -14280788.27547  21701863.243    21701869.102
  20244201.636   -27135636.37049 -21125598.79648  20244201.911    20244206.419
  23282644.463   -14916757.67549 -11602280.63446  23282644.081    23282649.288
  21029643.768   -23132943.48049 -17759460.21447  21029643.031    21029648.799
  20882915.361   -24903380.32849 -19391627.80548  20882914.859    20882920.767
  21471201.711   -24221508.00849 -18862966.70347  21471201.557    21471207.076
 04  1  7  0 25  0.0000000  0  7G24G 5G30G21G10G17G 6
  23136810.626   -13327987.01649 -10370206.08046  23136810.499    23136817.357
  21717923.559   -18553048.10849 -14215026.06647  21717923.065    21717928.928
  20247490.470   -27118353.52149 -21112131.64948  20247490.724    20247495.261
  23267703.477   -14995273.63349 -11663461.85846  23267703.024    23267708.139
  21031463.470   -23123380.75049 -17752008.74147  21031462.741    21031468.530
  20889558.834   -24868468.57049 -19364423.85148  20889558.350    20889564.262
  21460900.178   -24275642.63049 -18905149.50347  21460900.018    21460905.561
 04  1  7  0 25 30.0000000  0  7G24G 5G30G21G10G17G 6
  23152544.629   -13245304.55749 -10305778.22146  23152544.417    23152551.324
  21734049.546   -18468305.54449 -14148992.93347  21734049.051    21734054.949
  20250891.154   -27100482.52449 -21098206.20748  20250891.450    20250896.042
  23252801.436   -15073584.65949 -11724483.38946  23252800.911    23252805.990
  21033404.345   -23113181.65749 -17744061.39147  21033403.588    21033409.342
  20896255.841   -24833275.71949 -19337000.85848  20896255.354    20896261.273
  21450626.436   -24329631.61749 -18947218.83347  21450626.270    21450631.802
 04  1  7  0 26  0.0000000  0  7G24G 5G30G21G10G17G 6
  23168286.811   -13162578.28249 -10241316.23846  23168286.669    23168293.681
  21750241.434   -18383217.01549 -14082690.21347  21750240.931    21750246.774
  20254403.935   -27082023.00649 -21083822.17948  20254404.218    20254408.791
  23237938.428   -15151689.54949 -11785344.31246  23237937.951    23237943.065
  21035466.225   -23102346.17749 -17735618.16347  21035465.480    21035471.227
  20903006.276   -24797801.98449 -19309358.99747  20903005.780    20903011.700
  21440380.681   -24383473.02749 -18989173.16147  21440380.523    21440386.120
 04  1  7  0 26 30.0000000  0  7G24G 5G30G21G10G17G 6
  23184037.269   -13079809.37449 -10176821.01746  23184037.135    23184044.146
  21766498.788   -18297784.37349 -14016119.36147  21766498.257    21766504.116
  20258028.608   -27062975.27549 -21068979.80548  20258028.879    20258033.425
  23223114.851   -15229587.13449 -11846043.70446  23223114.433    23223119.654
  21037649.155   -23090874.76849 -17726679.40647  21037648.399    21037654.159
  20909809.847   -24762048.90349 -19281499.46447  20909809.350    20909815.273
  21430163.369   -24437165.37049 -19031011.34047  21430163.227    21430168.804
 04  1  7  0 27  0.0000000  0  7G24G 5G30G21G10G17G 6
  23199795.446   -12997000.04149 -10112294.31246  23199795.246    23199802.280
  21782820.871   -18212010.73649 -13949282.78647  21782820.427    21782826.321
  20261764.927   -27043340.63849 -21053680.09548  20261765.242    20261769.827
  23208330.724   -15307278.41349 -11906582.32746  23208330.217    23208335.493
  21039952.924   -23078768.41949 -17717245.88247  21039952.194    21039957.929
  20916666.153   -24726018.86849 -19253424.11647  20916665.664    20916671.584
  21419974.446   -24490708.49749 -19072733.24147  21419974.320    21419979.873
 04  1  7  0 27 30.0000000  0  7G24G 5G30G21G10G17G 6
  23215561.070   -12914151.54249 -10047737.07846  23215560.812    23215567.863
  21799207.544   -18125898.81149 -13882182.62347  21799207.053    21799212.950
  20265612.859   -27023119.64549 -21037923.49148  20265613.158    20265617.779
  23193585.989   -15384762.64749 -11966959.62246  23193585.495    23193590.699
  21042377.385   -23066027.80449 -17707318.13847  21042376.636    21042382.371
  20923574.888   -24689713.27949 -19225134.05947  20923574.391    20923580.317
  21409814.112   -24544101.45549 -19114338.13747  21409813.984    21409819.518
 04  1  7  0 28  0.0000000  0  7G24G 5G30G21G10G17G 6
  23231333.883   -12831264.81049  -9983150.04446  23231333.682    23231340.680
  21815658.249   -18039450.20149 -13814820.11147  21815657.714    21815663.574
  20269572.476   -27002312.14349 -21021709.86648  20269572.767    20269577.328
  23178880.759   -15462039.12249 -12027175.02146  23178880.245    23178885.458
  21044922.569   -23052652.98749 -17696896.20347  21044921.824    21044927.523
  20930535.881   -24653132.98349 -19196629.93947  20930535.382    20930541.312
  21399682.677   -24597342.52549 -19155824.66747  21399682.528    21399688.056
 04  1  7  0 28 30.0000000  0  7G24G 5G30G21G10G17G 6
  23247113.731   -12748341.47449  -9918534.49446  23247113.548    23247120.529
  21832172.498   -17952667.44449 -13747197.21747  21832171.962    21832177.834
  20273643.462   -26980918.86149 -21005039.78648  20273643.739    20273648.322
  23164215.129   -15539107.24549 -12087228.08846  23164214.598    23164219.773
  21047588.220   -23038644.75349 -17685980.70347  21047587.448    21047593.174
  20937548.793   -24616279.89549 -19167913.25647  20937548.297    20937554.232
  21389580.365   -24650430.43649 -19197191.86147  21389580.232    21389585.733
 04  1  7  0 29  0.0000000  0  7G24G 5G30G21G10G17G 6
  23262900.282   -12665382.79849  -9853891.39746  23262900.120    23262907.062
  21848749.790   -17865552.86349 -13679315.76047  21848749.315    21848755.172
  20277825.749   -26958940.55449 -20987913.84148  20277826.063    20277830.654
  23149589.245   -15615966.69449 -12147118.53546  23149588.693    23149593.874
  21050374.335   -23024003.66349 -17674572.06347  21050373.580    21050379.259
  20944613.378   -24579155.47649 -19138985.14347  20944612.856    20944618.756
  21379507.365   -24703364.13449 -19238438.88547  21379507.225    21379512.746
 04  1  7  0 29 30.0000000  0  7G24G 5G30G21G10G17G 6
  23278693.294   -12582390.06949  -9789221.77646  23278693.145    23278700.041
  21865389.866   -17778108.70649 -13611177.49647  21865389.376    21865395.246
  20282119.472   -26936377.19549 -20970332.01848  20282119.761    20282124.322
  23135003.099   -15692616.80649 -12206845.87246  23135002.661    23135007.854
  21053280.847   -23008729.95249 -17662670.47347  21053280.077    21053285.776
  20951729.388   -24541760.61049 -19109846.29347  20951728.880    20951734.783
  21369464.046   -24756142.11549 -19279564.57047  21369463.928    21369469.456
 04  1  7  0 30  0.0000000  0  7G24G 5G30G21G10G17G 6
  23294492.524   -12499365.11749  -9724527.03446  23294492.339    23294499.190
  21882092.260   -17690337.43649 -13542784.33347  21882091.733    21882097.593
  20286524.249   -26913229.99949 -20952295.25348  20286524.531    20286529.097
  23120456.955   -15769057.21849 -12266409.81246  23120456.481    23120461.709
  21056307.488   -22992824.85349 -17650276.89447  21056306.722    21056312.434
  20958896.491   -24504097.19949 -19080498.18747  20958895.978    20958901.899
  21359450.483   -24808763.64449 -19320568.35047  21359450.350    21359455.869
 04  1  7  0 30 30.0000000  0  7G24G 5G30G21G10G17G 6
  23310297.691   -12416308.65449  -9659807.75346  23310297.507    23310304.323
  21898856.407   -17602241.43849 -13474138.14747  21898855.878    21898861.747
  20291040.012   -26889499.37149 -20933803.86748  20291040.305    20291044.903
  23105950.755   -15845287.66549 -12325810.13346  23105950.304    23105955.517
  21059454.142   -22976288.99049 -17637391.81447  21059453.374    21059459.064
  20966114.433   -24466166.65349 -19050941.92547  20966113.951    20966119.840
  21349466.982   -24861227.51949 -19361449.28647  21349466.822    21349472.348
 04  1  7  0 31  0.0000000  0  7G24G 5G30G21G10G17G 6
  23326108.531   -12333222.50449  -9595065.32046  23326108.340    23326115.109
  21915681.771   -17513823.76749 -13405241.30047  21915681.269    21915687.134
  20295666.675   -26865186.22649 -20914858.57248  20295666.972    20295671.549
  23091484.555   -15921308.17149 -12385046.87346  23091484.118    23091489.257
  21062720.668   -22959123.38749 -17624016.02447  21062719.882    21062725.621
  20973382.904   -24427970.74349 -19021178.88647  20973382.410    20973388.311
  21339513.605   -24913532.80849 -19402206.64047  21339513.462    21339518.961
 04  1  7  0 31 30.0000000  0  7G24G 5G30G21G10G17G 6
  23341924.853   -12250107.52949  -9530300.43446  23341924.642    23341931.413
  21932568.041   -17425085.68049 -13336094.77147  21932567.599    21932573.486
  20300404.223   -26840290.62249 -20895459.41148  20300404.472    20300409.031
  23077058.533   -15997117.57049 -12444119.10246  23077058.025    23077063.163
  21066107.051   -22941327.74149 -17610149.29147  21066106.288    21066112.051
  20980701.690   -24389510.26149 -18991209.68947  20980701.193    20980707.100
  21329590.803   -24965677.56649 -19442838.91047  21329590.662    21329596.141
 04  1  7  0 32  0.0000000  0  7G24G 5G30G21G10G17G 6
  23357746.286   -12166965.09949  -9465514.15746  23357746.108    23357752.899
  21949514.792   -17336030.07749 -13266700.84047  21949514.317    21949520.237
  20305252.338   -26814813.41949 -20875607.05648  20305252.606    20305257.225
  23062672.803   -16072715.14849 -12503026.28146  23062672.284    23062677.452
  21069613.175   -22922903.01449 -17595792.36747  21069612.401    21069618.192
  20988070.526   -24350786.89649 -18961035.64547  20988070.041    20988075.898
  21319698.669   -25017660.69149 -19483345.22647  21319698.560    21319704.035
 04  1  7  0 32 30.0000000  0  7G24G 5G30G21G10G17G 6
  23373572.631   -12083796.76549  -9400707.70046  23373572.492    23373579.316
  21966521.639   -17246659.35449 -13197061.35347  21966521.074    21966526.971
  20310210.982   -26788755.47949 -20855302.17848  20310211.263    20310215.871
  23048327.264   -16148101.18349 -12561768.62646  23048326.765    23048331.936
  21073238.712   -22903850.35049 -17580946.14347  21073237.971    21073243.806
  20995489.121   -24311802.14049 -18930657.92147  20995488.606    20995494.455
  21309837.612   -25069481.06949 -19523724.73047  21309837.477    21309842.953
 04  1  7  0 33  0.0000000  0  7G24G 5G30G21G10G17G 6
  23389403.862   -12000603.63149  -9335881.89846  23389403.702    23389410.521
  21983587.857   -17156975.59149 -13127177.94447  21983587.349    21983593.270
  20315280.120   -26762117.41849 -20834545.26548  20315280.364    20315284.952
  23034022.105   -16223275.01649 -12620345.60446  23034021.649    23034026.796
  21076983.706   -22884170.44649 -17565611.16447  21076982.948    21076988.761
  21002957.143   -24272557.24849 -18900077.50147  21002956.656    21002962.524
  21300007.693   -25121137.40949 -19563976.40947  21300007.582    21300013.041
 04  1  7  0 33 30.0000000  0  7G24G 5G30G21G10G17G 6
  23405239.514   -11917386.88949  -9271037.70946  23405239.330    23405246.158
  22000713.168   -17066981.36049 -13057052.60347  22000712.683    22000718.636
  20320459.380   -26734899.99649 -20813336.89448  20320459.649    20320464.270
  23019757.505   -16298236.20149 -12678756.89046  23019756.984    23019762.206
  21080847.888   -22863864.16649 -17549788.09347  21080847.103    21080852.944
  21010474.394   -24233053.92949 -18869295.70647  21010473.902    21010479.781
  21290209.294   -25172628.47349 -19604099.30047  21290209.145    21290214.631
 04  1  7  0 34  0.0000000  0  7G24G 5G30G21G10G17G 6
  23421079.291   -11834147.92549  -9206176.21946  23421079.155    23421086.175
  22017897.096   -16976679.12249 -12986687.26647  22017896.587    22017902.631
  20325748.750   -26707104.27349 -20791677.90448  20325749.017    20325753.652
  23005533.357   -16372984.17349 -12737002.02046  23005532.881    23005538.082
  21084831.054   -22842932.52049 -17533477.72547  21084830.296    21084836.132
  21018040.555   -24193293.65449 -18838313.68647  21018040.044    21018045.900
  21280442.471   -25223953.22549 -19644092.59547  21280442.326    21280447.822
 04  1  7  0 34 30.0000000  0  7G24G 5G30G21G10G17G 6
  23436923.178   -11750887.97949  -9141298.38146  23436923.085    23436930.128
  22035139.234   -16886071.59349 -12916084.03747  22035138.691    22035144.730
  20331148.010   -26678730.80049 -20769568.71648  20331148.279    20331152.933
  22991349.848   -16447518.80749 -12795080.93046  22991349.400    22991354.533
  21088933.037   -22821376.48049 -17516680.81947  21088932.276    21088938.107
  21025655.354   -24153277.61449 -18807132.36947  21025654.852    21025660.669
  21270707.596   -25275110.22749 -19683955.17947  21270707.456    21270712.947
 04  1  7  0 35  0.0000000  0  7G24G 5G30G21G10G17G 6
  23452770.745   -11667608.88249  -9076405.58946  23452770.625    23452777.603
  22052439.073   -16795161.03549 -12845244.68047  22052438.504    22052444.527
  20336657.023   -26649780.84249 -20747010.31748  20336657.295    20336661.983
  22977206.865   -16521840.48549 -12852993.89246  22977206.401    22977211.544
  21093153.626   -22799197.06849 -17499398.16647  21093152.864    21093158.686
  21033318.466   -24113007.80049 -18775753.30947  21033317.957    21033323.766
  21261004.835   -25326098.59049 -19723686.35847  21261004.703    21261010.167
 04  1  7  0 35 30.0000000  0  7G24G 5G30G21G10G17G 6
  23468621.734   -11584310.82849  -9011498.04846  23468621.642    23468628.640
  22069795.957   -16703949.79949 -12774171.03347  22069795.419    22069801.459
  20342275.691   -26620254.56749 -20724002.84148  20342275.965    20342280.649
  22963104.701   -16595947.31149 -12910739.45546  22963104.303    22963109.521
  21097492.757   -22776394.75349 -17481630.13747  21097492.010    21097497.813
  21041029.796   -24072484.84249 -18744176.99247  21041029.279    21041035.057
  21251334.530   -25376916.34649 -19763284.60047  21251334.397    21251339.866
 04  1  7  0 36  0.0000000  0  7G24G 5G30G21G10G17G 6
  23484476.161   -11500995.14049  -8946576.76846  23484476.016    23484483.037
  22087209.655   -16612440.31149 -12702864.97847  22087209.103    22087215.101
  20348003.839   -26590152.97749 -20700547.07048  20348004.110    20348008.764
  22949043.545   -16669839.03149 -12968317.37846  22949043.138    22949048.368
  21101950.336   -22752970.28149 -17463377.30547  21101949.584    21101955.365
  21048788.892   -24031710.53149 -18712404.81747  21048788.357    21048794.167
  21241696.874   -25427562.52049 -19802749.13547  21241696.729    21241702.182
 04  1  7  0 36 30.0000000  0  7G24G 5G30G21G10G17G 6
  23500333.493   -11417664.25149  -8881643.62846  23500333.388    23500340.407
  22104679.433   -16520635.67949 -12631328.94547  22104678.929    22104684.970
  20353841.082   -26559478.02249 -20676644.51848  20353841.379    20353846.000
  22935023.226   -16743516.64049 -13025728.45846  22935022.794    22935027.950
  21106525.830   -22728925.69949 -17444641.27547  21106525.077    21106530.882
  21056595.379   -23990687.03749 -18680438.47347  21056594.873    21056600.677
  21232091.938   -25478036.67449 -19842079.62847  21232091.809    21232097.255
 04  1  7  0 37  0.0000000  0  7G24G 5G30G21G10G17G 6
  23516193.611   -11334318.87849  -8816699.19746  23516193.528    23516200.542
  22122205.088   -16428537.81249 -12559564.41147  22122204.577    22122210.650
  20359787.454   -26528229.83249 -20652295.29048  20359787.742    20359792.373
  22921043.734   -16816979.08549 -13082971.88746  22921043.312    22921048.414
  21111219.276   -22704261.44649 -17425422.38047  21111218.538    21111224.336
  21064449.138   -23949415.22749 -18648278.63847  21064448.636    21064454.455
  21222520.144   -25528336.75449 -19881274.48047  21222520.015    21222525.467
 04  1  7  0 37 30.0000000  0  7G24G 5G30G21G10G17G 6
  23532056.419   -11250959.50449  -8751743.88346  23532056.336    23532063.316
  22139786.117   -16336148.98349 -12487573.15847  22139785.605    22139791.707
  20365842.758   -26496408.99949 -20627499.84748  20365843.060    20365847.692
  22907105.251   -16890225.99949 -13140047.37146  22907104.891    22907109.895
  21116030.478   -22678978.37649 -17405721.29247  21116029.737    21116035.563
  21072349.992   -23907896.05949 -18615926.05347  21072349.486    21072355.319
  21212981.723   -25578461.26949 -19920332.53247  21212981.619    21212987.071
 04  1  7  0 38  0.0000000  0  7G24G 5G30G21G10G17G 6
  23547921.566   -11167588.44649  -8686779.43246  23547921.393    23547928.384
  22157421.951   -16243472.53349 -12415357.77847  22157421.406    22157427.494
  20372006.635   -26464017.62349 -20602259.82448  20372006.933    20372011.576
  22893207.943   -16963257.23149 -13196954.78846  22893207.512    22893212.469
  21120959.021   -22653078.52149 -17385539.59547  21120958.295    21120964.128
  21080297.399   -23866132.25749 -18583382.84647  21080296.894    21080302.721
  21203476.785   -25628409.85649 -19959253.48847  21203476.688    21203482.173
 04  1  7  0 38 30.0000000  0  7G24G 5G30G21G10G17G 6
  23563788.611   -11084206.72749  -8621806.67846  23563788.389    23563795.431
  22175112.059   -16150510.46449 -12342919.84847  22175111.529    22175117.610
  20378279.001   -26431056.29549 -20576575.68448  20378279.301    20378283.925
  22879351.633   -17036072.34949 -13253693.80946  22879351.225    22879356.135
  21126004.860   -22626562.75749 -17364877.96447  21126004.082    21126009.953
  21088291.200   -23824124.64049 -18550649.64847  21088290.690    21088296.531
  21194005.705   -25678180.84949 -19998036.06747  21194005.575    21194011.042
 04  1  7  0 39  0.0000000  0  7G24G 5G30G21G10G17G 6
  23579657.521   -11000814.62549  -8556825.84046  23579657.373    23579664.453
  22192856.223   -16057264.34049 -12270260.56747  22192855.736    22192861.790
  20384659.761   -26397525.01349 -20550447.42648  20384660.054    20384664.724
  22865536.643   -17108670.37649 -13310263.67046  22865536.239    22865541.169
  21131167.800   -22599431.15149 -17343736.45947  21131167.047    21131172.905
  21096331.226   -23781873.95849 -18517727.05547  21096330.704    21096336.583
  21184568.804   -25727771.99849 -20036678.50847  21184568.698    21184574.132
 04  1  7  0 39 30.0000000  0  7G24G 5G30G21G10G17G 6
  23595528.194   -10917414.02149  -8491838.37646  23595528.016    23595535.032
  22210653.813   -15963737.54449 -12197382.57947  22210653.335    22210659.440
  20391148.614   -26363425.87149 -20523876.67448  20391148.931    20391153.602
  22851762.878   -17181051.75449 -13366664.70846  22851762.464    22851767.359
  21136447.550   -22571685.87249 -17322116.76547  21136446.812    21136452.656
  21104417.139   -23739382.10249 -18484616.52847  21104416.636    21104422.529
  21175166.245   -25777182.85549 -20075180.45847  21175166.137    21175171.560
 04  1  7  0 40  0.0000000  0  7G24G 5G30G21G10G17G 6
  23611400.312   -10834005.71249  -8426844.89846  23611400.108    23611407.158
  22228504.358   -15869932.76749 -12124287.98547  22228503.827    22228509.938
  20397745.374   -26328759.76049 -20496864.13748  20397745.674    20397750.353
  22838030.477   -17253216.23649 -13422896.74146  22838030.081    22838034.946
  21141843.951   -22543327.92449 -17300019.66947  21141843.196    21141849.014
  21112548.648   -23696650.72649 -18451319.36947  21112548.157    21112554.060
  21165798.256   -25826412.07049 -20113540.87647  21165798.123    21165803.544
 04  1  7  0 40 30.0000000  0  7G24G 5G30G21G10G17G 6
  23627273.715   -10750590.80249  -8361846.30746  23627273.518    23627280.588
  22246407.252   -15775852.19849 -12050978.48647  22246406.803    22246412.894
  20404449.827   -26293527.79149 -20469410.66448  20404450.103    20404454.797
  22824339.506   -17325163.23149 -13478959.30246  22824339.009    22824343.909
  21147356.658   -22514358.31449 -17277445.95147  21147355.900    21147361.741
  21120725.483   -23653681.22149 -18417836.64647  21120724.986    21120730.907
  21156465.046   -25875458.23349 -20151758.65147  21156464.914    21156470.354
 04  1  7  0 41  0.0000000  0  7G24G 5G30G21G10G17G 6
  23643148.024   -10667170.69949  -8296843.65846  23643147.889    23643154.913
  22264362.235   -15681498.57349 -11977456.22247  22264361.763    22264367.822
  20411261.705   -26257731.09649 -20441517.15248  20411261.987    20411266.663
  22810689.742   -17396892.75949 -13534852.42046  22810689.269    22810694.167
  21152985.519   -22484778.51949 -17254396.76547  21152984.743    21152990.572
  21128947.360   -23610474.90549 -18384169.40247  21128946.864    21128952.776
  21147166.964   -25924320.03849 -20189832.77347  21147166.851    21147172.274
 04  1  7  0 41 30.0000000  0  7G24G 5G30G21G10G17G 6
  23659023.380   -10583745.07349  -8231836.68345  23659023.308    23659030.247
  22282368.986   -15586872.81349 -11903721.89247  22282368.497    22282374.544
  20418181.168   -26221369.18849 -20413183.20948  20418181.417    20418186.110
  22797081.916   -17468402.26149 -13590574.06946  22797081.469    22797086.254
  21158730.577   -22454588.09249 -17230871.76547  21158729.816    21158735.675
  21137214.374   -23567031.61149 -18350317.49347  21137213.871    21137219.775
  21137904.486   -25972994.50849 -20227760.91747  21137904.363    21137909.794
 04  1  7  0 42  0.0000000  0  7G24G 5G30G21G10G17G 6
  23674899.244   -10500317.21449  -8166827.98745  23674899.118    23674906.099
  22300426.556   -15491979.89049 -11829779.39247  22300426.016    22300432.129
  20425207.511   -26184445.43849 -20384411.46748  20425207.763    20425212.496
  22783515.541   -17539694.09849 -13646126.12046  22783515.061    22783519.810
  21164591.125   -22423790.58849 -17206873.71747  21164590.379    21164596.247
  21145525.787   -23523354.87949 -18316283.68547  21145525.287    21145531.197
  21128677.520   -26021482.54349 -20265543.78747  21128677.391    21128682.812
 04  1  7  0 42 30.0000000  0  7G24G 5G30G21G10G17G 6
  23690775.493   -10416887.12949  -8101817.56245  23690775.358    23690782.395
  22318534.651   -15396821.03649 -11755629.66846  22318534.170    22318540.262
  20432340.659   -26146960.45949 -20355202.41048  20432340.935    20432345.657
  22769990.581   -17610767.44749 -13701507.93846  22769990.124    22769995.013
  21170567.095   -22392386.74049 -17182403.19647  21170566.342    21170572.190
  21153881.369   -23479445.85249 -18282068.87747  21153880.863    21153886.798
  21119486.385   -26069782.41349 -20303180.04047  21119486.224    21119491.641
 04  1  7  0 43  0.0000000  0  7G24G 5G30G21G10G17G 6
  23706651.808   -10333456.47849  -8036806.68545  23706651.667    23706658.746
  22336692.842   -15301399.36149 -11681275.14846  22336692.310    22336698.382
  20439580.375   -26108915.69649 -20325557.15248  20439580.623    20439585.357
  22756507.453   -17681622.15749 -13756719.36446  22756506.968    22756511.828
  21176658.135   -22360378.09949 -17157461.40447  21176657.345    21176663.218
  21162280.882   -23435306.02849 -18247674.21747  21162280.398    21162286.329
  21110331.259   -26117892.69549 -20340668.55247  21110331.142    21110336.539
 04  1  7  0 43 30.0000000  0  7G24G 5G30G21G10G17G 6
  23722528.044   -10250026.56149  -7971796.39145  23722527.846    23722534.857
  22354900.495   -15205717.41149 -11606717.82546  22354900.005    22354906.093
  20446926.340   -26070312.26549 -20295476.57148  20446926.597    20446931.335
  22743065.942   -17752257.75349 -13811760.06346  22743065.394    22743070.266
  21182863.990   -22327765.98749 -17132049.38047  21182863.209    21182869.113
  21170724.134   -23390936.56849 -18213100.62547  21170723.653    21170729.585
  21101212.508   -26165812.01449 -20378008.27147  21101212.375    21101217.789
 04  1  7  0 44  0.0000000  0  7G24G 5G30G21G10G17G 6
  23738404.012   -10166597.73149  -7906786.92645  23738403.795    23738410.749
  22373157.397   -15109776.99049 -11531959.08946  22373156.896    22373162.989
  20454378.513   -26031150.99149 -20264961.30648  20454378.768    20454383.501
  22729666.116   -17822673.54649 -13866629.48246  22729665.630    22729670.570
  21189184.530   -22294551.26549 -17106167.78647  21189183.753    21189189.645
  21179210.901   -23346338.52749 -18178348.91547  21179210.398    21179216.334
  21092130.456   -26213538.50149 -20415197.72647  21092130.312    21092135.723
 04  1  7  0 44 30.0000000  0  7G24G 5G30G21G10G17G 6
  23754279.539   -10083171.27249  -7841779.30345  23754279.394    23754286.326
  22391462.807   -15013581.16049 -11457001.33146  22391462.373    22391468.491
  20461936.537   -25991433.39549 -20234012.54448  20461936.806    20461941.524
  22716308.194   -17892869.73049 -13921327.77546  22716307.718    22716312.678
  21195619.441   -22260735.58849 -17079817.91747  21195618.668    21195624.594
  21187740.864   -23301513.46149 -18143420.30147  21187740.353    21187746.287
  21083085.295   -26261071.01249 -20452236.03747  21083085.174    21083090.586
 04  1  7  0 45  0.0000000  0  7G24G 5G30G21G10G17G 6
  23770154.419    -9999748.27849  -7776774.39045  23770154.284    23770161.233
  22409816.520   -14917132.20749 -11381846.33746  22409816.017    22409822.153
  20469600.164   -25951160.74749 -20202631.27548  20469600.430    20469605.142
  22702992.181   -17962845.86649 -13975854.60546  22702991.686    22702996.775
  21202168.459   -22226320.40949 -17053000.90247  21202167.665    21202173.572
  21196313.706   -23256462.81049 -18108315.91047  21196313.188    21196319.156
  21074077.279   -26308408.19749 -20489122.14847  21074077.170    21074082.623
 04  1  7  0 45 30.0000000  0  7G24G 5G30G21G10G17G 6
  23786028.440    -9916329.79049  -7711772.98045  23786028.305    23786035.187
  22428217.714   -14820433.29249 -11306496.56046  22428217.278    22428223.389
  20477369.093   -25910334.70649 -20170818.78848  20477369.372    20477374.108
  22689718.070   -18032601.84649 -14030209.88946  22689717.595    22689722.601
  21208831.230   -22191307.37549 -17025718.02947  21208830.442    21208836.368
  21204929.178   -23211188.28149 -18073037.07147  21204928.673    21204934.662
  21065106.677   -26355548.95149 -20525855.19247  21065106.560    21065112.004
 04  1  7  0 46  0.0000000  0  7G24G 5G30G21G10G17G 6
  23801901.293    -9832917.28349  -7646776.23645  23801901.157    23801908.068
  22446666.253   -14723486.56849 -11230953.70346  22446665.697    22446671.817
  20485243.133   -25868956.37149 -20138575.94748  20485243.411    20485248.161
  22676485.821   -18102137.42349 -14084393.42846  22676485.356    22676490.250
  21215607.482   -22155697.91049 -16997970.39847  21215606.731    21215612.615
  21213586.978   -23165691.16149 -18037584.77847  21213586.480    21213592.486
  21056173.756   -26402491.85149 -20562434.06647  21056173.634    21056179.067
 04  1  7  0 46 30.0000000  0  7G24G 5G30G21G10G17G 6
  23817773.063    -9749511.50349  -7581784.70445  23817772.839    23817779.690
  22465161.248   -14626294.85849 -11155219.93746  22465160.733    22465166.827
  20493221.967   -25827027.37849 -20105904.02248  20493222.247    20493226.987
  22663295.618   -18171452.24249 -14138404.95346  22663295.177    22663300.099
  21222496.882   -22119493.81749 -16969759.42647  21222496.132    21222502.053
  21222286.874   -23119972.89449 -18001960.16547  21222286.367    21222292.386
  21047278.697   -26449235.62749 -20598857.78547  21047278.582    21047284.023
 04  1  7  0 47  0.0000000  0  7G24G 5G30G21G10G17G 6
  23833643.140    -9666113.65149  -7516799.36045  23833642.992    23833649.812
  22483702.316   -14528860.53649 -11079297.11946  22483701.827    22483707.965
  20501305.391   -25784548.84749 -20072803.88548  20501305.651    20501310.393
  22650147.452   -18240546.27549 -14192244.42746  22650146.990    22650151.994
  21229499.266   -22082696.32049 -16941086.05547  21229498.514    21229504.393
  21231028.625   -23074034.66749 -17966164.15247  21231028.105    21231034.125
  21038421.827   -26495778.64949 -20635125.06247  21038421.704    21038427.166
 04  1  7  0 47 30.0000000  0  7G24G 5G30G21G10G17G 6
  23849511.656    -9582724.09149  -7451820.49145  23849511.487    23849518.358
  22502289.250   -14431185.80649 -11003186.97646  22502288.720    22502294.872
  20509493.154   -25741521.78949 -20039276.32748  20509493.433    20509498.191
  22637041.409   -18309418.75549 -14245911.27146  22637040.983    22637045.976
  21236614.309   -22045306.67749 -16911951.27447  21236613.539    21236619.396
  21239812.038   -23027877.67049 -17930197.66847  21239811.524    21239817.523
  21029603.557   -26542119.04949 -20671234.45847  21029603.428    21029608.849
 04  1  7  0 48  0.0000000  0  7G24G 5G30G21G10G17G 6
  23865378.300    -9499344.22149  -7386849.17345  23865378.142    23865385.080
  22520921.402   -14333273.36649 -10926891.59446  22520920.881    22520926.995
  20517784.958   -25697948.21649 -20005322.90848  20517785.243    20517790.010
  22623977.530   -18378069.91949 -14299405.65946  22623977.087    22623982.060
  21243841.686   -22007326.75449 -16882356.53147  21243840.895    21243846.753
  21248636.716   -22981503.64849 -17894062.07047  21248636.215    21248642.199
  21020824.016   -26588255.90849 -20707185.25247  21020823.876    21020829.282
 04  1  7  0 48 30.0000000  0  7G24G 5G30G21G10G17G 6
  23881242.909    -9415975.07949  -7321886.20545  23881242.740    23881249.634
  22539598.267   -14235126.29649 -10850413.40246  22539597.711    22539603.828
  20526180.458   -25653829.48649 -19970944.69548  20526180.741    20526185.511
  22610955.819   -18446499.44149 -14352727.34246  22610955.391    22610960.298
  21251181.067   -21968758.09749 -16852303.03847  21251180.284    21251186.133
  21257502.432   -22934913.98249 -17857758.44447  21257501.918    21257507.890
  21012083.423   -26634187.90149 -20742976.40947  21012083.298    21012088.677
 04  1  7  0 49  0.0000000  0  7G24G 5G30G21G10G17G 6
  23897105.286    -9332617.81349  -7256932.49245  23897105.098    23897111.966
  22558319.332   -14136746.93249 -10773754.19446  22558318.721    22558324.881
  20534679.418   -25609167.16649 -19936142.90348  20534679.727    20534684.494
  22597976.280   -18514707.49749 -14405876.44746  22597975.827    22597980.708
  21258632.117   -21929602.48849 -16821792.17747  21258631.326    21258637.185
  21266408.934   -22888110.09549 -17821287.89047  21266408.422    21266414.380
  21003382.097   -26679913.65749 -20778606.85347  21003381.981    21003387.348
 04  1  7  0 49 30.0000000  0  7G24G 5G30G21G10G17G 6
  23912965.289    -9249273.21849  -7191988.65545  23912965.059    23912971.947
  22577083.946   -14038137.79449 -10696915.93846  22577083.380    22577089.649
  20543281.604   -25563962.49449 -19900918.50148  20543281.892    20543286.674
  22585038.991   -18582693.33049 -14458852.39546  22585038.523    22585043.408
  21266194.576   -21889861.46549 -16790825.15247  21266193.790    21266199.662
  21275356.031   -22841092.77349 -17784651.02847  21275355.518    21275361.485
  20994720.396   -26725431.42049 -20814075.23147  20994720.268    20994725.622
 04  1  7  0 50  0.0000000  0  7G24G 5G30G21G10G17G 6
  23928822.637    -9165942.15149  -7127055.36145  23928822.331    23928829.318
  22595891.981   -13939300.91249 -10619900.21146  22595891.440    22595897.722
  20551986.742   -25518216.80049 -19865272.52248  20551987.035    20551991.806
  22572144.032   -18650456.58249 -14511654.90746  22572143.590    22572148.425
  21273868.121   -21849536.58349 -16759403.17447  21273867.368    21273873.202
  21284343.459   -22793863.55649 -17747849.05447  21284342.976    21284348.945
  20986098.535   -26770739.46349 -20849380.19048  20986098.406    20986103.760
 04  1  7  0 50 30.0000000  0  7G24G 5G30G21G10G17G 6
  23944677.184    -9082625.65149  -7062133.42645  23944676.915    23944683.928
  22614742.794   -13840239.39449 -10542709.46146  22614742.230    22614748.494
  20560794.525   -25471931.81849 -19829206.32248  20560794.798    20560799.608
  22559291.554   -18717997.09349 -14564283.85346  22559291.078    22559295.856
  21281652.495   -21808629.40849 -16727527.46147  21281651.749    21281657.580
  21293370.945   -22746423.99149 -17710883.17747  21293370.446    21293376.385
  20977516.840   -26815836.72549 -20884520.89948  20977516.707    20977522.032
 04  1  7  0 51  0.0000000  0  7G24G 5G30G21G10G17G 6
  23960528.859    -8999324.61549  -6997223.53045  23960528.601    23960535.594
  22633635.867   -13740955.96449 -10465345.78146  22633635.280    22633641.518
  20569704.533   -25425109.47749 -19792721.40248  20569704.810    20569709.631
  22546481.311   -18785315.13349 -14616739.45246  22546480.866    22546485.690
  21289547.298   -21767141.97049 -16695199.59647  21289546.554    21289552.415
  21302438.151   -22698775.63249 -17673754.60147  21302437.639    21302443.561
  20968975.423   -26860721.99449 -20919496.42548  20968975.290    20968980.654
 04  1  7  0 51 30.0000000  0  7G24G 5G30G21G10G17G 6
  23976377.390    -8916039.95349  -6932326.40745  23976377.189    23976384.187
  22652570.675   -13641452.88249 -10387810.95446  22652570.052    22652576.335
  20578716.607   -25377750.86249 -19755818.60248  20578716.871    20578721.653
  22533713.400   -18852410.50049 -14669021.53846  22533712.965    22533717.840
  21297552.245   -21725075.82949 -16662420.79147  21297551.502    21297557.334
  21311544.825   -22650919.74349 -17636464.30847  21311544.295    21311550.258
  20960474.667   -26905393.74849 -20954305.57448  20960474.526    20960479.882
 04  1  7  0 52  0.0000000  0  8G24G 5G30G21G10G29G17G 6
  23992222.022    -8832775.92549  -6867445.34645  23992221.780    23992228.723
  22671546.025   -13541736.03449 -10310109.54346  22671545.556    22671551.866
  20587829.780   -25329860.83649 -19718501.72248  20587830.042    20587834.838
  22520987.467   -18919285.80049 -14721132.14546  22520987.015    22520991.827
  21305666.371   -21682435.89149 -16629194.87347  21305665.615    21305671.459
  24581221.974    -3330392.18149  -2203227.58245  24581222.214    24581229.187
  21320690.191   -22602860.52549 -17599015.57347  21320689.674    21320695.662
  20952014.251   -26949853.48349 -20988949.51548  20952014.112    20952019.429
 04  1  7  0 52 30.0000000  0  8G24G 5G30G21G10G29G17G 6
  24008063.246    -8749529.81549  -6802578.26445  24008063.114    24008069.897
  22690562.446   -13441804.29249 -10232240.70146  22690561.931    22690568.297
  20597044.413   -25281437.69649 -19680769.42148  20597044.673    20597049.497
  22508304.119   -18985937.43149 -14773068.46346  22508303.646    22508308.399
  21313890.008   -21639220.57949 -16595520.61247  21313889.231    21313895.045
  24567893.374    -3400435.61249  -2257806.82945  24567893.510    24567900.191
  21329874.664   -22554595.94249 -17561406.82347  21329874.135    21329880.135
  20943595.107   -26994096.42149 -21023424.52548  20943594.981    20943600.288
 04  1  7  0 53  0.0000000  0  8G24G 5G30G21G10G29G17G 6
  24023900.992    -8666301.97349  -6737725.39945  24023900.819    24023907.705
  22709619.249   -13341660.14349 -10154206.32246  22709618.828    22709625.115
  20606360.268   -25232482.53949 -19642622.56148  20606360.563    20606365.390
  22495663.321   -19052364.84149 -14824830.06546  22495662.887    22495667.634
  21322222.897   -21595430.96549 -16561398.83347  21322222.133    21322227.941
  24554584.421    -3470374.69849  -2312304.76545  24554584.515    24554591.115
  21339097.986   -22506127.07249 -17523638.88047  21339097.460    21339103.470
  20935217.568   -27038120.66549 -21057729.11648  20935217.411    20935222.732
 04  1  7  0 53 30.0000000  0  8G24G 5G30G21G10G29G17G 6
  24039735.017    -8583093.21649  -6672887.41945  24039734.838    24039741.849
  22728716.140   -13241305.86749 -10076008.22246  22728715.658    22728721.934
  20615777.133   -25182996.69449 -19604062.18648  20615777.424    20615782.251
  22483065.316   -19118567.62849 -14876416.64146  22483064.828    22483069.654
  21330664.769   -21551068.74749 -16526830.87347  21330663.999    21330669.788
  24541295.638    -3540206.11949  -2366718.82845  24541295.855    24541303.009
  21348360.040   -22457454.85949 -17485712.49247  21348359.498    21348365.508
  20926881.952   -27081924.54349 -21091861.99748  20926881.811    20926887.117
 04  1  7  0 54  0.0000000  0  8G24G 5G30G21G10G29G17G 6
  24055565.198    -8499905.19149  -6608065.58445  24055564.979    24055572.085
  22747852.321   -13140744.75549  -9997648.94046  22747851.850    22747858.117
  20625294.441   -25132983.06349 -19565090.54648  20625294.735    20625299.547
  22470509.959   -19184546.54949 -14927828.77746  22470509.510    22470514.287
  21339215.004   -21506136.77149 -16491818.94147  21339214.239    21339220.039
  24528028.151    -3609928.05149  -2421047.54145  24528028.239    24528035.282
  21357660.324   -22408581.55349 -17447629.39947  21357659.770    21357665.815
  20918588.396   -27125507.45349 -21125822.69448  20918588.233    20918593.572
 04  1  7  0 54 30.0000000  0  8G24G 5G30G21G10G29G17G 6
  24071390.908    -8416739.80349  -6543261.39245  24071390.763    24071398.020
  22767027.225   -13039980.16049  -9919131.12046  22767026.705    22767033.016
  20634911.772   -25082443.68649 -19525709.23448  20634912.078    20634916.876
  22457997.150   -19250302.12349 -14979066.87046  22457996.662    22458001.407
  21347873.237   -21460637.41449 -16456364.89747  21347872.495    21347878.288
  24514781.917    -3679537.77049  -2475288.81545  24514782.010    24514788.858
  21366998.434   -22359509.18349 -17409391.19747  21366997.915    21367003.995
  20910337.111   -27168868.35449 -21159610.39748  20910336.945    20910342.279
 04  1  7  0 55  0.0000000  0  8G24G 5G30G21G10G29G17G 6
  24087212.513    -8333596.90349  -6478474.72345  24087212.320    24087219.573
  22786240.470   -12939013.49649  -9840455.83146  22786239.984    22786246.317
  20644629.014   -25031379.36449 -19485918.87547  20644629.311    20644634.108
  22445526.907   -19315833.22949 -15030130.05546  22445526.415    22445531.249
  21356639.281   -21414571.66749 -16420469.50647  21356638.527    21356644.310
  24501557.483    -3749031.48149  -2529439.71345  24501557.515    24501564.493
  21376374.342   -22310238.15249 -17370998.19047  21376373.844    21376379.941
  20902128.472   -27212004.84349 -21193223.22948  20902128.328    20902133.657
 04  1  7  0 55 30.0000000  0  8G24G 5G30G21G10G29G17G 6
  24103029.483    -8250477.50349  -6413706.35845  24103029.390    24103036.626
  22805491.589   -12837848.13749  -9761625.71246  22805491.177    22805497.490
  20654445.672   -24979792.47949 -19445721.32547  20654445.975    20654450.741
  22433099.343   -19381140.08049 -15081018.50746  22433098.909    22433103.769
  21365512.693   -21367941.70549 -16384134.46947  21365511.934    21365517.728
  24488355.843    -3818406.49549  -2583498.06445  24488355.824    24488362.754
  21385787.776   -22260770.19649 -17332451.74047  21385787.277    21385793.382
  20893962.757   -27254915.99649 -21226660.48248  20893962.611    20893967.921
 04  1  7  0 56  0.0000000  0  8G24G 5G30G21G10G29G17G 6
  24118841.861    -8167382.89449  -6348957.31045  24118841.843    24118849.007
  22824779.998   -12736486.95149  -9682643.00946  22824779.584    22824785.912
  20664361.544   -24927684.68649 -19405117.87047  20664361.800    20664366.555
  22420714.531   -19446222.82549 -15131732.31846  22420714.043    22420718.914
  21374493.003   -21320749.83449 -16347361.58347  21374492.257    21374498.074
  24475177.342    -3887660.12649  -2637461.85945  24475177.297    24475184.188
  21395238.490   -22211106.52949 -17293752.78347  21395237.985    21395244.070
  20885840.160   -27297600.49049 -21259921.11048  20885840.024    20885845.343
 04  1  7  0 56 30.0000000  0  8G24G 5G30G21G10G29G17G 6
  24134649.489    -8084313.48449  -6284227.89945  24134649.380    24134656.616
  22844105.319   -12634932.55149  -9603509.74946  22844104.815    22844111.126
  20674376.091   -24875057.88649 -19364109.99747  20674376.367    20674381.134
  22408372.366   -19511081.19349 -15182271.29546  22408371.917    22408376.713
  21383579.904   -21272997.93649 -16310152.30847  21383579.136    21383584.924
  24462022.331    -3956789.33249  -2691328.73845  24462022.205    24462029.252
  21404726.128   -22161248.86849 -17254902.66247  21404725.617    21404731.661
  20877760.954   -27340056.91449 -21293004.02748  20877760.837    20877766.102
 04  1  7  0 57  0.0000000  0  8G24G 5G30G21G10G29G17G 6
  24150452.002    -8001270.67849  -6219519.20745  24150451.910    24150459.110
  22863466.636   -12533187.83949  -9524228.19046  22863466.181    22863472.552
  20684488.964   -24821914.26849 -19322699.40947  20684489.246    20684494.000
  22396072.893   -19575715.69849 -15232635.82946  22396072.412    22396077.159
  21392772.902   -21224688.20249 -16272508.35947  21392772.132    21392777.920
  24448891.724    -4025791.40449  -2745096.51945  24448891.565    24448898.617
  21414250.341   -22111198.74649 -17215902.57347  21414249.823    21414255.902
  20869725.363   -27382284.10949 -21325908.32248  20869725.240    20869730.525
 04  1  7  0 57 30.0000000  0  8G24G 5G30G21G10G29G17G 6
  24166249.378    -7918255.40349  -6154831.99245  24166249.244    24166256.451
  22882863.795   -12431255.08049  -9444800.10546  22882863.363    22882869.764
  20694699.945   -24768255.38849 -19280887.31547  20694700.217    20694704.982
  22383816.082   -19640125.76349 -15282825.47646  22383815.577    22383820.319
  21402071.719   -21175822.68949 -16234431.33847  21402070.955    21402076.749
  24435785.726    -4094663.14049  -2798762.76845  24435785.548    24435792.604
  21423811.014   -22060956.98349 -17176753.15147  21423810.515    21423816.627
  20861733.738   -27424280.43549 -21358632.72148  20861733.592    20861738.881
 04  1  7  0 58  0.0000000  0  8G24G 5G30G21G10G29G17G 6
  24182041.475    -7835268.02349  -6090166.50445  24182041.350    24182048.485
  22902296.371   -12329136.73249  -9365227.40946  22902295.860    22902302.233
  20705008.631   -24714083.04649 -19238675.12547  20705008.891    20705013.689
  22371601.975   -19704311.01349 -15332839.95146  22371601.523    22371606.329
  21411475.876   -21126403.20049 -16195922.65447  21411475.104    21411480.961
  24422705.299    -4163401.53749  -2852325.10245  24422705.073    24422712.153
  21433407.880   -22010525.10849 -17137455.59747  21433407.361    21433413.489
  20853786.344   -27466044.20549 -21391175.91648  20853786.204    20853791.481
 04  1  7  0 58 30.0000000  0  9G24G 5G30G21G10G29G18G17G 6
  24197827.270    -7752313.30849  -6025526.46645  24197827.093    24197834.171
  22921762.911   -12226839.26149  -9285515.13346  22921762.454    22921768.807
  20715413.929   -24659402.82449 -19196067.18347  20715414.187    20715419.011
  22359429.864   -19768275.56149 -15382682.44146  22359429.389    22359434.344
  21420984.457   -21076435.38549 -16156986.70147  21420983.701    21420989.573
  24409650.111    -4232007.22649  -2905784.02945  24409649.782    24409656.697
  24778774.546    -5189498.17349  -2281569.71345  24778773.972    24778780.137
  21443040.010   -21959908.09449 -17098013.77447  21443039.473    21443045.594
  20845882.733   -27507577.95549 -21423539.86748  20845882.606    20845887.904
 04  1  7  0 59  0.0000000  0  9G24G 5G30G21G10G29G18G17G 6
  24213606.782    -7669391.43149  -5960912.02445  24213606.609    24213613.617
  22941263.216   -12124364.71049  -9205664.86646  22941262.754    22941269.111
  20725915.667   -24604216.08449 -19153064.55147  20725915.917    20725920.722
  22347300.023   -19832018.38549 -15432352.16347  22347299.576    22347304.404
  21430597.098   -21025920.65849 -16117624.58047  21430596.317    21430602.232
  24396620.509    -4300476.68549  -2959136.82545  24396620.151    24396627.458
  24757632.463    -5300599.72349  -2368142.26045  24757631.639    24757638.132
  21452707.205   -21909106.48849 -17058428.11247  21452706.700    21452712.795
  20838023.327   -27548879.46649 -21455722.85548  20838023.167    20838028.464
 04  1  7  0 59 30.0000000  0  9G24G 5G30G21G10G29G18G17G 6
  24229381.194    -7586496.69349  -5896318.71945  24229381.028    24229387.923
  22960797.903   -12021709.40549  -9125673.76546  22960797.431    22960803.822
  20736514.637   -24548518.16849 -19109663.59847  20736514.889    20736519.704
  22335213.694   -19895533.21849 -15481844.21447  22335213.193    22335217.824
  21440314.583   -20974854.74349 -16077832.96247  21440313.820    21440319.751
  24383619.046    -4368800.24949  -3012375.92745  24383618.723    24383625.898
  24736494.925    -5411676.32349  -2454695.36945  24736494.272    24736500.883
  21462410.467   -21858115.38649 -17018694.78847  21462409.993    21462416.071
  20830209.611   -27589940.65949 -21487718.58648  20830209.476    20830214.752
 04  1  7  1  0  0.0000000  0  9G24G 5G30G21G10G29G18G17G 6
  24245150.017    -7503631.65549  -5831748.55645  24245149.812    24245156.668
  22980366.303   -11918877.42449  -9045544.98346  22980365.804    22980372.139
  20747210.103   -24492312.85449 -19065867.27247  20747210.395    20747215.195
  22323170.387   -19958821.17449 -15531159.48147  22323169.871    22323174.497
  21450136.329   -20923241.21749 -16037614.63047  21450135.560    21450141.481
  24370645.370    -4436976.99049  -3065500.61845  24370645.143    24370652.198
  24715362.424    -5522727.41749  -2541228.56045  24715361.881    24715368.655
  21472149.299   -21806937.54149 -16978815.95247  21472148.801    21472154.868
  20822441.604   -27630761.78549 -21519527.24948  20822441.454    20822446.739
 04  1  7  1  0 30.0000000  0  9G24G 5G30G21G10G29G18G17G 6
  24260912.799    -7420797.43849  -5767202.41145  24260912.649    24260919.346
  22999967.560   -11815872.03949  -8965281.10546  22999967.084    22999973.499
  20758001.850   -24435602.32649 -19021677.27247  20758002.124    20758006.870
  22311170.027   -20021882.83149 -15580298.42047  22311169.539    22311174.335
  21460061.741   -20871082.78949 -15996971.70347  21460060.979    21460066.895
  24357700.197    -4505003.96049  -3118508.58545  24357700.035    24357707.046
  24694235.035    -5633750.98849  -2627740.34745  24694234.587    24694241.566
  21481923.338   -21755574.74449 -16938793.00147  21481922.844    21481928.893
  20814719.485   -27671341.65549 -21551147.92048  20814719.330    20814724.628
 04  1  7  1  1  0.0000000  0  9G24G 5G30G21G10G29G18G17G 6
  24276669.496    -7337995.31749  -5702681.30445  24276669.401    24276676.015
  23019601.315   -11712695.82949  -8884884.09346  23019600.862    23019607.318
  20768889.236   -24378388.77449 -18977095.30647  20768889.487    20768894.276
  22299212.708   -20084718.46749 -15629261.24647  22299212.287    22299217.227
  21470090.436   -20818381.64449 -15955905.87647  21470089.666    21470095.601
  24344783.889    -4572878.39449  -3171397.67945  24344783.867    24344790.831
  24673113.564    -5744744.73749  -2714228.87745  24673113.379    24673120.201
  21491732.315   -21704028.36449 -16898626.99447  21491731.834    21491737.877
  20807043.558   -27711678.88049 -21582579.51648  20807043.414    20807048.712
 04  1  7  1  1 30.0000000  0  9G24G 5G30G21G10G29G18G17G 6
  24292419.798    -7255226.67949  -5638186.25045  24292419.608    24292426.413
  23039266.863   -11609352.58349  -8804356.92946  23039266.378    23039272.891
  20779871.674   -24320675.29949 -18932123.78847  20779871.964    20779876.775
  22287298.464   -20147328.70049 -15678048.42247  22287298.004    22287302.834
  21480221.784   -20765141.00149 -15914419.67047  21480221.033    21480226.972
  24331897.383    -4640598.50049  -3224166.51445  24331897.557    24331904.208
  24651998.037    -5855707.66649  -2800693.39845  24651997.967    24652004.397
  21501575.764   -21652300.86549 -16858319.86247  21501575.279    21501581.322
  20799413.877   -27751773.17049 -21613821.80948  20799413.725    20799419.022
 04  1  7  1  2  0.0000000  0  9G24G 5G30G21G10G29G18G17G 6
  24308163.430    -7172493.01449  -5573718.45545  24308163.289    24308170.180
  23058963.666   -11505845.53349  -8723702.13346  23058963.142    23058969.736
  20790948.902   -24262464.22349 -18886764.53447  20790949.205    20790954.015
  22275426.996   -20209714.26149 -15726660.52147  22275426.473    22275431.126
  21490455.304   -20711363.61249 -15872515.22347  21490454.538    21490460.477
  24319040.494    -4708161.67549  -3276813.03745  24319040.699    24319047.365
  24630888.868    -5966638.13449  -2887132.62645  24630888.771    24630894.947
  21511453.343   -21600394.08949 -16817873.03447  21511452.841    21511458.879
  20791830.592   -27791623.46349 -21644873.98148  20791830.455    20791835.741
 04  1  7  1  2 30.0000000  0  9G24G 5G30G21G10G29G18G17G 6
  24323900.426    -7089794.17549  -5509277.80045  24323900.314    24323907.358
  23078691.297   -11402176.11549  -8642920.81446  23078690.795    23078697.391
  20802120.570   -24203756.97249 -18841018.64947  20802120.851    20802125.653
  22263598.240   -20271874.36049 -15775096.93947  22263597.762    22263602.384
  21500790.672   -20657050.94049 -15830193.66347  21500789.913    21500795.786
  24306214.252    -4775564.13949  -3329334.35845  24306214.268    24306220.978
  24609786.495    -6077532.78549  -2973543.92145  24609786.010    24609792.094
  21521364.993   -21548308.06649 -16777286.53447  21521364.499    21521370.525
  20784294.153   -27831227.45649 -21675734.22548  20784294.013    20784299.337
 04  1  7  1  3  0.0000000  0  9G24G 5G30G21G10G29G18G17G 6
  24339630.775    -7007130.62149  -5444864.63445  24339630.744    24339637.799
  23098449.275   -11298347.15749  -8562015.17746  23098448.776    23098455.403
  20813386.244   -24144555.20049 -18794887.41647  20813386.542    20813391.388
  22251812.531   -20333808.42449 -15823357.22247  22251812.071    22251816.712
  21511227.600   -20602204.71649 -15787456.34447  21511226.848    21511232.679
  24293418.832    -4842802.65249  -3381727.92745  24293419.107    24293425.777
  24588691.253    -6188388.85349  -3059925.16745  24588690.694    24588696.797
  21531310.573   -21496044.05549 -16736561.33647  21531310.054    21531316.059
  20776804.973   -27870583.26349 -21706401.07648  20776804.827    20776810.168
 04  1  7  1  3 30.0000000  0  9G24G 5G30G21G10G29G18G17G 6
  24355354.233    -6924503.73649  -5380480.06945  24355354.159    24355361.200
  23118236.918   -11194362.23549  -8480988.02146  23118236.448    23118243.152
  20824745.522   -24084861.89549 -18748373.17747  20824745.818    20824750.674
  22240069.704   -20395517.34249 -15871442.07447  22240069.211    22240073.870
  21521765.408   -20546828.03849 -15744305.70147  21521764.662    21521770.518
  24280655.470    -4909875.01249  -3433991.99345  24280655.542    24280662.380
  24567603.468    -6299204.91349  -3146275.20845  24567602.953    24567609.031
  21541289.537   -21443604.36249 -16695699.24847  21541288.996    21541294.982
  20769363.143   -27909690.38449 -21736874.14648  20769363.019    20769368.339
 04  1  7  1  4  0.0000000  0  9G24G 5G30G21G10G29G18G17G 6
  24371070.641    -6841913.90649  -5316124.35045  24371070.559    24371077.582
  23138054.015   -11090223.14649  -8399840.73346  23138053.489    23138060.199
  20836198.022   -24024678.61349 -18701477.13447  20836198.310    20836203.212
  22228369.656   -20457000.75049 -15919351.21647  22228369.190    22228373.938
  21532403.837   -20490922.63449 -15700743.05247  21532403.088    21532408.949
  24267924.294    -4976777.84849  -3486123.99345  24267924.127    24267930.931
  24546523.810    -6409978.10949  -3232591.84645  24546523.435    24546529.370
  21551301.759   -21390989.71949 -16654700.83347  21551301.205    21551307.210
  20761969.063   -27948546.65149 -21767151.74748  20761968.938    20761974.216
 04  1  7  1  4 30.0000000  0  9G24G 5G30G21G10G29G18G17G 6
  24386779.839    -6759361.85149  -5251798.06945  24386779.734    24386786.729
  23157899.843   -10985932.40449  -8318575.27646  23157899.400    23157906.164
  20847743.437   -23964007.13049 -18654200.68147  20847743.727    20847748.632
  22216712.732   -20518258.29449 -15967084.34647  22216712.290    22216717.035
  21543142.530   -20434490.51549 -15656769.97947  21543141.773    21543147.612
  24255225.679    -5043507.97049  -3538121.41045  24255225.687    24255232.631
  24525452.776    -6520705.94449  -3318873.17145  24525452.573    24525458.362
  21561347.099   -21338201.02649 -16613566.79347  21561346.560    21561352.573
  20754623.006   -27987150.52549 -21797232.67948  20754622.844    20754628.138
 04  1  7  1  5  0.0000000  0  9G24G 5G30G21G10G29G18G17G 6
  24402481.609    -6676848.35649  -5187501.83845  24402481.484    24402488.553
  23177774.129   -10881493.17449  -8237194.09146  23177773.621    23177780.372
  20859381.251   -23902850.09649 -18606545.87447  20859381.541    20859386.449
  22205098.772   -20579290.38549 -16014641.80447  22205098.270    22205103.026
  21553980.951   -20377534.22549 -15612388.45447  21553980.200    21553986.037
  24242560.759    -5110062.60849  -3589982.09445  24242560.635    24242567.623
  24504390.876    -6631386.68449  -3405117.78045  24504390.514    24504396.397
  21571425.244   -21285239.85549 -16572298.35847  21571424.693    21571430.785
  20747325.088   -28025500.97849 -21827116.14148  20747324.946    20747330.252
 04  1  7  1  5 30.0000000  0  9G24G 5G30G21G10G29G18G17G 6
  24418175.782    -6594374.72349  -5123236.65745  24418175.649    24418182.734
  23197676.068   -10776908.17849  -8155699.35646  23197675.513    23197682.271
  20871111.023   -23841209.87249 -18558514.55747  20871111.310    20871116.247
  22193527.560   -20640097.12549 -16062023.67347  22193527.101    22193531.944
  21564918.644   -20320056.39149 -15567600.53247  21564917.868    21564923.696
  24229929.684    -5176439.12249  -3641703.97245  24229929.639    24229936.581
  24483338.431    -6742017.87949  -3491323.79345  24483338.028    24483343.893
  21581535.911   -21232107.86449 -16530896.81047  21581535.354    21581541.457
  20740075.724   -28063596.55949 -21856800.99948  20740075.604    20740080.906
 04  1  7  1  6  0.0000000  0  9G24G 5G30G21G10G29G18G17G 6
  24433862.412    -6511941.14449  -5059002.70945  24433862.289    24433869.247
  23217605.380   -10672179.69149  -8074092.79846  23217604.826    23217611.561
  20882932.322   -23779088.27749 -18510108.14247  20882932.607    20882937.614
  22181999.340   -20700678.31249 -16109229.78147  22181998.902    22182003.720
  21575955.190   -20262059.09149 -15522407.82747  21575954.388    21575960.228
  24217333.209    -5242634.34549  -3693284.57945  24217333.179    24217339.956
  24462295.934    -6852597.16649  -3577489.36845  24462295.366    24462301.382
  21591678.951   -21178805.89349 -16489362.80947  21591678.422    21591684.501
  20732875.259   -28101435.40249 -21886285.80848  20732875.119    20732880.416
 04  1  7  1  6 30.0000000  0  9G24G 5G30G21G10G29G18G17G 6
  24449541.012    -6429548.73549  -4994800.80345  24449540.786    24449547.944
  23237561.334   -10567310.50849  -7992376.58446  23237560.712    23237567.409
  20894844.894   -23716487.48949 -18461328.33147  20894845.200    20894850.151
  22170514.164   -20761033.69949 -16156259.93947  22170513.693    22170518.380
  21587090.104   -20203544.73449 -15476812.22547  21587089.309    21587095.152
  24204771.742    -5308645.30649  -3744721.62145  24204771.755    24204778.642
  24441263.615    -6963122.23249  -3663612.69045  24441263.066    24441269.146
  21601854.081   -21125335.34249 -16447697.44847  21601853.548    21601859.627
  20725723.885   -28139016.12949 -21915569.47948  20725723.750    20725729.066
 04  1  7  1  7  0.0000000  0  9G24G 5G30G21G10G29G18G17G 6
  24465211.748    -6347198.00049  -4930631.38645  24465211.487    24465218.651
  23257543.556   -10462303.30749  -7910552.84046  23257542.978    23257549.577
  20906848.312   -23653409.49049 -18412176.67047  20906848.570    20906853.533
  22159071.890   -20821163.17649 -16203114.07147  22159071.424    22159076.096
  21598323.022   -20144515.12149 -15430815.12347  21598322.223    21598328.116
  24192245.945    -5374468.68849  -3796012.48745  24192245.927    24192252.824
  24420242.137    -7073590.34249  -3749691.64945  24420241.569    24420247.649
  21612061.141   -21071696.82149 -16405901.20147  21612060.592    21612066.662
  20718621.914   -28176336.94149 -21944650.62148  20718621.797    20718627.129
 04  1  7  1  7 30.0000000  0  9G24G 5G30G21G10G29G18G17G 6
  24480874.552    -6264888.92849  -4866494.42945  24480874.383    24480881.453
  23277551.712   -10357160.14349  -7828623.15646  23277551.156    23277557.727
  20918942.045   -23589856.20049 -18362654.65247  20918942.328    20918947.345
  22147672.601   -20881066.96249 -16249792.34447  22147672.135    22147676.734
  21609653.637   -20084972.37249 -15384418.17447  21609652.858    21609658.765
  24179756.584    -5440101.41649  -3847154.79345  24179756.493    24179763.145
  24399231.799    -7183999.09149  -3835724.34945  24399231.404    24399237.530
  21622299.912   -21017891.74349 -16363975.17147  21622299.364    21622305.423
  20711569.789   -28213396.12049 -21973527.89748  20711569.679    20711574.992
 04  1  7  1  8  0.0000000  0  9G24G 5G30G21G10G29G18G17G 6
  24496529.367    -6182622.26749  -4802390.56545  24496529.186    24496536.256
  23297585.196   -10251883.88749  -7746589.74346  23297584.618    23297591.077
  20931125.802   -23525830.22849 -18312764.31147  20931126.103    20931131.102
  22136316.223   -20940745.06849 -16296294.75247  22136315.738    22136320.326
  21621081.376   -20024919.28349 -15337623.55547  21621080.617    21621086.475
  24167303.622    -5505540.69149  -3898146.37445  24167303.604    24167310.285
  24378233.239    -7294346.27649  -3921709.12145  24378233.011    24378239.054
  21632570.126   -20963921.29149 -16321920.28147  21632569.584    21632575.628
  20704567.719   -28250192.48149 -22002200.37648  20704567.596    20704572.891
 04  1  7  1  8 30.0000000  0  9G24G 5G30G21G10G29G18G17G 6
  24512175.963    -6100399.03549  -4738320.53245  24512175.833    24512182.853
  23317643.433   -10146477.41249  -7664454.86646  23317642.891    23317649.275
  20943399.078   -23461333.77249 -18262507.35647  20943399.386    20943404.369
  22125002.791   -21000197.28549 -16342621.14647  22125002.330    22125006.956
  21632605.698   -19964358.35949 -15290433.22647  21632604.949    21632610.830
  24154888.274    -5570783.58849  -3948984.92745  24154888.199    24154895.017
  24357246.894    -7404629.54149  -4007644.05945  24357246.709    24357252.586
  21642871.542   -20909787.00449 -16279737.72147  21642871.012    21642877.006
  20697615.920   -28286724.41649 -22030666.80448  20697615.779    20697621.089
 04  1  7  1  9  0.0000000  0  9G24G 5G30G21G10G29G18G17G 6
  24527814.183    -6018220.02449  -4674284.93245  24527814.127    24527820.994
  23337725.751   -10040943.72749  -7582220.88246  23337725.260    23337731.745
  20955761.511   -23396369.11049 -18211885.56647  20955761.798    20955766.813
  22113732.296   -21059423.95449 -16388771.79247  22113731.832    22113736.487
  21644226.279   -19903291.90749 -15242848.97147  21644225.525    21644231.411
  24142510.840    -5635827.32149  -3999668.29145  24142510.778    24142517.547
  24336273.243    -7514846.80949  -4093527.57545  24336272.940    24336279.041
  21653203.882   -20855490.13249 -16237428.47147  21653203.359    21653209.368
  20690714.686   -28322990.52849 -22058926.09648  20690714.546    20690719.887
 04  1  7  1  9 30.0000000  0  9G24G 5G30G21G10G29G18G17G 6
  24543443.966    -5936085.57749  -4610284.04345  24543443.828    24543450.715
  23357832.071    -9935285.15849  -7499889.57246  23357831.519    23357837.926
  20968212.549   -23330938.38449 -18160900.61147  20968212.838    20968217.910
  22102504.832   -21118424.92949 -16434746.56947  22102504.364    22102508.999
  21655942.646   -19841722.08449 -15194872.47847  21655941.873    21655947.709
  24130171.863    -5700668.85349  -4050194.10545  24130171.809    24130178.475
  24315312.894    -7624995.47349  -4179357.65145  24315312.329    24315318.218
  21663567.008   -20801031.52949 -16194993.20147  21663566.495    21663572.486
  20683864.414   -28358989.10349 -22086976.92248  20683864.279    20683869.587
 04  1  7  1 10  0.0000000  0  9G24G 5G30G21G10G29G18G17G 6
  24559064.916    -5853997.05949  -4546318.92445  24559064.693    24559071.747
  23377961.394    -9829504.71849  -7417463.30846  23377960.804    23377967.262
  20980751.702   -23265044.56249 -18109554.79947  20980752.037    20980757.113
  22091320.201   -21177200.78449 -16480545.92547  22091319.688    22091324.311
  21667754.124   -19779652.43749 -15146506.51647  21667753.366    21667759.189
  24117872.065    -5765305.75349  -4100560.43145  24117871.924    24117878.373
  24294365.817    -7735074.00249  -4265133.08845  24294364.941    24294370.709
  21673960.546   -20746413.14249 -16152433.41647  21673960.030    21673966.066
  20677065.181   -28394719.41149 -22114818.70348  20677065.026    20677070.295
 04  1  7  1 10 30.0000000  0  9G24G 5G30G21G10G29G18G17G 6
  24574677.100    -5771954.30049  -4482389.47745  24574676.806    24574683.949
  23398113.659    -9723604.63449  -7334943.81046  23398113.053    23398119.549
  20993378.805   -23198689.20749 -18057849.35547  20993379.116    20993384.148
  22080178.429   -21235750.72549 -16526169.25347  22080177.951    22080182.661
  21679660.430   -19717084.42149 -15097752.21347  21679659.654    21679665.510
  24105611.575    -5829734.29549  -4150764.41545  24105611.463    24105617.780
  24273432.704    -7845078.94249  -4350851.18045  24273431.633    24273437.436
  21684384.376   -20691635.36349 -16109749.43447  21684383.863    21684389.924
  20670317.414   -28430179.02349 -22142449.55448  20670317.257    20670322.529
 04  1  7  1 11  0.0000000  0 10G24G 5G30G21G10G29G18G17G26G 6
  24590280.395    -5689958.07049  -4418496.27945  24590280.183    24590287.388
  23418288.062    -9617586.99249  -7252332.72746  23418287.467    23418294.151
  21006093.310   -23131874.33349 -18005785.84547  21006093.584    21006098.601
  22069079.629   -21294074.86749 -16571616.63547  22069079.194    22069083.964
  21691661.197   -19654019.86549 -15048610.99247  21691660.456    21691666.262
  24093391.215    -5893951.27249  -4200803.56045  24093391.103    24093397.690
  24252513.989    -7955008.14549  -4436510.24745  24252512.954    24252518.468
  21694838.379   -20636699.08549 -16066941.93947  21694837.876    21694843.944
  24281759.478     -506577.88549   -374343.48444  24281757.259    24281764.392
  20663621.473   -28465366.22449 -22169868.13748  20663621.333    20663626.626
 04  1  7  1 11 30.0000000  0 10G24G 5G30G21G10G29G18G17G26G 6
  24605874.699    -5608008.89649  -4354639.77845  24605874.528    24605881.835
  23438484.263    -9511454.73549  -7169632.32746  23438483.805    23438490.551
  21018894.750   -23064602.44149 -17953366.21347  21018895.022    21018900.029
  22058023.947   -21352172.96649 -16616887.87447  22058023.498    22058028.195
  21703755.874   -19590461.75949 -14999085.18447  21703755.103    21703760.940
  24081211.976    -5957953.98849  -4250675.74645  24081211.814    24081218.510
  24231610.062    -8064858.95849  -4522108.22245  24231609.027    24231614.718
  21705322.260   -20581606.03949 -16024012.28647  21705321.739    21705327.805
  24264812.703     -595631.67849   -443735.98145  24264811.610    24264817.734
  20656977.685   -28500279.55049 -22197073.30948  20656977.542    20656982.813
 04  1  7  1 12  0.0000000  0 10G24G 5G30G21G10G29G18G17G26G 6
  24621460.116    -5526106.89949  -4290820.02045  24621459.918    24621467.177
  23458701.971    -9405210.43349  -7086844.60146  23458701.459    23458708.203
  21031782.721   -22996875.74449 -17900592.19047  21031783.000    21031788.014
  22047011.331   -21410045.11849 -16661983.04847  22047010.862    22047015.398
  21715944.012   -19526412.50049 -14949176.66547  21715943.245    21715949.099
  24069074.009    -6021739.34249  -4300378.54945  24069073.887    24069080.604
  24210721.148    -8174629.49949  -4607643.66345  24210720.238    24210726.258
  21715835.816   -20526356.86249 -15980960.97247  21715835.290    21715841.352
  24247875.417     -684635.03149   -513089.19945  24247875.196    24247880.802
  20650386.307   -28534917.43449 -22224063.85648  20650386.155    20650391.425
 04  1  7  1 12 30.0000000  0 10G24G 5G30G21G10G29G18G17G26G 6
  24637036.376    -5444253.11449  -4227037.84945  24637036.174    24637043.382
  23478940.323    -9298857.06149  -7003971.91646  23478939.778    23478946.625
  21044756.763   -22928696.82649 -17847465.78447  21044757.038    21044762.021
  22036041.604   -21467691.73149 -16706902.48047  22036041.116    22036045.599
  21728225.180   -19461874.48249 -14898887.29547  21728224.413    21728230.267
  24056977.817    -6085304.66049  -4349909.91245  24056977.731    24056984.291
  24189847.961    -8284317.13649  -4693114.48145  24189847.178    24189853.377
  21726378.858   -20470952.98949 -15937789.10847  21726378.321    21726384.379
  24230948.466     -773584.77449   -582400.62345  24230947.914    24230954.453
  20643847.606   -28569278.42849 -22250838.64048  20643847.462    20643852.741
 04  1  7  1 13  0.0000000  0 10G24G 5G30G21G10G29G18G17G26G 6
  24652603.478    -5362447.63449  -4163293.31745  24652603.188    24652610.233
  23499199.058    -9192396.68249  -6921015.84446  23499198.593    23499205.400
  21057816.504   -22860067.74649 -17793988.61047  21057816.767    21057821.779
  22025114.683   -21525112.65949 -16751646.05747  22025114.221    22025118.843
  21740598.952   -19396850.13849 -14848218.96847  21740598.157    21740603.982
  24044924.144    -6148646.61949  -4399267.21945  24044924.165    24044930.470
  24168990.890    -8393919.32249  -4778518.70045  24168990.416    24168996.881
  21736951.051   -20415395.48449 -15894497.54247  21736950.552    21736956.595
  24214032.432     -862477.24249   -651667.44545  24214032.124    24214038.897
  20637361.894   -28603360.75749 -22277396.28748  20637361.772    20637367.051
 04  1  7  1 13 30.0000000  0 10G24G 5G30G21G10G29G18G17G26G 6
  24668161.115    -5280691.33749  -4099587.09945  24668160.928    24668167.948
  23519477.546    -9085832.22149  -6837978.66046  23519477.154    23519483.928
  21070961.438   -22790990.77449 -17740162.42347  21070961.697    21070966.720
  22014230.744   -21582307.76849 -16796213.67147  22014230.355    22014235.070
  21753064.755   -19331341.75749 -14797173.47047  21753063.967    21753069.812
  24032913.714    -6211762.35049  -4448448.25145  24032913.632    24032919.881
  24148150.810    -8503433.92649  -4863854.67545  24148150.373    24148157.000
  21747552.401   -20359685.14949 -15851086.88447  21747551.903    21747557.945
  24197128.143     -951309.04549   -720886.98245  24197128.107    24197134.715
  20630929.592   -28637162.93549 -22303735.62948  20630929.445    20630934.736
 04  1  7  1 14  0.0000000  0 10G24G 5G30G21G10G29G18G17G26G 6
  24683708.979    -5198985.36749  -4035920.08245  24683708.785    24683716.154
  23539775.477    -8979166.46349  -6754862.53646  23539775.083    23539781.784
  21084191.033   -22721468.88149 -17685989.54047  21084191.308    21084196.348
  22003389.822   -21639277.37849 -16840605.56647  22003389.381    22003394.076
  21765622.102   -19265352.34849 -14745753.15547  21765621.334    21765627.194
  24020946.334    -6274649.36349  -4497451.05845  24020946.236    24020952.662
  24127327.871    -8612858.88149  -4949120.80145  24127327.488    24127334.011
  21758182.507   -20303823.78449 -15807558.53947  21758181.994    21758188.049
  24180235.708    -1040077.26449   -790056.96545  24180235.762    24180242.796
  20624550.725   -28670683.93849 -22329855.87848  20624550.581    20624555.851
 04  1  7  1 14 30.0000000  0 10G24G 5G30G21G10G29G18G17G26G 6
  24699247.086    -5117330.26549  -3972292.67545  24699246.898    24699254.804
  23560092.103    -8872401.96349  -6671669.47546  23560091.698    23560098.458
  21097504.794   -22651504.63449 -17631471.97147  21097505.081    21097510.120
  21992591.771   -21696021.74349 -16884821.93747  21992591.336    21992595.880
  21778270.492   -19198884.56349 -14693960.07347  21778269.708    21778275.581
  24009023.206    -6337304.92849  -4546273.52545  24009023.279    24009029.452
  24106522.583    -8722191.83049  -5034315.23745  24106522.231    24106528.518
  21768841.069   -20247812.68649 -15763913.52047  21768840.565    21768846.594
  24163355.920    -1128778.74649   -859174.97945  24163356.237    24163363.419
  20618225.642   -28703922.34649 -22355755.91648  20618225.500    20618230.768
 04  1  7  1 15  0.0000000  0 10G24G 5G30G21G10G29G18G17G26G 6
  24714775.720    -5035726.22649  -3908705.08045  24714775.407    24714783.505
  23580427.093    -8765541.66049  -6588401.76746  23580426.670    23580433.447
  21110902.377   -22581100.15149 -17576611.36847  21110902.636    21110907.653
  21981836.508   -21752541.12149 -16928863.00047  21981836.052    21981840.588
  21791009.426   -19131940.90649 -14641796.19047  21791008.668    21791014.549
  23997145.095    -6399725.67749  -4594912.99545  23997145.042    23997151.152
  24085735.338    -8831430.38749  -5119436.12145  24085734.903    24085740.940
  21779527.945   -20191652.73949 -15720152.51347  21779527.437    21779533.440
  24146489.761    -1217409.81149   -928238.10145  24146490.203    24146497.736
  20611954.679   -28736876.41349 -22381434.39348  20611954.531    20611959.790
 04  1  7  1 15 30.0000000  0 10G24G 5G30G21G10G29G18G17G26G 6
  24730294.791    -4954174.27349  -3845158.10445  24730294.394    24730302.241
  23600779.765    -8658588.76949  -6505061.91146  23600779.210    23600785.929
  21124383.131   -22510258.40749 -17521410.03647  21124383.404    21124388.419
  21971123.957   -21808835.67449 -16972728.87647  21971123.518    21971128.175
  21803838.406   -19064524.36749 -14589263.81647  21803837.637    21803843.499
  23985311.983    -6461909.46149  -4643367.83545  23985311.824    23985318.060
  24064966.309    -8940572.80049  -5204482.09745  24064965.772    24064971.744
  21790242.800   -20135345.69049 -15676276.88147  21790242.299    21790248.317
  24129637.966    -1305967.67849   -997244.18045  24129638.189    24129645.752
  20605738.053   -28769545.18149 -22406890.56048  20605737.904    20605743.137
 04  1  7  1 16  0.0000000  0 10G24G 5G30G21G10G29G18G17G26G 6
  24745803.891    -4872674.81349  -3781652.03545  24745803.456    24745811.154
  23621149.645    -8551545.44749  -6421651.59346  23621148.979    23621155.552
  21137946.659   -22438981.58549 -17465869.68147  21137946.914    21137951.929
  21960454.290   -21864905.26949 -17016419.45647  21960453.864    21960458.529
  21816756.901   -18996637.24349 -14536364.75947  21816756.104    21816761.980
  23973524.400    -6523852.95549  -4691635.42845  23973524.355    23973530.676
  24044215.942    -9049616.44849  -5289451.11945  24044215.366    24044221.244
  21800985.545   -20078892.31549 -15632287.22647  21800985.042    21800991.048
  24112800.716    -1394448.51949  -1066190.22745  24112800.656    24112808.374
  20599576.071   -28801926.53549 -22432122.76248  20599575.910    20599581.127
 04  1  7  1 16 30.0000000  0 10G24G 5G30G21G10G29G18G17G26G 6
  24761302.915    -4791228.38749  -3718187.28645  24761302.507    24761309.778
  23641536.236    -8444414.19949  -6338172.75746  23641535.445    23641542.021
  21151592.526   -22367272.17949 -17409992.24847  21151592.767    21151597.814
  21949827.395   -21920750.31649 -17059935.06447  21949826.931    21949831.515
  21829764.416   -18928282.16849 -14483101.05547  21829763.639    21829769.504
  23961783.116    -6585553.49749  -4739713.71345  23961783.052    23961789.213
  24023484.911    -9158558.94049  -5374341.31345  24023484.258    24023490.016
  21811755.921   -20022293.66349 -15588184.36947  21811755.386    21811761.395
  24095978.585    -1482848.97349  -1135073.64145  24095978.610    24095986.188
  20593469.012   -28834019.17249 -22457129.98848  20593468.868    20593474.071
 04  1  7  1 17  0.0000000  0 10G24G 5G30G21G10G29G18G17G26G 6
  24776791.719    -4709835.18849  -3654764.02045  24776791.244    24776798.247
  23661938.957    -8337197.31449  -6254627.20445  23661938.171    23661944.775
  21165320.309   -22295132.28049 -17353779.36947  21165320.573    21165325.603
  21939243.289   -21976370.13349 -17103275.16347  21939242.798    21939247.371
  21842860.593   -18859461.41749 -14429474.48747  21842859.813    21842865.661
  23950088.631    -6647007.46349  -4787599.86545  23950088.699    23950094.825
  24002773.692    -9267397.88749  -5459150.82445  24002772.906    24002778.552
  21822553.703   -19965550.62649 -15543969.00047  21822553.171    21822559.219
  24079172.705    -1571165.30649  -1203891.50045  24079172.676    24079180.138
  20587417.293   -28865821.16149 -22481910.74348  20587417.138    20587422.333
 04  1  7  1 17 30.0000000  0 10G24G 5G30G21G10G29G18G17G26G 6
  24792270.239    -4628495.55549  -3591382.48645  24792269.839    24792276.619
  23682357.362    -8229897.24649  -6171016.82245  23682356.706    23682363.335
  21179129.602   -22222564.14549 -17297232.79647  21179129.863    21179134.911
  21928701.962   -22031764.71449 -17146439.75547  21928701.456    21928706.141
  21856044.953   -18790177.15549 -14375486.73747  21856044.195    21856050.027
  23938441.758    -6708212.11549  -4835291.71445  23938441.612    23938447.929
  23982082.712    -9376130.18949  -5543877.22745  23982081.911    23982087.472
  21833378.843   -19908664.00249 -15499641.74247  21833378.297    21833384.365
  24062383.477    -1659394.02549  -1272641.09545  24062383.388    24062390.729
  20581421.193   -28897330.78249 -22506463.67148  20581421.039    20581426.247
 04  1  7  1 18  0.0000000  0 10G24G 5G30G21G10G29G18G17G26G 6
  24807738.129    -4547209.40849  -3528042.61744  24807737.901    24807744.392
  23702791.172    -8122516.43449  -6087343.49445  23702790.610    23702797.236
  21193019.954   -22149569.94249 -17240354.22547  21193020.227    21193025.262
  21918203.463   -22086933.67349 -17189428.53947  21918203.024    21918207.812
  21869317.046   -18720431.65849 -14321139.59047  21869316.307    21869322.117
  23926842.813    -6769163.97349  -4882786.62645  23926842.702    23926849.332
  23961412.551    -9484753.27749  -5628518.53445  23961411.570    23961417.081
  21844231.171   -19851634.45449 -15455203.12547  21844230.634    21844236.734
  24045611.552    -1747531.17249  -1341319.33245  24045611.549    24045618.663
  20575481.125   -28928545.98749 -22530787.19148  20575480.991    20575486.182
 04  1  7  1 18 30.0000000  0 10G24G 5G30G21G10G29G18G17G26G 6
  24823195.519    -4465977.53249  -3464744.98444  24823195.290    24823202.175
  23723239.985    -8015057.05349  -6003608.95845  23723239.443    23723246.211
  21206990.907   -22076152.07049 -17183145.52647  21206991.175    21206996.203
  21907748.170   -22141877.07949 -17232241.55847  21907747.722    21907752.406
  21882676.510   -18650227.34749 -14266434.93247  21882675.749    21882681.605
  23915292.684    -6829859.86349  -4930082.02845  23915292.557    23915299.187
  23940763.501    -9593264.66649  -5713072.81745  23940762.485    23940768.034
  21855110.519   -19794462.98349 -15410653.91847  21855109.982    21855116.052
  24028857.760    -1835573.09449  -1409923.38045  24028857.719    24028864.649
  20569597.353   -28959465.24749 -22554880.10348  20569597.214    20569602.414
 04  1  7  1 19  0.0000000  0 10G24G 5G30G21G10G29G18G17G26G 6
  24838642.723    -4384800.91149  -3401490.42344  24838642.315    24838649.373
  23743703.031    -7907522.63049  -5919815.99045  23743702.487    23743709.458
  21221041.875   -22002313.74949 -17125609.20247  21221042.158    21221047.218
  21897335.625   -22196595.91949 -17274879.59047  21897335.090    21897339.742
  21896122.595   -18579567.96949 -14211375.67147  21896121.790    21896127.621
  23903791.683    -6890298.02349  -4977176.62545  23903791.519    23903797.845
  23920135.685    -9701662.92949  -5797538.97445  23920134.895    23920140.434
  21866016.523   -19737151.45149 -15365995.57247  21866016.002    21866022.032
  24012122.105    -1923517.34849  -1478451.31545  24012122.155    24012129.240
  20563770.053   -28990087.77649 -22578741.79648  20563769.918    20563775.113
 04  1  7  1 19 30.0000000  0 10G24G 5G30G21G10G29G18G17G26G 6
  24854079.886    -4303679.43749  -3338278.84345  24854079.598    24854086.538
  23764179.976    -7799915.12949  -5835966.05545  23764179.491    23764186.552
  21235172.487   -21928057.05549 -17067746.87147  21235172.756    21235177.830
  21886965.582   -22251090.09749 -17317342.56747  21886965.100    21886969.880
  21909654.848   -18508455.44049 -14155963.30947  21909654.062    21909659.899
  23892340.323    -6950474.91249  -5024067.63445  23892340.197    23892346.552
  23899529.893    -9809945.29149  -5881914.81745  23899529.341    23899534.936
  21876949.094   -19679700.61549 -15321228.68247  21876948.564    21876954.597
  23995405.792    -2011359.94949  -1546900.02045  23995405.966    23995413.155
  20557999.659   -29020411.51449 -22602370.67248  20557999.523    20558004.696
 04  1  7  1 20  0.0000000  0 10G24G 5G30G21G10G29G18G17G26G 6
  24869506.623    -4222613.13549  -3275110.25245  24869506.318    24869512.982
  23784670.469    -7692237.22149  -5752061.22845  23784669.965    23784677.013
  21249382.268   -21853384.50049 -17009560.49847  21249382.519    21249387.590
  21876638.484   -22305358.74749 -17359629.80647  21876638.059    21876642.847
  21923272.827   -18436892.29449 -14100199.82247  21923272.045    21923277.866
  23880939.244    -7010387.74249  -5070752.87645  23880939.030    23880945.563
  23878946.607    -9918109.36949  -5966198.50245  23878946.309    23878951.908
  21887907.979   -19622111.30649 -15276353.89247  21887907.457    21887913.443
  23978709.336    -2099097.40149  -1615266.81145  23978709.785    23978717.232
  20552286.386   -29050434.94149 -22625765.53748  20552286.258    20552291.409
 04  1  7  1 20 30.0000000  0 10G24G 5G30G21G10G29G18G17G26G 6
  24884922.303    -4141604.05349  -3211986.25645  24884922.117    24884928.676
  23805173.574    -7584492.58249  -5668104.42345  23805173.032    23805180.170
  21263670.441   -21778299.56649 -16951052.78547  21263670.707    21263675.794
  21866354.152   -22359403.63249 -17401742.67847  21866353.698    21866358.351
  21936975.898   -18364882.10749 -14044087.98747  21936975.118    21936980.963
  23869588.989    -7070034.29849  -5117230.63745  23869588.847    23869595.234
  23858386.356   -10026153.64149  -6050388.82645  23858386.084    23858391.737
  21898892.799   -19564385.70249 -15231372.90747  21898892.312    21898898.262
  23962033.506    -2186727.01449  -1683549.56945  23962034.199    23962041.839
  20546630.390   -29080157.36549 -22648925.85348  20546630.264    20546635.394
 04  1  7  1 21  0.0000000  0  9G 5G30G21G10G29G18G17G26G 6
  23825689.044    -7476682.24049  -5584096.43645  23825688.519    23825695.844
  21278036.888   -21702803.25449 -16892224.51947  21278037.171    21278042.266
  21856112.717   -22413223.04349 -17443679.84847  21856112.228    21856116.813
  21950763.765   -18292426.17149 -13987628.81547  21950762.983    21950768.808
  23858289.959    -7129410.46349  -5163497.70145  23858289.930    23858296.217
  23837849.789   -10134074.19949  -6134482.73945  23837849.371    23837855.214
  21909903.712   -19506523.07849 -15186285.14847  21909903.200    21909909.120
  23945379.689    -2274243.85749  -1751744.45645  23945380.328    23945387.987
  20541032.263   -29109575.72749 -22671849.23548  20541032.109    20541037.236
 04  1  7  1 21 30.0000000  0  9G 5G30G21G10G29G18G17G26G 6
  23846216.399    -7368810.41149  -5500040.51845  23846215.958    23846223.217
  21292480.842   -21626899.68749 -16833078.90947  21292481.142    21292486.245
  21845913.774   -22466818.65749 -17485442.64047  21845913.289    21845917.909
  21964635.734   -18219528.64349 -13930825.55347  21964634.930    21964640.800
  23847042.781    -7188514.81149  -5209552.97745  23847042.706    23847048.894
  23817336.863   -10241870.43649  -6218479.79945  23817336.381    23817342.302
  21920940.179   -19448526.05549 -15141092.66747  21920939.669    21920945.557
  23928748.045    -2361646.14349  -1819850.06045  23928748.372    23928755.797
  20535491.985   -29138690.01349 -22694535.67348  20535491.845    20535496.960
 04  1  7  1 22  0.0000000  0  9G 5G30G21G10G29G18G17G26G 6
  23866755.309    -7260878.66349  -5415937.90945  23866754.770    23866762.026
  21307002.027   -21550590.91049 -16773617.55347  21307002.259    21307007.355
  21835757.428   -22520189.89849 -17527030.60247  21835756.990    21835761.732
  21978591.278   -18146191.50149 -13873679.72347  21978590.488    21978596.336
  23835847.982    -7247343.89449  -5255393.75645  23835847.926    23835854.045
  23796848.125   -10349538.89049  -6302377.27245  23796847.755    23796853.723
  21932002.126   -19390395.19449 -15095795.89647  21932001.601    21932007.489
  23912138.502    -2448929.64349  -1887863.12845  23912138.791    23912146.295
  20530010.006   -29167497.92849 -22716983.38248  20530009.860    20530014.983
 04  1  7  1 22 30.0000000  0  9G 5G30G21G10G29G18G17G26G 6
  23887305.145    -7152889.56749  -5331790.63645  23887304.553    23887311.790
  21321599.789   -21473879.14549 -16713842.17547  21321600.063    21321605.177
  21825643.958   -22573336.46049 -17568443.47947  21825643.551    21825648.243
  21992630.014   -18072417.18349 -13816193.24047  21992629.250    21992635.132
  23824706.110    -7305894.69149  -5301017.67845  23824706.039    23824712.191
  23776384.142   -10457077.48549  -6386173.57745  23776383.832    23776389.833
  21943089.403   -19332131.15749 -15050395.34747  21943088.886    21943094.784
  23895552.423    -2536090.58549  -1955780.69145  23895552.662    23895560.107
  20524586.668   -29195997.81249 -22739191.06248  20524586.534    20524591.635
 04  1  7  1 23  0.0000000  0  9G 5G30G21G10G29G18G17G26G 6
  23907865.063    -7044847.48749  -5247602.05345  23907864.380    23907871.563
  21336273.403   -21396768.87849 -16653756.27747  21336273.695    21336278.818
  21815573.000   -22626260.44249 -17609682.91247  21815572.523    21815577.018
  22006751.092   -17998210.21249 -13758369.62547  22006750.334    22006756.256
  23813617.350    -7364165.88449  -5346423.75145  23813617.346    23813623.556
  23755945.100   -10564485.38049  -6469868.03945  23755944.801    23755950.723
  21954201.447   -19273736.75249 -15004893.21147  21954200.933    21954206.841
  23878990.103    -2623127.37249  -2023601.48145  23878990.349    23878997.554
  20519221.909   -29224189.73649 -22761158.76648  20519221.768    20519226.865
 04  1  7  1 23 30.0000000  0  9G 5G30G21G10G29G18G17G26G 6
  23928434.835    -6936753.08449  -5163372.70945  23928434.200    23928441.310
  21351022.797   -21319260.64149 -16593360.27547  21351023.064    21351028.172
  21805544.632   -22678959.94849 -17650747.43347  21805544.126    21805548.618
  22020954.428   -17923571.29349 -13700209.42047  22020953.671    22020959.534
  23802582.682    -7422152.87849  -5391608.36645  23802582.745    23802588.949
  23735531.751   -10671758.60649  -6553457.54945  23735531.353    23735537.239
  21965338.521   -19215211.10249 -14959288.80147  21965337.983    21965343.932
  23862452.085    -2710034.48849  -2091321.25245  23862452.288    23862459.556
  20513916.369   -29252070.37649 -22782883.92048  20513916.241    20513921.329
 04  1  7  1 24  0.0000000  0  9G 5G30G21G10G29G18G17G26G 6
  23949014.185    -6828609.06749  -5079104.71245  23949013.462    23949020.475
  21365847.314   -21241357.13149 -16532656.26247  21365847.611    21365852.673
  21795558.731   -22731435.44449 -17691637.40647  21795558.279    21795562.844
  22035239.465   -17848503.18749 -13641714.78147  22035238.692    22035244.544
  23791602.785    -7479852.76349  -5436569.25145  23791602.836    23791608.939
  23715144.503   -10778894.36249  -6636939.95645  23715144.058    23715149.943
  21976500.365   -19156555.20549 -14913582.90247  21976499.836    21976505.781
  23845939.509    -2796808.57649  -2158937.36145  23845939.639    23845946.890
  20508670.360   -29279638.25149 -22804365.35848  20508670.223    20508675.305
 04  1  7  1 24 30.0000000  0  9G 5G30G21G10G29G18G17G26G 6
  23969602.379    -6720418.23549  -4994800.23645  23969601.680    23969608.536
  21380746.533   -21163061.48649 -16471646.69447  21380746.807    21380751.870
  21785615.550   -22783687.27649 -17732353.08847  21785615.103    21785619.648
  22049605.538   -17773008.75349 -13582887.94847  22049604.766    22049610.648
  23780677.933    -7537263.33949  -5481304.70345  23780677.920    23780684.025
  23694783.745   -10885890.96849  -6720313.92945  23694783.303    23694789.220
  21987686.729   -19097770.46949 -14867776.61047  21987686.201    21987692.131
  23829452.981    -2883446.46349  -2226447.33545  23829453.042    23829460.208
  20503484.099   -29306892.10949 -22825602.11048  20503483.953    20503489.046
 04  1  7  1 25  0.0000000  0  9G 5G30G21G10G29G18G17G26G 6
  23990198.891    -6612183.43449  -4910461.48645  23990198.171    23990205.061
  21395719.791   -21084376.45849 -16410333.71047  21395720.061    21395725.169
  21775714.898   -22835715.73349 -17772894.71147  21775714.417    21775718.933
  22064052.165   -17697091.17049 -13523731.37646  22064051.435    22064057.231
  23769808.668    -7594381.76549  -5525812.50245  23769808.614    23769814.845
  23674449.761   -10992746.27049  -6803577.78645  23674449.410    23674455.284
  21998897.399   -19038857.93249 -14821870.72647  21998896.871    21998902.848
  23812992.853    -2969944.84149  -2293848.60445  23812993.018    23812999.990
  20498357.835   -29333830.65749 -22846593.16248  20498357.692    20498362.783
 04  1  7  1 25 30.0000000  0  9G 5G30G21G10G29G18G17G26G 6
  24010803.313    -6503907.26549  -4826090.48245  24010802.577    24010809.442
  21410766.686   -21005304.60849 -16348719.30847  21410766.935    21410772.067
  21765856.775   -22887520.56849 -17813262.09247  21765856.271    21765860.829
  22078578.906   -17620752.93449 -13464247.02046  22078578.118    22078583.900
  23758995.434    -7651205.21449  -5570090.44945  23758995.390    23759001.568
  23654143.223   -11099457.91049  -6886729.69945  23654142.867    23654148.743
  22010132.157   -18979818.78549 -14775866.18647  22010131.643    22010137.639
  23796559.931    -3056300.06649  -2361138.33145  23796560.115    23796567.180
  20493291.912   -29360452.20949 -22867337.20748  20493291.779    20493296.847
 04  1  7  1 26  0.0000000  0  9G 5G30G21G10G29G18G17G26G 6
  24031414.904    -6395592.07649  -4741689.10245  24031414.298    24031421.286
  21425886.660   -20925848.55149 -16286805.51947  21425886.937    21425892.092
  21756041.098   -22939101.88949 -17853455.29847  21756040.636    21756045.199
  22093185.105   -17543996.79149 -13404437.02046  22093184.317    22093190.109
  23748238.981    -7707730.86849  -5614136.34245  23748238.866    23748244.919
  23633864.666   -11206023.27149  -6969767.63045  23633864.226    23633870.124
  22021390.903   -18920653.53149 -14729763.38147  22021390.359    22021396.385
  23780155.100    -3142508.56049  -2428313.69545  23780155.211    23780162.227
  20488286.638   -29386755.10649 -22887832.95048  20488286.485    20488291.562
 04  1  7  1 26 30.0000000  0  9G 5G30G21G10G29G18G17G26G 6
  24052033.381    -6287240.22549  -4657259.16745  24052032.874    24052040.079
  21441079.282   -20846010.91349 -16224594.39947  21441079.579    21441084.736
  21746268.004   -22990460.01049 -17893474.57747  21746267.492    21746272.029
  22107870.307   -17466825.36049 -13344303.41946  22107869.510    22107875.349
  23737539.660    -7763955.81749  -5657947.92145  23737539.554    23737545.675
  23613614.195   -11312440.17549  -7052689.87645  23613613.745    23613619.671
  22032673.429   -18861363.30449 -14683563.18947  22032672.918    22032678.925
  23763778.759    -3228566.84549  -2495372.02845  23763778.888    23763785.798
  20483342.266   -29412737.83749 -22908079.21448  20483342.107    20483347.186
 04  1  7  1 27  0.0000000  0  9G 5G30G21G10G29G18G17G26G 6
  24072658.574    -6178854.13249  -4572802.51345  24072658.075    24072665.302
  21456344.058   -20765794.14649 -16162087.85347  21456344.322    21456349.522
  21736537.328   -23041594.77549 -17933319.82047  21736536.819    21736541.379
  22122634.104   -17389241.07049 -13283848.11546  22122633.310    22122639.179
  23726898.056    -7819877.07449  -5701522.85645  23726898.000    23726904.143
  23593392.456   -11418706.04049  -7135494.43445  23593392.074    23593397.935
  22043979.592   -18801949.02649 -14637266.32947  22043979.071    22043985.074
  23747431.523    -3314471.25249  -2562310.47145  23747431.735    23747438.493
  20478459.156   -29438398.67549 -22928074.65148  20478458.998    20478464.069
 04  1  7  1 27 30.0000000  0  9G 5G30G21G10G29G18G17G26G 6
  24093289.787    -6070436.67049  -4488321.44145  24093289.293    24093296.487
  21471680.425   -20685201.19849 -16099288.18247  21471680.645    21471685.883
  21726849.144   -23092506.48749 -17972991.24747  21726848.666    21726853.220
  22137475.927   -17311246.84349 -13223073.36946  22137475.125    22137480.990
  23716314.831    -7875492.15249  -5744859.21045  23716314.767    23716320.813
  23573199.912   -11524818.61849  -7218179.53345  23573199.564    23573205.345
  22055309.222   -18742411.58349 -14590873.50247  22055308.668    22055314.667
  23731114.429    -3400218.26549  -2629126.24345  23731114.541    23731121.232
  20473637.525   -29463736.36949 -22947818.28748  20473637.366    20473642.477
 04  1  7  1 28  0.0000000  0  9G 5G30G21G10G29G18G17G26G 6
  24113926.339    -5961990.73249  -4403818.18245  24113925.837    24113933.112
  21487087.660   -20604235.32949 -16036197.91747  21487087.939    21487093.195
  21717203.299   -23143195.95949 -18012489.49947  21717202.793    21717207.310
  22152395.003   -17232846.34749 -13161982.05346  22152394.226    22152400.027
  23705790.399    -7930798.70949  -5787955.16345  23705790.223    23705796.323
  23553036.869   -11630776.41349  -7300744.03545  23553036.492    23553042.208
  22066661.874   -18682752.76449 -14544386.08347  22066661.338    22066667.387
  23714827.764    -3485805.00849  -2695817.12945  23714827.846    23714834.544
  20468877.528   -29488749.96549 -22967309.37648  20468877.381    20468882.518
 04  1  7  1 28 30.0000000  0  9G 5G30G21G10G29G18G17G26G 6
  24134568.039    -5853518.40449  -4319294.39745  24134567.486    24134574.810
  21502565.527   -20522898.60149 -15972818.68047  21502565.843    21502571.101
  21707599.754   -23193662.80749 -18051814.27447  21707599.232    21707603.725
  22167391.033   -17154041.74949 -13100575.84446  22167390.245    22167396.006
  23695325.167    -7985793.51849  -5830808.19645  23695325.008    23695331.194
  23532903.927   -11736576.22449  -7383185.42445  23532903.440    23532909.111
  22078037.567   -18622972.76549 -14497804.24747  22078037.043    22078043.121
  23698572.290    -3571227.42449  -2762379.99145  23698572.450    23698579.288
  20464179.663   -29513437.37649 -22986546.29748  20464179.533    20464184.636
 04  1  7  1 29  0.0000000  0  9G 5G30G21G10G29G18G17G26G 6
  24155214.391    -5745022.28949  -4234752.06345  24155213.693    24155220.918
  21518113.522   -20441193.54149 -15909152.43147  21518113.800    21518119.085
  21698038.584   -23243906.57449 -18090965.22947  21698038.071    21698042.565
  22182463.478   -17074835.34549 -13038856.55246  22182462.701    22182468.478
  23684919.822    -8040473.62549  -5873416.01645  23684919.692    23684925.858
  23512801.362   -11842215.42649  -7465501.65945  23512800.937    23512806.535
  22089436.282   -18563072.34349 -14451128.56447  22089435.742    22089441.770
  23682348.863    -3656481.75949  -2828811.86745  23682349.071    23682355.749
  20459544.253   -29537796.68749 -23005527.55548  20459544.142    20459549.200
 04  1  7  1 29 30.0000000  0  9G 5G30G21G10G29G18G17G26G 6
  24175864.726    -5636504.88549  -4150193.10445  24175863.947    24175871.021
  21533731.042   -20359123.33549 -15845201.64547  21533731.278    21533736.534
  21688519.729   -23293927.97349 -18129942.90547  21688519.241    21688523.708
  22197611.789   -16995230.45949 -12976826.75346  22197611.024    22197616.801
  23674574.847    -8094836.58949  -5915776.70645  23674574.733    23674580.851
  23492729.638   -11947692.24749  -7547691.38245  23492729.332    23492735.036
  22100857.577   -18503052.79749 -14404360.07147  22100857.045    22100863.057
  23666158.254    -3741564.72849  -2895110.19645  23666158.200    23666164.780
  20454971.479   -29561826.82649 -23024252.31848  20454971.358    20454976.378
 04  1  7  1 30  0.0000000  0  9G 5G30G21G10G29G18G17G26G 6
  24196518.679    -5527968.79149  -4065619.57945  24196517.929    24196524.705
  21549417.539   -20276690.13449 -15780968.01347  21549417.789    21549423.079
  21679043.409   -23343726.74449 -18168747.10447  21679042.891    21679047.333
  22212835.482   -16915229.42849 -12914488.27946  22212834.715    22212840.518
  23664290.694    -8148879.41749  -5957887.94745  23664290.633    23664296.679
  23472689.388   -12053004.13349  -7629752.56945  23472689.066    23472694.881
  22112301.474   -18442914.72649 -14357499.21447  22112300.953    22112306.913
  23650000.478    -3826472.58049  -2961272.11945  23650000.655    23650007.217
  20450461.633   -29585525.96049 -23042719.15348  20450461.510    20450466.525
 04  1  7  1 30 30.0000000  0  9G 5G30G21G10G29G18G17G26G 6
  24217175.672    -5419416.67749  -3981033.62045  24217174.789    24217181.552
  21565172.499   -20193897.47949 -15716454.27847  21565172.752    21565178.015
  21669609.221   -23393303.81949 -18207378.54847  21669608.672    21669613.155
  22228133.895   -16834835.60449 -12851843.73346  22228133.124    22228138.936
  23654067.993    -8202600.01849  -5999748.09845  23654067.919    23654074.004
  23452680.714   -12158149.46849  -7711683.96945  23452680.527    23452686.549
  22123767.612   -18382659.62449 -14310547.16346  22123767.065    22123773.023
  23633876.854    -3911202.43049  -3027295.31345  23633877.028    23633883.674
  20446015.004   -29608893.18749 -23060927.35848  20446014.888    20446019.896
 04  1  7  1 31  0.0000000  0  9G 5G30G21G10G29G18G17G26G 6
  24237835.057    -5310850.95649  -3896437.04345  24237834.146    24237841.094
  21580995.443   -20110747.59449 -15651662.18747  21580995.677    21581000.916
  21660217.237   -23442658.71649 -18245836.87147  21660216.714    21660221.230
  22243506.547   -16754051.50249 -12788895.08446  22243505.741    22243511.614
  23643907.226    -8255995.04149  -6041354.55845  23643907.144    23643913.216
  23432704.428   -12263125.26449  -7793483.26445  23432704.216    23432710.302
  22135255.961   -18322287.88249 -14263504.23346  22135255.412    22135261.346
  23617788.078    -3995750.23549  -3093176.65745  23617788.006    23617794.795
  20441631.901   -29631926.42449 -23078875.30948  20441631.783    20441636.818
 04  1  7  1 31 30.0000000  0 10G 5G30G21G16G10G29G18G17G26G 6
  24258495.023    -5202282.17049  -3811838.07245  24258494.214    24258501.121
  21596884.281   -20027251.15249 -15586600.04547  21596884.558    21596889.811
  21650865.987   -23491799.44549 -18284128.30547  21650865.498    21650869.970
  24742924.937    -4632037.96649  -3568489.00645  24742924.670    24742930.889
  22258951.538   -16672887.46149 -12725650.36646  22258950.759    22258956.601
  23633807.350    -8309069.69549  -6082711.37545  23633807.226    23633813.338
  23412759.608   -12367936.96649  -7875154.69445  23412759.264    23412765.294
  22146764.873   -18261808.31249 -14216377.27946  22146764.324    22146770.207
  23601732.861    -4080120.10049  -3158919.34545  23601732.931    23601739.607
  20437311.124   -29654632.09649 -23096568.01948  20437311.014    20437316.056
 04  1  7  1 32  0.0000000  0 10G 5G30G21G16G10G29G18G17G26G 6
  24279156.628    -5093704.99649  -3727232.55145  24279155.900    24279162.808
  21612840.041   -19943403.36349 -15521264.13347  21612840.262    21612845.527
  21641556.982   -23540718.47549 -18322246.98647  21641556.482    21641560.866
  24725981.718    -4721074.95449  -3637868.37445  24725981.349    24725987.618
  22274469.759   -16591338.79649 -12662105.94846  22274468.966    22274474.808
  23623770.369    -8361813.70349  -6123810.53945  23623770.274    23623776.362
  23392847.755   -12472574.89449  -7956690.71845  23392847.359    23392853.341
  22158295.567   -18201214.24849 -14169161.11346  22158294.992    22158300.872
  23585713.559    -4164301.24949  -3224514.98845  23585713.680    23585720.357
  20433054.397   -29677001.15249 -23113998.42848  20433054.271    20433059.319
 04  1  7  1 32 30.0000000  0 10G 5G30G21G16G10G29G18G17G26G 6
  24299820.013    -4985118.11449  -3642619.46845  24299819.375    24299826.300
  21628862.747   -19859203.42849 -15455653.81047  21628863.020    21628868.273
  21632290.741   -23589412.70749 -18360190.49447  21632290.227    21632294.629
  24709094.520    -4809817.32149  -3707018.17245  24709094.160    24709100.250
  22290061.247   -16509404.88949 -12598261.34346  22290060.442    22290066.284
  23613797.683    -8414220.68749  -6164647.07845  23613797.519    23613803.550
  23372970.037   -12577033.16549  -8038086.76446  23372969.689    23372975.516
  22169848.538   -18140502.98749 -14121853.61946  22169847.994    22169853.835
  23569731.635    -4248286.28049  -3289957.76445  23569731.744    23569738.382
  20428862.763   -29699028.38749 -23131162.48348  20428862.623    20428867.651
 04  1  7  1 33  0.0000000  0 10G 5G30G21G16G10G29G18G17G26G 6
  24320484.441    -4876525.81149  -3558002.15345  24320483.750    24320490.656
  21644951.659   -19774655.57349 -15389772.39047  21644951.961    21644957.196
  21623066.969   -23637883.47649 -18397959.87947  21623066.483    21623070.969
  24692263.568    -4898264.19549  -3775937.70145  24692263.143    24692269.122
  22305725.264   -16427089.86849 -12534119.76146  22305724.478    22305730.309
  23603889.213    -8466289.70149  -6205220.27145  23603889.048    23603895.005
  23353126.692   -12681310.58249  -8119341.86446  23353126.307    23353132.060
  22181423.334   -18079676.82949 -14074456.60446  22181422.781    22181428.674
  23553787.587    -4332073.26249  -3355246.28445  23553787.622    23553794.259
  20424736.132   -29720713.96049 -23148060.30348  20424735.989    20424741.005
 04  1  7  1 33 30.0000000  0 10G 5G30G21G16G10G29G18G17G26G 6
  24341149.384    -4767931.38249  -3473383.17945  24341148.743    24341155.589
  21661106.229   -19689763.28949 -15323622.58347  21661106.478    21661111.693
  21613885.586   -23686131.77149 -18435555.90347  21613885.119    21613889.631
  24675489.142    -4986413.55449  -3844625.37645  24675488.626    24675494.730
  22321461.190   -16344397.01249 -12469683.76146  22321460.415    22321466.218
  23594045.398    -8518018.66749  -6245528.48045  23594045.263    23594051.372
  23333317.829   -12785406.02449  -8200455.18246  23333317.600    23333323.243
  22193019.702   -18018737.39149 -14026971.32146  22193019.153    22193025.032
  23537881.594    -4415659.31049  -3420378.21345  23537881.674    23537888.263
  20420674.653   -29742057.02949 -23164691.24048  20420674.501    20420679.541
 04  1  7  1 34  0.0000000  0 10G 5G30G21G16G10G29G18G17G26G 6
  24361814.243    -4659337.95149  -3388764.99345  24361813.527    24361820.309
  21677325.616   -19604530.13849 -15257207.17047  21677325.839    21677331.067
  21604746.315   -23734158.90749 -18472979.59147  21604745.836    21604750.309
  24658771.663    -5074263.77949  -3913080.04645  24658771.278    24658777.204
  22337268.264   -16261330.30249 -12404956.44946  22337267.501    22337273.317
  23584266.713    -8569405.79649  -6285570.32045  23584266.542    23584272.679
  23313543.998   -12889318.03349  -8281425.54246  23313543.729    23313549.326
  22204637.343   -17957686.34449 -13979399.07146  22204636.790    22204642.662
  23522014.320    -4499041.76949  -3485351.49145  23522014.498    23522021.036
  20416678.478   -29763056.87349 -23181054.73048  20416678.328    20416683.372
 04  1  7  1 34 30.0000000  0 10G 5G30G21G16G10G29G18G17G26G 6
  24382478.280    -4550747.95649  -3304149.49145  24382477.512    24382484.394
  21693609.274   -19518959.10949 -15190528.46647  21693609.516    21693614.754
  21595649.079   -23781964.77949 -18510230.87347  21595648.604    21595653.054
  24642111.660    -5161812.45849  -3981299.73345  24642111.182    24642117.017
  22353145.946   -16177892.65249 -12339940.09146  22353145.180    22353150.926
  23574553.597    -8620448.54849  -6325343.82145  23574553.436    23574559.401
  23293805.580   -12993044.31349  -8362251.17046  23293805.244    23293810.783
  22216276.007   -17896524.61049 -13931740.56446  22216275.472    22216281.377
  23506186.618    -4582217.05149  -3550163.34045  23506186.825    23506193.281
  20412747.908   -29783712.18849 -23197149.75648  20412747.759    20412752.774
 04  1  7  1 35  0.0000000  0 10G 5G30G21G16G10G29G18G17G26G 6
  24403140.922    -4442164.37049  -3219538.97345  24403140.278    24403147.232
  21709956.558   -19433053.52349 -15123589.07847  21709956.790    21709962.083
  21586593.901   -23829549.75049 -18547310.02047  21586593.442    21586597.885
  24625509.436    -5249057.37849  -4049282.66645  24625509.045    24625514.844
  22369093.538   -16094087.42349 -12274637.29246  22369092.780    22369098.515
  23564906.308    -8671144.78449  -6364847.31745  23564906.235    23564912.176
  23274102.829   -13096583.02449  -8442930.64046  23274102.454    23274108.039
  22227935.414   -17835253.76449 -13883997.03546  22227934.831    22227940.824
  23490398.978    -4665182.35549  -3614811.54345  23490398.976    23490405.540
  20408883.070   -29804021.91249 -23212975.49248  20408882.924    20408887.940
 04  1  7  1 35 30.0000000  0 10G 5G30G21G16G10G29G18G17G26G 6
  24423801.763    -4333589.52649  -3134935.28245  24423801.314    24423808.377
  21726367.033   -19346815.75549 -15056390.83847  21726367.279    21726372.604
  21577580.779   -23876913.95849 -18584217.13847  21577580.312    21577584.706
  24608965.668    -5335995.78649  -4117026.76945  24608965.238    24608970.978
  22385110.680   -16009916.59749 -12209049.62346  22385109.911    22385115.694
  23555325.584    -8721491.39749  -6404078.37845  23555325.637    23555331.396
  23254436.248   -13199931.54849  -8523461.92846  23254435.869    23254441.490
  22239615.563   -17773874.12349 -13836168.72446  22239615.015    22239620.964
  23474651.795    -4747933.27549  -3679292.71345  23474651.887    23474658.576
  20405084.417   -29823983.85849 -23228530.22748  20405084.274    20405089.282
 04  1  7  1 36  0.0000000  0 10G 5G30G21G16G10G29G18G17G26G 6
  24444460.539    -4225026.03049  -3050340.41145  24444460.192    24444467.325
  21742840.148   -19260248.67549 -14988935.99647  21742840.445    21742845.805
  21568609.634   -23924057.81649 -18620952.55747  21568609.123    21568613.474
  24592480.586    -5422625.19849  -4184530.07945  24592480.160    24592485.949
  22401196.812   -15925383.44649 -12143179.61646  22401196.005    22401201.815
  23545811.956    -8771485.96349  -6443035.12145  23545811.914    23545817.661
  23234806.167   -13303087.57549  -8603843.20446  23234805.848    23234811.491
  22251316.246   -17712386.47449 -13788256.25746  22251315.705    22251321.646
  23458946.115    -4830466.68449  -3743604.37845  23458946.239    23458952.879
  20401352.165   -29843596.89249 -23243813.09548  20401352.018    20401356.990
 04  1  7  1 36 30.0000000  0 10G 5G30G21G16G10G29G18G17G26G 6
  24465116.805    -4116476.97849  -2965756.78645  24465116.572    24465123.593
  21759375.455   -19173355.34149 -14921226.92947  21759375.708    21759381.091
  21559680.254   -23970981.56749 -18657516.46147  21559679.754    21559684.115
  24576054.691    -5508943.34749  -4251790.86445  24576054.352    24576060.057
  22417351.229   -15840491.05849 -12077029.68446  22417350.491    22417356.230
  23536365.713    -8821126.05049  -6481715.63545  23536365.723    23536371.483
  23215213.187   -13406049.12349  -8684072.92946  23215212.892    23215218.567
  22263037.291   -17650792.06049 -13740260.59246  22263036.730    22263042.689
  23443282.701    -4912779.28349  -3807743.99545  23443282.782    23443289.203
  20397686.518   -29862859.91949 -23258823.22448  20397686.366    20397691.330
 04  1  7  1 37  0.0000000  0 10G 5G30G21G16G10G29G18G17G26G 6
  24485770.169    -4007943.90649  -2881185.63145  24485769.744    24485776.906
  21775972.311   -19086138.55549 -14853265.82347  21775972.548    21775977.918
  21550792.896   -24017684.73049 -18693908.48247  21550792.417    21550796.740
  24559688.432    -5594947.74249  -4318807.18045  24559687.982    24559693.812
  22433573.596   -15755242.11249 -12010601.91546  22433572.871    22433578.546
  23526987.367    -8870408.91549  -6520117.80745  23526987.406    23526993.042
  23195657.809   -13508813.71149  -8764149.16246  23195657.421    23195663.112
  22274778.491   -17589091.41149 -13692182.14746  22274777.942    22274783.891
  23427661.801    -4994867.22549  -3871708.53745  23427661.917    23427668.512
  20394087.808   -29881771.17749 -23273559.24648  20394087.657    20394092.627
 04  1  7  1 37 30.0000000  0 10G 5G30G21G16G10G29G18G17G26G 6
  24506419.872    -3899429.67349  -2796629.17045  24506419.409    24506426.468
  21792630.131   -18998601.11149 -14785054.84747  21792630.376    21792635.760
  21541947.342   -24064168.38949 -18730129.45747  21541946.841    21541951.113
  24543382.398    -5680635.74749  -4385576.95045  24543382.120    24543387.863
  22449863.207   -15669639.62349 -11943898.66246  22449862.474    22449868.198
  23517677.511    -8919332.18049  -6558239.76245  23517677.511    23517683.168
  23176140.262   -13611379.29549  -8844070.35046  23176139.872    23176145.533
  22286539.808   -17527285.46349 -13644021.65146  22286539.240    22286545.171
  23412084.171    -5076727.25249  -3935495.50445  23412084.421    23412091.016
  20390556.298   -29900329.32149 -23288020.12048  20390556.152    20390561.086
 04  1  7  1 38  0.0000000  0 10G 5G30G21G16G10G29G18G17G26G 6
  24527065.484    -3790937.03549  -2712089.52345  24527064.997    24527071.883
  21809348.496   -18910745.94449 -14716596.30247  21809348.732    21809354.077
  21533143.572   -24110432.28749 -18766179.19647  21533143.075    21533147.330
  24527137.104    -5766004.71249  -4452098.12245  24527136.826    24527142.637
  22466219.532   -15583686.14549 -11876921.90446  22466218.820    22466224.586
  23508436.699    -8967893.01449  -6596079.30545  23508436.648    23508442.358
  23156661.019   -13713743.47049  -8923834.58746  23156660.588    23156666.249
  22298320.906   -17465375.08949 -13595779.78846  22298320.384    22298326.280
  23396550.854    -5158355.46449  -3999101.82045  23396551.095    23396557.591
  20387092.302   -29918532.84449 -23302204.65948  20387092.150    20387097.060
 04  1  7  1 38 30.0000000  0 10G 5G30G21G16G10G29G18G17G26G 6
  24547706.584    -3682468.04749  -2627568.32245  24547706.016    24547712.923
  21826126.693   -18822575.99449 -14647892.46147  21826126.977    21826132.275
  21524381.560   -24156476.65349 -18802057.86547  21524381.091    21524385.403
  24510952.954    -5851052.45949  -4518369.00045  24510952.661    24510958.517
  22482642.185   -15497384.57549 -11809673.90746  22482641.481    22482647.210
  23499265.283    -9016089.21249  -6633634.72045  23499265.217    23499270.834
  23137220.518   -13815904.00949  -9003440.13346  23137220.026    23137225.692
  22310121.763   -17403361.11649 -13547457.18646  22310121.235    22310127.156
  23381062.284    -5239748.64449  -4062524.97945  23381062.358    23381068.840
  20383696.034   -29936380.34249 -23316111.78048  20383695.881    20383700.752
 04  1  7  1 39  0.0000000  0 10G 5G30G21G16G10G29G18G17G26G 6
  24568342.576    -3574025.57549  -2543067.76345  24568342.090    24568348.890
  21842964.138   -18734094.23249 -14578945.66047  21842964.421    21842969.807
  21515661.259   -24202301.72649 -18837765.65847  21515660.798    21515665.157
  24494830.421    -5935776.48949  -4584387.63445  24494830.022    24494836.014
  22499130.499   -15410738.04249 -11742157.10446  22499129.737    22499135.432
  23490163.691    -9063918.28049  -6670904.04745  23490163.628    23490169.156
  23117819.131   -13917858.66249  -9082885.26146  23117818.607    23117824.300
  22321942.139   -17341244.45749 -13499054.58146  22321941.631    22321947.541
  23365618.785    -5320903.31149  -4125762.31845  23365618.969    23365625.571
  20380367.744   -29953870.51849 -23329740.46848  20380367.605    20380372.454
 04  1  7  1 39 30.0000000  0 10G 5G30G21G16G10G29G18G17G26G 6
  24588973.157    -3465611.54249  -2458589.36545  24588972.589    24588979.480
  21859860.456   -18645303.16549 -14509757.83147  21859860.763    21859866.164
  21506982.750   -24247907.52449 -18873302.58947  21506982.276    21506986.627
  24478769.980    -6020174.11249  -4650151.92845  24478769.570    24478775.548
  22515683.920   -15323749.08349 -11674373.47846  22515683.167    22515688.889
  23481132.435    -9111377.27149  -6707885.01245  23481132.341    23481137.885
  23098457.091   -14019605.18249  -9162168.20446  23098456.801    23098462.558
  22333781.989   -17279025.59849 -13450572.32746  22333781.485    22333787.371
  23350221.616    -5401815.65749  -4188810.80845  23350221.808    23350228.371
  20377107.806   -29971001.59449 -23343089.33048  20377107.652    20377112.499
 04  1  7  1 40  0.0000000  0 10G 5G30G21G16G10G29G18G17G26G 6
  24609597.834    -3357228.38349  -2374135.01145  24609597.390    24609604.079
  21876815.145   -18556205.67049 -14440331.23447  21876815.476    21876820.902
  21498345.868   -24293294.25749 -18908668.82247  21498345.385    21498349.701
  24462772.165    -6104242.87849  -4715659.98145  24462771.726    24462777.736
  22532302.018   -15236420.21249 -11606324.99046  22532301.282    22532307.002
  23472172.142    -9158463.59049  -6744575.57445  23472172.053    23472177.619
  23079135.409   -14121141.08749  -9241287.03246  23079135.117    23079140.861
  22345641.099   -17216705.36449 -13402011.09046  22345640.595    22345646.569
  23334871.358    -5482482.04949  -4251667.64245  23334871.465    23334877.952
  20373916.460   -29987772.08749 -23356157.22948  20373916.301    20373921.167
 04  1  7  1 40 30.0000000  0 10G 5G30G21G16G10G29G18G17G26G 6
  24630215.870    -3248879.23049  -2289707.17545  24630215.367    24630222.454
  21893827.672   -18466805.04849 -14370668.43447  21893827.898    21893833.300
  21489750.631   -24338462.22349 -18943864.58247  21489750.156    21489754.439
  24446837.328    -6187980.44149  -4780909.93645  24446836.847    24446842.954
  22548984.202   -15148754.91849 -11538014.33346  22548983.463    22548989.147
  23463283.227    -9205175.50549  -6780974.41045  23463283.127    23463288.647
  23059854.327   -14222464.39349  -9320240.19246  23059853.945    23059859.673
  22357519.260   -17154284.94649 -13353371.79446  22357518.772    22357524.819
  23319568.354    -5562899.37249  -4314330.41145  23319568.539    23319574.856
  20370793.911   -30004181.20249 -23368943.52448  20370793.743    20370798.630
 04  1  7  1 41  0.0000000  0 10G 5G30G21G16G10G29G18G17G26G 6
  24650827.169    -3140566.30649  -2205307.59745  24650826.928    24650833.791
  21910897.263   -18377104.06749 -14300771.59047  21910897.471    21910902.891
  21481197.053   -24383411.67149 -18978890.08047  21481196.547    21481200.842
  24430965.964    -6271384.42649  -4845899.95945  24430965.505    24430971.599
  22565729.809   -15060755.98049 -11469443.70546  22565729.101    22565734.756
  23454466.037    -9251510.07849  -6817079.19745  23454465.911    23454471.351
  23040613.967   -14323573.19049  -9399026.21146  23040613.555    23040619.218
  22369416.419   -17091764.92749 -13304654.86646  22369415.935    22369421.954
  23304313.534    -5643063.81449  -4376796.11945  23304313.660    23304320.079
  20367740.362   -30020227.33949 -23381446.98348  20367740.207    20367745.104
 04  1  7  1 41 30.0000000  0 10G 5G30G21G16G10G29G18G17G26G 6
  24671431.312    -3032291.76849  -2120937.91145  24671430.884    24671437.808
  21928023.376   -18287105.47149 -14230642.83847  21928023.605    21928029.071
  21472684.910   -24428142.94949 -19013745.58347  21472684.410    21472688.725
  24415158.565    -6354452.21249  -4910627.99145  24415158.068    24415164.097
  22582538.388   -14972426.31849 -11400615.36546  22582537.684    22582543.249
  23445721.123    -9297464.69649  -6852887.92645  23445721.045    23445726.439
  23021414.814   -14424464.94449  -9477643.09646  23021414.337    23021420.065
  22381332.392   -17029146.18549 -13255861.02146  22381331.896    22381337.896
  23289107.484    -5722971.98249  -4439062.13045  23289107.507    23289113.980
  20364756.251   -30035908.86749 -23393666.32948  20364756.093    20364760.990
 04  1  7  1 42  0.0000000  0 10G 5G30G21G16G10G29G18G17G26G 6
  24692027.696    -2924058.22449  -2036600.15645  24692026.955    24692034.063
  21945205.542   -18196812.27249 -14160284.52347  21945205.840    21945211.334
  21464214.324   -24472656.00149 -19048431.03247  21464213.844    21464218.103
  24399415.711    -6437181.54849  -4975092.30745  24399415.216    24399421.045
  22599409.359   -14883768.56049 -11331531.37046  22599408.575    22599414.224
  23437048.868    -9343037.22549  -6888398.92245  23437048.869    23437054.168
  23002257.213   -14525137.66149  -9556089.30246  23002256.879    23002262.601
  22393267.006   -16966429.36049 -13206990.74346  22393266.494    22393272.452
  23273950.763    -5802620.36549  -4501125.72445  23273950.909    23273957.353
  20361841.814   -30051224.28149 -23405600.39348  20361841.650    20361846.561
 04  1  7  1 42 30.0000000  0 10G 5G30G21G16G10G29G18G17G26G 6
  24712615.687    -2815867.93049  -1952296.06645  24712614.873    24712622.114
  21962443.292   -18106227.13349 -14089698.71947  21962443.607    21962449.084
  21455785.220   -24516951.36849 -19082946.85747  21455784.739    21455788.833
  24383737.735    -6519569.43149  -5039290.56145  24383737.310    24383743.041
  22616342.273   -14794785.32849 -11262193.75846  22616341.483    22616347.089
  23428449.886    -9388224.88949  -6923610.03445  23428449.852    23428455.217
  22983141.988   -14625588.66449  -9634362.74346  22983141.682    22983147.311
  22405220.189   -16903615.02549 -13158044.49246  22405219.670    22405225.616
  23258844.372    -5882005.07449  -4562983.85245  23258844.417    23258850.840
  20358997.327   -30066172.05649 -23417247.98948  20358997.150    20359002.066
 04  1  7  1 43  0.0000000  0 10G 5G30G21G16G10G29G18G17G26G 6
  24733194.795    -2707723.51349  -1868027.74345  24733194.146    24733201.459
  21979736.074   -18015353.23049 -14018887.90847  21979736.335    21979741.833
  21447397.595   -24561028.88149 -19117292.92247  21447397.066    21447401.108
  24368125.196    -6601613.86349  -5103221.21245  24368124.799    24368130.460
  22633336.522   -14705479.73349 -11192604.96846  22633335.748    22633341.372
  23419924.622    -9433025.39649  -6958519.45945  23419924.584    23419929.844
  22964069.452   -14725816.15849  -9712462.02346  22964069.015    22964074.573
  22417191.728   -16840703.87749 -13109022.80446  22417191.242    22417197.171
  23243788.724    -5961122.74749  -4624633.90745  23243788.790    23243795.126
  20356223.000   -30080751.05049 -23428608.21648  20356222.830    20356227.764
 04  1  7  1 43 30.0000000  0 10G 5G30G21G16G10G29G18G17G26G 6
  24753764.813    -2599627.08849  -1783796.81745  24753764.155    24753771.595
  21997083.162   -17924193.41649 -13947854.31047  21997083.496    21997088.909
  21439051.265   -24604888.57649 -19151469.26847  21439050.764    21439054.895
  24352578.377    -6683312.40649  -5166882.33245  24352577.911    24352583.623
  22650391.568   -14615855.00449 -11122767.48846  22650390.801    22650396.378
  23411473.379    -9477436.57149  -6993125.49845  23411473.255    23411478.646
  22945039.740   -14825817.84049  -9790385.33746  22945039.330    22945044.753
  22429181.549   -16777697.08449 -13059926.58846  22429181.011    22429186.953
  23228784.534    -6039970.17249  -4686073.37045  23228784.587    23228790.851
  20353519.091   -30094959.97049 -23439680.07648  20353518.932    20353523.843
 04  1  7  1 44  0.0000000  0 10G 5G30G21G16G10G29G18G17G26G 6
  24774325.313    -2491580.70449  -1699604.89345  24774324.812    24774332.303
  22014484.343   -17832750.16549 -13876599.85047  22014484.609    22014490.028
  21430746.409   -24648530.63449 -19185476.03047  21430745.943    21430750.106
  24337097.909    -6764662.14549  -5230271.63945  24337097.508    24337103.276
  22667506.897   -14525913.23349 -11052682.97246  22667506.132    22667511.623
  23403096.815    -9521455.33849  -7027425.77045  23403096.754    23403102.125
  22926053.482   -14925591.06149  -9868130.63346  22926053.054    22926058.493
  22441189.429   -16714594.77749 -13010755.94346  22441188.938    22441194.909
  23213832.518    -6118543.03249  -4747298.89345  23213832.568    23213838.826
  20350885.992   -30108796.98349 -23450462.13948  20350885.835    20350890.712
 04  1  7  1 44 30.0000000  0 10G 5G30G21G16G10G29G18G17G26G 6
  24794875.739    -2383587.67549  -1615454.55445  24794875.215    24794882.756
  22031938.856   -17741026.76849 -13805127.09647  22031939.066    22031944.443
  21422483.009   -24691955.15549 -19219313.27347  21422482.504    21422486.614
  24321684.196    -6845661.06649  -5293387.58445  24321683.978    24321689.671
  22684681.945   -14435657.74849 -10982354.00146  22684681.202    22684686.705
  23394795.396    -9565079.54149  -7061418.59645  23394795.300    23394800.632
  22907111.030   -15025133.80449  -9945696.32246  22907110.648    22907116.119
  22453215.378   -16651398.01249 -12961511.69746  22453214.863    22453220.844
  23198933.261    -6196838.35749  -4808308.15345  23198933.353    23198939.632
  20348323.871   -30122261.06849 -23460953.60648  20348323.709    20348328.548
 04  1  7  1 45  0.0000000  0 10G 5G30G21G16G10G29G18G17G26G 6
  24815415.682    -2275650.14149  -1531347.45445  24815415.035    24815422.807
  22049445.960   -17649026.12549 -13733438.29947  22049446.216    22049451.640
  21414260.829   -24735162.84249 -19252981.55947  21414260.316    21414264.367
  24306337.829    -6926306.71549  -5356228.27245  24306337.593    24306343.233
  22701916.204   -14345091.13449 -10911782.59546  22701915.451    22701921.002
  23386569.482    -9608307.01549  -7095102.27346  23386569.405    23386574.819
  22888212.841   -15124444.05349 -10023080.86246  22888212.440    22888217.969
  22465259.156   -16588107.48749 -12912194.39046  22465258.645    22465264.614
  23184087.625    -6274852.52549  -4869098.31845  23184087.761    23184094.200
  20345832.971   -30135350.81449 -23471153.38548  20345832.813    20345837.634
 04  1  7  1 45 30.0000000  0  9G30G21G16G10G29G18G17G26G 6
  22067005.275   -17556751.07249 -13661535.68147  22067005.570    22067011.011
  21406079.918   -24778153.40549 -19286480.65947  21406079.410    21406083.485
  24291059.114    -7006596.55849  -5418791.71945  24291058.760    24291064.435
  22719209.067   -14254216.45949 -10840971.13546  22719208.290    22719213.873
  23378419.431    -9651135.18149  -7128474.80046  23378419.357    23378424.788
  22869359.260   -15223519.51849 -10100282.44546  22869358.893    22869364.415
  22477320.604   -16524723.87749 -12862804.55146  22477320.135    22477326.090
  23169296.180    -6352582.06549  -4929666.70445  23169296.230    23169302.545
  20343413.563   -30148064.81749 -23481060.37848  20343413.418    20343418.221
 04  1  7  1 46  0.0000000  0  9G30G21G16G10G29G18G17G26G 6
  22084616.932   -17464201.34449 -13589419.03147  22084617.227    22084622.672
  21397940.883   -24820923.91949 -19319808.29047  21397940.394    21397944.534
  24275849.154    -7086524.87249  -5481073.47445  24275848.849    24275854.524
  22736560.680   -14163032.84349 -10769918.94946  22736559.917    22736565.494
  23370346.501    -9693558.62249  -7161531.96446  23370346.456    23370351.749
  22850551.454   -15322354.64449 -10177296.75946  22850551.103    22850556.595
  22489400.311   -16461244.67649 -12813340.21846  22489399.843    22489405.747
  23154560.138    -6430020.08849  -4990007.92145  23154560.172    23154566.380
  20341066.557   -30160398.38949 -23490670.93148  20341066.393    20341071.185
 04  1  7  1 46 30.0000000  0  9G30G21G16G10G29G18G17G26G 6
  22102279.287   -17371384.69049 -13517094.38947  22102279.580    22102285.082
  21389842.795   -24863479.51049 -19352968.44947  21389842.310    21389846.485
  24260707.556    -7166094.30949  -5543075.59045  24260707.252    24260712.828
  22753969.587   -14071548.24449 -10698632.22546  22753968.826    22753974.394
  23362350.085    -9735579.67849  -7194275.57246  23362350.002    23362355.362
  22831788.934   -15420952.18049 -10254125.93546  22831788.601    22831794.048
  22501497.118   -16397675.28349 -12763805.61746  22501496.668    22501502.581
  23139879.266    -6507167.96349  -5050123.05945  23139879.355    23139885.503
  20338791.245   -30172355.02749 -23499987.76948  20338791.078    20338795.890
 04  1  7  1 47  0.0000000  0  9G30G21G16G10G29G18G17G26G 6
  22119992.022   -17278303.57549 -13444563.66347  22119992.358    22119997.839
  21381785.601   -24905819.90349 -19385960.91647  21381785.128    21381789.299
  24245634.782    -7245302.07049  -5604795.87045  24245634.467    24245639.986
  22771435.273   -13979765.05349 -10627112.84046  22771434.494    22771440.116
  23354430.694    -9777195.63549  -7226703.53546  23354430.654    23354436.101
  22813072.086   -15519309.69649 -10330768.08046  22813071.799    22813077.174
  22513611.156   -16334016.07249 -12714201.00646  22513610.672    22513616.525
  23125254.466    -6584021.72449  -5110009.00445  23125254.500    23125260.692
  20336588.003   -30183932.90049 -23509009.46548  20336587.853    20336592.683
 04  1  7  1 47 30.0000000  0  9G30G21G16G10G29G18G17G26G 6
  22137754.758   -17184960.25649 -13371828.63447  22137755.041    22137760.530
  21373769.474   -24947944.64549 -19418785.33747  21373769.018    21373773.142
  24230631.525    -7324144.76849  -5666231.67645  24230631.194    24230636.640
  22788957.431   -13887685.52949 -10555362.53246  22788956.654    22788962.236
  23346589.133    -9818403.67349  -7258813.61546  23346589.092    23346594.429
  22794401.481   -15617424.29949 -10407220.94346  22794401.174    22794406.531
  22525742.214   -16270266.92049 -12664526.32846  22525741.754    22525747.514
  23110686.200    -6660577.27749  -5169662.59345  23110686.335    23110692.576
  20334457.270   -30195129.93949 -23517734.41448  20334457.108    20334461.907
 04  1  7  1 48  0.0000000  0  9G30G21G16G10G29G18G17G26G 6
  22155566.812   -17091357.91849 -13298891.75946  22155567.030    22155572.469
  21365794.402   -24989853.81749 -19451441.77947  21365793.959    21365798.040
  24215698.165    -7402620.23749  -5727381.33445  24215697.811    24215703.244
  22806535.333   -13795312.85449 -10483383.79746  22806534.555    22806540.155
  23338825.555    -9859201.31849  -7290603.91946  23338825.478    23338830.760
  22775777.557   -15715293.63449 -10483482.68446  22775777.208    22775782.555
  22537890.196   -16206428.76549 -12614782.29746  22537889.704    22537895.425
  23096175.641    -6736831.10349  -5229081.06945  23096175.701    23096181.819
  20332399.228   -30205944.88249 -23526161.62148  20332399.073    20332403.867
 04  1  7  1 48 30.0000000  0  9G30G21G16G10G29G18G17G26G 6
  22173427.553   -16997498.87049 -13225754.86246  22173427.815    22173433.274
  21357860.348   -25031547.56149 -19483930.35847  21357859.861    21357863.975
  24200835.222    -7480725.64649  -5788242.64545  24200834.921    24200840.247
  22824168.593   -13702649.26549 -10411178.37546  22824167.847    22824173.492
  23331140.530    -9899586.00849  -7322072.43746  23331140.438    23331145.736
  22757200.620   -15812915.67749 -10559551.73346  22757200.268    22757205.597
  22550055.016   -16142501.88149 -12564969.12446  22550054.542    22550060.253
  23081723.071    -6812779.26949  -5288261.37345  23081723.256    23081729.385
  20330414.220   -30216376.04249 -23534289.77648  20330414.067    20330418.867
 04  1  7  1 49  0.0000000  0  9G30G21G16G10G29G18G17G26G 6
  22191336.664   -16903385.99049 -13152420.16646  22191336.927    22191342.347
  21349967.235   -25073025.84449 -19516251.04847  21349966.766    21349970.908
  24186043.144    -7558458.66049  -5848813.79845  24186042.781    24186048.133
  22841856.757   -13609697.38749 -10338748.31846  22841855.982    22841861.630
  23323534.559    -9939555.26449  -7353217.23646  23323534.413    23323539.793
  22738671.185   -15910287.95849 -10635426.16646  22738670.846    22738676.222
  22562236.707   -16078486.42249 -12515086.92646  22562236.199    22562241.924
  23067329.462    -6888418.25749  -5347200.76345  23067329.581    23067335.620
  20328502.513   -30226422.08449 -23542117.84048  20328502.361    20328507.152
 04  1  7  1 49 30.0000000  0  9G30G21G16G10G29G18G17G26G 6
  22209293.531   -16809022.26049 -13078890.00646  22209293.816    22209299.213
  21342115.095   -25114288.75149 -19548403.90447  21342114.642    21342118.745
  24171322.235    -7635816.88749  -5909092.87445  24171321.922    24171327.174
  22859599.138   -13516460.27949 -10266096.00346  22859598.360    22859604.033
  23316008.033    -9979106.86549  -7384036.58846  23316007.923    23316013.384
  22720189.769   -16007407.96749 -10711104.01446  22720189.410    22720194.805
  22574435.093   -16014383.43849 -12465136.52646  22574434.584    22574440.276
  23052995.167    -6963744.51349  -5405896.47545  23052995.343    23053001.392
  20326664.322   -30236081.70549 -23549644.79448  20326664.173    20326668.968
 04  1  7  1 50  0.0000000  0  9G30G21G16G10G29G18G17G26G 6
  22227297.553   -16714410.59949 -13005166.65546  22227297.822    22227303.217
  21334304.054   -25155336.17749 -19580388.85747  21334303.579    21334307.610
  24156673.068    -7712797.91249  -5969078.01145  24156672.794    24156678.097
  22877395.277   -13422940.62849 -10193223.53046  22877394.529    22877400.225
  23308561.580   -10018238.45449  -7414528.66946  23308561.499    23308566.787
  22701756.796   -16104273.70349 -10786583.73646  22701756.451    22701761.790
  22586650.011   -15950193.27949 -12415118.20046  22586649.478    22586655.232
  23038721.142    -7038754.46549  -5464345.69645  23038721.385    23038727.366
  20324900.008   -30245353.42149 -23556869.48348  20324899.855    20324904.612
 04  1  7  1 50 30.0000000  0  9G30G21G16G10G29G18G17G26G 6
  22245348.115   -16619554.13049 -12931252.53646  22245348.416    22245353.786
  21326533.877   -25196168.58649 -19612206.27047  21326533.388    21326537.412
  24142096.178    -7789399.50549  -6028767.48745  24142095.795    24142101.295
  22895244.622   -13329141.45849 -10120133.26246  22895243.892    22895249.607
  23301195.344   -10056948.11649  -7444691.97146  23301195.239    23301200.538
  22683372.597   -16200883.22249 -10861863.79746  22683372.258    22683377.556
  22598881.478   -15885916.92549 -12365032.70946  22598880.960    22598886.645
  23024508.130    -7113444.83849  -5522545.91545  23024508.235    23024514.142
  20323209.625   -30254236.27849 -23563791.16548  20323209.475    20323214.213
 04  1  7  1 51  0.0000000  0  9G30G21G16G10G29G18G17G26G 6
  22263444.708   -16524455.82649 -12857149.99046  22263445.008    22263450.443
  21318804.494   -25236786.43749 -19643856.49947  21318804.009    21318808.035
  24127592.032    -7865619.44249  -6088159.58145  24127591.656    24127597.046
  22913146.677   -13235065.53949 -10046827.34346  22913145.959    22913151.667
  23293909.651   -10095233.66449  -7474524.80846  23293909.662    23293914.981
  22665037.559   -16297234.36849 -10936942.52646  22665037.161    22665042.481
  22611129.120   -15821555.00849 -12314880.55346  22611128.561    22611134.267
  23010356.300    -7187812.34049  -5580494.53745  23010356.472    23010362.536
  20321593.511   -30262728.95149 -23570408.80548  20321593.354    20321598.103
 04  1  7  1 51 30.0000000  0  9G30G21G16G10G29G18G17G26G 6
  22281586.839   -16429118.86749 -12782861.47046  22281587.058    22281592.457
  21311115.905   -25277190.11249 -19675339.83447  21311115.422    21311119.420
  24113160.932    -7941455.57849  -6147252.60545  24113160.507    24113165.976
  22931100.909   -13140715.80649  -9973308.05546  22931100.060    22931105.777
  23286705.256   -10133092.98949  -7504025.50946  23286705.209    23286710.450
  22646752.024   -16393325.05349 -11011818.30946  22646751.610    22646756.942
  22623392.936   -15757108.23249 -12264662.27046  22623392.392    22623398.075
  22996266.684    -7261853.35449  -5638188.76345  22996266.796    22996272.820
  20320051.885   -30270830.15549 -23576721.40548  20320051.721    20320056.463
 04  1  7  1 52  0.0000000  0  9G30G21G16G10G29G18G17G26G 6
  22299773.722   -16333546.06849 -12708389.18346  22299773.968    22299779.440
  21303468.071   -25317379.58749 -19706656.25947  21303467.596    21303471.564
  24098803.223    -8016905.55549  -6206044.72745  24098802.797    24098808.114
  22949106.560   -13046095.13249  -9899577.65046  22949105.725    22949111.480
  23279582.272   -10170524.04549  -7533192.50046  23279582.271    23279587.603
  22628516.446   -16489153.03349 -11086489.38146  22628516.065    22628521.379
  22635672.824   -15692577.24849 -12214378.36746  22635672.270    22635677.919
  22982239.892    -7335564.65149  -5695626.04645  22982239.987    22982245.979
  20318584.958   -30278538.77349 -23582728.10048  20318584.796    20318589.556
 04  1  7  1 52 30.0000000  0 10G30G21G16G10G15G29G18G17G26G 6
  22318004.551   -16237742.33449 -12633736.94146  22318004.827    22318010.310
  21295860.552   -25357357.09449 -19737807.51847  21295860.083    21295864.049
  24084518.952    -8091968.98249  -6264535.61945  24084518.584    24084524.016
  22967162.820   -12951208.42149  -9825639.93646  22967162.065    22967167.789
  24737942.761    -4709990.95949  -3647750.27745  24737942.188    24737949.857
  23272540.886   -10207526.40849  -7562025.45446  23272540.926    23272546.269
  22610330.860   -16584718.55849 -11160955.94346  22610330.524    22610335.786
  22647968.213   -15627964.57849 -12164030.83646  22647967.649    22647973.333
  22968276.052    -7408944.71349  -5752805.25745  22968276.134    22968282.151
  20317192.658   -30285855.45849 -23588429.39148  20317192.480    20317197.217
 04  1  7  1 53  0.0000000  0 10G30G21G16G10G15G29G18G17G26G 6
  22336278.423   -16141712.69149 -12558908.67046  22336278.656    22336284.157
  21288292.916   -25397125.06649 -19768795.50147  21288292.452    21288296.402
  24070308.271    -8166645.49849  -6322725.02845  24070308.092    24070313.365
  22985268.946   -12856060.36949  -9751498.58046  22985268.129    22985273.859
  24722430.115    -4791509.79649  -3711271.44245  24722429.529    24722437.185
  23265581.120   -10244099.97649  -7590524.27246  23265581.124    23265586.429
  22592195.226   -16680021.63549 -11235217.99846  22592194.889    22592200.150
  22660278.624   -15563272.98349 -12113621.78446  22660278.056    22660283.766
  22954375.482    -7481991.87349  -5809725.04045  22954375.676    22954381.631
  20315874.756   -30292780.92449 -23593825.83848  20315874.583    20315879.298
 04  1  7  1 53 30.0000000  0 10G30G21G16G10G15G29G18G17G26G 6
  22354596.113   -16045452.89449 -12483901.06146  22354596.285    22354601.776
  21280766.537   -25436676.43349 -19799614.70247  21280766.092    21280769.985
  24056173.147    -8240925.72649  -6380605.68345  24056172.878    24056177.896
  23003425.665   -12760646.59149  -9677150.17346  23003424.820    23003430.479
  24706933.965    -4872940.84749  -3774724.20745  24706933.496    24706941.549
  23258704.647   -10280235.70949  -7618681.92246  23258704.664    23258709.902
  22574111.289   -16775052.77149 -11309268.17046  22574110.948    22574116.262
  22672605.333   -15498495.85549 -12063146.09246  22672604.782    22672610.480
  22940540.472    -7554695.67449  -5866377.28045  22940540.594    22940546.416
  20314632.926   -30299306.76649 -23598910.89048  20314632.753    20314637.458
 04  1  7  1 54  0.0000000  0 10G30G21G16G10G15G29G18G17G26G 6
  22372956.546   -15948967.66049 -12408717.77946  22372956.834    22372962.304
  21273281.092   -25476012.72149 -19830266.30747  21273280.604    21273284.497
  24042113.610    -8314809.08049  -6438177.06445  24042113.401    24042118.305
  23021632.036   -12664971.61049  -9602598.21746  23021631.207    23021636.803
  24691455.010    -4954285.34449  -3838109.46945  24691454.332    24691462.133
  23251911.656   -10315932.90849  -7646497.85946  23251911.626    23251916.836
  22556079.238   -16869811.54949 -11383106.10046  22556078.922    22556084.229
  22684947.897   -15433635.16949 -12012605.28846  22684947.338    22684953.037
  22926771.050    -7627054.25949  -5922760.50045  22926771.266    22926776.956
  20313467.003   -30305433.49349 -23603684.94448  20313466.850    20313471.562
 04  1  7  1 54 30.0000000  0 10G30G21G16G10G15G29G18G17G26G 6
  22391359.274   -15852260.79649 -12333361.80746  22391359.514    22391364.990
  21265836.220   -25515135.10549 -19860751.23847  21265835.748    21265839.669
  24028129.918    -8388294.14649  -6495438.08445  24028129.622    24028134.761
  23039887.344   -12569038.88449  -9527845.43946  23039886.519    23039892.128
  24675991.960    -5035544.09749  -3901427.90845  24675991.238    24675998.963
  23245202.355   -10351190.31949  -7673971.10546  23245202.292    23245207.539
  22538099.281   -16964296.76249 -11456730.86446  22538098.949    22538104.213
  22697305.968   -15368692.77149 -11962000.81746  22697305.442    22697311.132
  22913067.857    -7699065.16349  -5978872.80745  22913067.954    22913073.608
  20312377.158   -30311160.59149 -23608147.59748  20312377.014    20312381.708
 04  1  7  1 55  0.0000000  0 10G30G21G16G10G15G29G18G17G26G 6
  22409803.778   -15755334.67049 -12257834.97746  22409804.005    22409809.394
  21258432.138   -25554043.56349 -19891069.47447  21258431.694    21258435.620
  24014222.537    -8461378.19749  -6552386.61745  24014222.240    24014227.350
  23058191.234   -12472850.98449  -9452893.81946  23058190.437    23058196.061
  24660544.763    -5116716.43749  -3964679.03745  24660544.192    24660552.392
  23238577.124   -10386005.76349  -7701099.95846  23238577.098    23238582.322
  22520171.823   -17058505.87549 -11530140.49546  22520171.529    22520176.753
  22709679.640   -15303668.63849 -11911332.65446  22709679.077    22709684.851
  22899431.378    -7770724.52049  -6034711.18245  22899431.564    22899437.263
  20311363.685   -30316486.47549 -23612297.61548  20311363.536    20311368.207
 04  1  7  1 55 30.0000000  0 10G30G21G16G10G15G29G18G17G26G 6
  22428289.235   -15658193.16549 -12182140.32846  22428289.378    22428294.757
  21251068.684   -25592738.78849 -19921221.54947  21251068.232    21251072.170
  24000391.696    -8534059.63649  -6609021.42345  24000391.315    24000396.568
  23076543.037   -12376411.65949  -9377746.28146  23076542.262    23076547.863
  24645114.532    -5197803.34149  -4027863.54645  24645113.922    24645122.413
  23232036.392   -10420377.63449  -7727883.17546  23232036.296    23232041.540
  22502297.210   -17152437.52949 -11603333.90746  22502296.924    22502302.069
  22722068.582   -15238564.08949 -11860601.82546  22722068.030    22722073.795
  22885862.399    -7842029.56449  -6090273.47446  22885862.557    22885868.329
  20310426.606   -30321410.80849 -23616134.73648  20310426.444    20310431.109
 04  1  7  1 56  0.0000000  0 10G30G21G16G10G15G29G18G17G26G 6
  22446814.979   -15560839.58649 -12106280.41446  22446815.203    22446820.587
  21243745.549   -25631222.15649 -19951208.54147  21243745.081    21243748.998
  23986637.684    -8606336.74149  -6665341.16245  23986637.407    23986642.637
  23094942.014   -12279724.06249  -9302405.28646  23094941.265    23094946.880
  24629700.760    -5278804.75149  -4090981.41145  24629700.034    24629708.045
  23225580.295   -10454304.25749  -7754319.44246  23225580.206    23225585.399
  22484475.795   -17246090.34449 -11676310.04946  22484475.382    22484480.462
  22734472.668   -15173379.93449 -11809808.95546  22734472.083    22734477.873
  22872361.546    -7912977.35549  -6145557.37546  22872361.664    22872367.290
  20309566.176   -30325932.41249 -23619658.03948  20309566.010    20309570.696
 04  1  7  1 56 30.0000000  0 10G30G21G16G10G15G29G18G17G26G 6
  22465380.524   -15463276.51949 -12030257.26346  22465380.830    22465386.298
  21236462.949   -25669492.27249 -19981029.36047  21236462.463    21236466.389
  23972961.174    -8678206.85049  -6721343.76345  23972960.885    23972966.246
  23113387.836   -12182790.49749  -9226872.61646  23113387.125    23113392.685
  24614302.452    -5359720.40149  -4154032.46045  24614301.735    24614309.823
  23219209.388   -10487783.37949  -7780407.01746  23219209.266    23219214.498
  22466707.793   -17339461.61349 -11749066.80646  22466707.332    22466712.419
  22746891.776   -15108116.35149 -11758954.20146  22746891.235    22746897.101
  22858929.240    -7983564.01249  -6200559.87546  22858929.353    22858934.992
  20308782.597   -30330049.83549 -23622866.39948  20308782.453    20308787.139
 04  1  7  1 57  0.0000000  0 10G30G21G16G10G15G29G18G17G26G 6
  22483985.587   -15365506.77549 -11954073.07146  22483985.870    22483991.350
  21229220.813   -25707549.61149 -20010684.37847  21229220.337    21229224.230
  23959362.581    -8749667.65049  -6777027.42445  23959362.229    23959367.569
  23131880.046   -12085613.54049  -9151150.29046  23131879.294    23131884.840
  24598920.675    -5440549.86249  -4217016.39945  24598920.251    24598928.577
  23212924.025   -10520812.76149  -7806144.13646  23212923.927    23212929.107
  22448993.639   -17432549.14949 -11821602.47646  22448993.246    22448998.358
  22759326.037   -15042773.97349 -11708038.05446  22759325.507    22759331.368
  22845566.298    -8053786.04649  -6255278.26046  22845566.454    22845572.152
  20308076.202   -30333761.80349 -23625758.82348  20308076.062    20308080.742
 04  1  7  1 57 30.0000000  0 10G30G21G16G10G15G29G18G17G26G 6
  22502629.315   -15267533.72249 -11877730.44946  22502629.574    22502635.095
  21222018.998   -25745395.16049 -20040174.35947  21222018.522    21222022.415
  23945842.256    -8820717.44549  -6832390.83345  23945841.928    23945847.147
  23150417.836   -11988196.71049  -9075241.07046  23150417.040    23150422.602
  24583556.174    -5521293.49949  -4279933.40445  24583555.587    24583563.867
  23206724.682   -10553390.79949  -7831529.54446  23206724.609    23206729.656
  22431333.751   -17525351.33349 -11893915.78846  22431333.491    22431338.627
  22771775.019   -14977353.61549 -11657061.13046  22771774.539    22771780.337
  22832273.361    -8123640.57049  -6309710.26846  22832273.486    22832279.097
  20307447.119   -30337067.58949 -23628334.73548  20307446.977    20307451.664
 04  1  7  1 58  0.0000000  0 10G30G21G16G10G15G29G18G17G26G 6
  22521311.065   -15169360.89049 -11801232.16646  22521311.261    22521316.719
  21214857.423   -25783029.30249 -20069499.61247  21214856.950    21214860.869
  23932400.512    -8891354.42249  -6887432.56145  23932400.144    23932405.309
  23169000.633   -11890543.12749  -8999147.35046  23168999.925    23169005.459
  24568207.727    -5601951.97249  -4342784.01645  24568206.996    24568214.993
  23200611.379   -10585516.24149  -7856562.30746  23200611.321    23200616.330
  22413728.662   -17617866.79849 -11966005.67746  22413728.319    22413733.415
  22784238.753   -14911856.43249 -11606024.34946  22784238.280    22784244.007
  22819050.973    -8193124.62349  -6363853.59546  22819051.140    22819056.682
  20306895.451   -30339966.51349 -23630593.61248  20306895.299    20306899.995
 04  1  7  1 58 30.0000000  0 10G30G21G16G10G15G29G18G17G26G 6
  22540030.347   -15070990.49149 -11724579.93146  22540030.511    22540035.989
  21207736.261   -25820451.28749 -20098659.54547  21207735.770    21207739.695
  23919037.861    -8961575.41249  -6942150.13045  23919037.445    23919042.632
  23187628.228   -11792654.64049  -8922870.58446  23187627.469    23187633.011
  24552874.036    -5682524.26049  -4405567.56545  24552873.432    24552882.361
  23194584.733   -10617186.14149  -7881240.09146  23194584.653    23194589.705
  22396178.735   -17710092.60449 -12037869.85846  22396178.319    22396183.359
  22796717.205   -14846282.16049 -11554927.49946  22796716.701    22796722.381
  22805899.853    -8262234.02849  -6417704.99246  22805899.974    22805905.601
  20306421.566   -30342456.65449 -23632533.96148  20306421.417    20306426.110
 04  1  7  1 59  0.0000000  0 10G30G21G16G10G15G29G18G17G26G 6
  22558786.774   -14972424.96649 -11647775.64046  22558786.957    22558792.360
  21200655.395   -25857661.32349 -20127654.32647  21200654.912    21200658.782
  23905754.743    -9031378.17949  -6996541.81145  23905754.341    23905759.601
  23206299.995   -11694533.73649  -8846412.73746  23206299.243    23206304.839
  24537557.973    -5763009.65149  -4468283.36945  24537557.551    24537566.731
  23188645.313   -10648398.20949  -7905561.11746  23188645.155    23188650.143
  22378684.318   -17802026.43549 -12109506.52846  22378683.859    22378688.857
  22809210.260   -14780630.78449 -11503770.56646  22809209.753    22809215.351
  22792820.704    -8330965.12049  -6471261.59646  22792820.809    22792826.383
  20306025.780   -30344536.45349 -23634154.56248  20306025.641    20306030.303
 04  1  7  1 59 30.0000000  0 10G30G21G16G10G15G29G18G17G26G 6
  22577579.359   -14873668.69849 -11570822.73046  22577579.547    22577585.039
  21193614.592   -25894660.73149 -20156484.97947  21193614.116    21193617.914
  23892551.512    -9100761.57149  -7050606.70945  23892551.101    23892556.312
  23225015.220   -11596184.59849  -8769777.03346  23225014.427    23225020.072
  24522259.671    -5843409.41649  -4530932.39545  24522258.812    24522267.229
  23182792.991   -10679151.74049  -7929524.85346  23182792.827    23182797.778
  22361245.395   -17893667.70949 -12180915.24146  22361245.012    22361250.006
  22821717.603   -14714904.13249 -11452554.98846  22821717.124    22821722.647
  22779813.899    -8399315.78649  -6524521.76846  22779814.013    22779819.603
  20305708.107   -30346205.90049 -23635455.40848  20305707.951    20305712.614
 04  1  7  2  0  0.0000000  0 10G30G21G16G10G15G29G18G17G26G 6
  22596407.822   -14774724.30649 -11493723.21546  22596408.042    22596413.550
  21186613.914   -25931449.36549 -20185151.39647  21186613.433    21186617.174
  23879428.412    -9169723.40149  -7104343.11545  23879428.006    23879433.227
  23243773.354   -11497609.62249  -8692965.34546  23243772.591    23243778.221
  24506976.761    -5923723.11049  -4593514.37145  24506975.765    24506983.938
  23177028.286   -10709444.75049  -7953129.74946  23177028.158    23177033.179
  22343862.666   -17985013.88949 -12252094.00046  22343862.346    22343867.270
  22834239.325   -14649102.44149 -11401280.92846  22834238.795    22834244.279
  22766880.210    -8467282.31749  -6577482.61546  22766880.367    22766885.879
  20305468.754   -30347463.71849 -23636435.50548  20305468.587    20305473.228
 04  1  7  2  0 30.0000000  0 10G30G21G16G10G15G29G18G17G26G 6
  22615271.589   -14675593.83349 -11416478.71546  22615271.893    22615277.412
  21179653.552   -25968026.33349 -20213652.87947  21179653.051    21179656.768
  23866386.111    -9238260.51749  -7157748.56945  23866385.745    23866390.944
  23262574.150   -11398810.55149  -8615979.05846  23262573.426    23262579.043
  24491709.119    -6003949.68649  -4656028.53145  24491708.404    24491716.988
  23171351.911   -10739274.40649  -7976373.56846  23171351.817    23171356.735
  22326536.779   -18076061.94349 -12323040.44846  22326536.400    22326541.303
  22846775.338   -14583225.19149 -11349948.00246  22846774.807    22846780.282
  22754020.422    -8534860.59049  -6630140.93346  22754020.560    22754026.088
  20305308.125   -30348307.82049 -23637093.22848  20305307.958    20305312.601
 04  1  7  2  1  0.0000000  0 10G30G21G16G10G15G29G18G17G26G 6
  22634170.235   -14576280.57649 -11339091.78546  22634170.609    22634176.099
  21172733.323   -26004392.27049 -20241989.92547  21172732.812    21172736.532
  23853425.145    -9306371.18049  -7210821.74945  23853424.738    23853429.850
  23281417.045   -11299790.55149  -8538820.61546  23281416.360    23281421.911
  24476458.942    -6084089.61249  -4718475.12245  24476458.309    24476466.789
  23165763.961   -10768639.05849  -7999255.06446  23165763.816    23165768.774
  22309267.884   -18166810.40149 -12393753.44946  22309267.486    22309272.414
  22859325.508   -14517273.36049 -11298556.95646  22859325.008    22859330.527
  22741235.099    -8602047.54149  -6682494.31846  22741235.271    22741240.780
  20305226.339   -30348737.38949 -23637427.93148  20305226.175    20305230.817
 04  1  7  2  1 30.0000000  0 10G30G21G16G10G15G29G18G17G26G 6
  22653103.137   -14476788.40449 -11261565.44946  22653103.373    22653108.823
  21165853.046   -26040548.14849 -20270163.28647  21165852.535    21165856.265
  23840545.479    -9374054.13549  -7263561.64545  23840545.014    23840550.096
  23300301.273   -11200553.33749  -8461492.91146  23300300.578    23300306.131
  24461225.813    -6164143.52149  -4780854.66245  24461225.006    24461233.092
  23160264.674   -10797537.60149  -8021773.35046  23160264.552    23160269.534
  22292056.113   -18257258.23749 -12464232.20946  22292055.751    22292060.720
  22871889.624   -14451248.53749 -11247109.02346  22871889.131    22871894.665
  22728524.733    -8668840.70249  -6734540.86446  22728524.860    22728530.339
  20305223.458   -30348752.34449 -23637439.56648  20305223.297    20305227.945
 04  1  7  2  2  0.0000000  0 10G30G21G16G10G15G29G18G17G26G 6
  22672069.510   -14377119.70649 -11183901.54846  22672069.802    22672075.181
  21159012.717   -26076494.08549 -20298173.05647  21159012.211    21159015.931
  23827747.754    -9441306.57349  -7315966.06745  23827747.304    23827752.330
  23319226.443   -11101101.01349  -8383997.58846  23319225.726    23319231.255
  24446008.228    -6244110.75949  -4843166.69645  24446007.392    24446015.729
  23154854.580   -10825967.81049  -8043926.70046  23154854.398    23154859.380
  22274902.128   -18347402.85649 -12534474.68546  22274901.727    22274906.740
  22884467.645   -14385150.14849 -11195603.78146  22884467.133    22884472.777
  22715889.981    -8735236.10949  -6786277.47346  22715890.096    22715895.685
  20305299.834   -30348350.93249 -23637126.75848  20305299.664    20305304.300
 04  1  7  2  2 30.0000000  0 10G30G21G16G10G15G29G18G17G26G 6
  22691069.071   -14277276.99349 -11106102.05046  22691069.280    22691074.654
  21152212.442   -26112229.43249 -20326018.72747  21152211.949    21152215.650
  23815032.385    -9508126.11449  -7368033.16545  23815031.936    23815036.880
  23338192.109   -11001435.78349  -8306336.36246  23338191.376    23338196.927
  24430806.973    -6323990.78749  -4905410.75345  24430806.385    24430814.418
  23149534.014   -10853927.27249  -8065713.23346  23149533.862    23149538.828
  22257806.251   -18437242.05449 -12604479.17046  22257805.872    22257810.885
  22897059.640   -14318978.52249 -11144041.46246  22897059.086    22897064.862
  22703331.634    -8801230.05849  -6837701.24246  22703331.701    22703337.409
  20305455.745   -30347531.67949 -23636488.35348  20305455.566    20305460.177
 04  1  7  2  3  0.0000000  0 10G30G21G16G10G15G29G18G17G26G 6
  22710100.964   -14177263.72549 -11028169.65146  22710101.184    22710106.612
  21145452.180   -26147754.62749 -20353700.64547  21145451.689    21145455.327
  23802399.653    -9574511.01049  -7419761.56745  23802399.242    23802404.231
  23357197.612   -10901561.10249  -8228511.92446  23357196.889    23357202.387
  24415623.127    -6403784.21149  -4967587.32545  24415622.336    24415630.179
  23144303.255   -10881415.06949  -8087132.24246  23144303.013    23144307.970
  22240768.781   -18526774.35049 -12674244.51447  22240768.387    22240773.380
  22909665.401   -14252734.49149 -11092422.71446  22909664.929    22909670.641
  22690850.245    -8866819.92549  -6888810.14646  22690850.371    22690855.987
  20305691.268   -30346294.02849 -23635523.92848  20305691.093    20305695.693
 04  1  7  2  3 30.0000000  0 10G30G21G16G10G15G29G18G17G26G 6
  22729164.773   -14077083.12149 -10950106.85446  22729164.927    22729170.423
  21138731.836   -26183070.38249 -20381219.36247  21138731.341    21138734.913
  23789849.955    -9640459.62149  -7471150.00445  23789849.600    23789854.522
  23376242.507   -10801480.01549  -8150526.63946  23376241.785    23376247.207
  24400455.435    -6483491.08449  -5029696.48245  24400454.617    24400462.720
  23139162.499   -10908429.42749  -8108182.34346  23139162.321    23139167.244
  22223790.118   -18615997.80049 -12743769.20147  22223789.681    22223794.645
  22922284.883   -14186418.94149 -11040748.24246  22922284.393    22922290.061
  22678446.334    -8932002.52949  -6939601.70146  22678446.409    22678452.032
  20306006.520   -30344637.05049 -23634232.75348  20306006.354    20306010.969
 04  1  7  2  4  0.0000000  0 10G30G21G16G10G15G29G18G17G26G 6
  22748259.942   -13976737.50449 -10871915.49946  22748260.117    22748265.655
  21132051.354   -26218176.30049 -20408574.57247  21132050.836    21132054.431
  23777383.813    -9705969.02349  -7522196.20045  23777383.470    23777388.325
  23395326.242   -10701194.46349  -8072382.05246  23395325.483    23395330.932
  24385303.849    -6563110.58049  -5091737.55445  24385303.197    24385311.673
  23134112.405   -10934968.13049  -8128861.79346  23134112.237    23134117.083
  22206870.492   -18704909.98749 -12813051.34747  22206870.154    22206875.118
  22934917.927   -14120031.56349 -10989017.82646  22934917.477    22934923.192
  22666120.638    -8996774.18249  -6990073.04146  22666120.751    22666126.332
  20306401.863   -30342559.24649 -23632613.66148  20306401.721    20306406.328
 04  1  7  2  4 30.0000000  0 10G30G21G16G10G15G29G18G17G26G 6
  22767385.956   -13876230.01249 -10793598.00146  22767386.096    22767391.637
  21125410.643   -26253072.67749 -20435766.50547  21125410.163    21125413.819
  23765001.538    -9771037.61249  -7572898.93545  23765001.182    23765006.053
  23414448.317   -10600707.21649  -7994080.28946  23414447.535    23414453.033
  24370169.197    -6642642.83349  -5153710.64445  24370168.613    24370176.693
  23129153.127   -10961029.59649  -8149169.37846  23129152.921    23129157.686
  22190010.541   -18793509.45949 -12882089.82747  22190010.215    22190015.113
  22947564.584   -14053573.10849 -10937231.99946  22947564.072    22947569.833
  22653873.683    -9061131.74349  -7040221.71746  22653873.849    22653879.327
  20306877.538   -30340059.67449 -23630665.92248  20306877.361    20306881.965
 04  1  7  2  5  0.0000000  0 10G30G21G16G10G15G29G18G17G26G 6
  22786542.057   -13775564.09349 -10715157.04146  22786542.165    22786547.772
  21118809.846   -26287759.90849 -20462795.46847  21118809.363    21118813.048
  23752703.627    -9835663.62449  -7623256.80545  23752703.276    23752707.989
  23433608.146   -10500021.52149  -7915623.91246  23433607.362    23433612.902
  24355051.308    -6722088.13249  -5215615.94945  24355050.759    24355058.314
  23124284.672   -10986612.31749  -8169103.91246  23124284.571    23124289.338
  22173210.632   -18881793.94749 -12950882.85147  22173210.266    22173215.101
  22960224.637   -13987044.32149 -10885391.37846  22960224.137    22960229.802
  22641706.140    -9125072.18349  -7090045.34946  22641706.323    22641711.768
  20307433.555   -30337137.70349 -23628389.03648  20307433.386    20307437.978
 04  1  7  2  5 30.0000000  0 10G30G21G16G10G15G29G18G17G26G 6
  22805727.714   -13674742.59649 -10636594.84746  22805727.873    22805733.467
  21112248.823   -26322238.26949 -20489661.66947  21112248.354    21112251.984
  23740490.275    -9899845.05649  -7673268.24045  23740489.852    23740494.599
  23452805.169   -10399140.02449  -7837014.94545  23452804.391    23452809.930
  24339949.810    -6801446.31949  -5277453.41045  24339949.214    24339957.061
  23119507.813   -11011714.66549  -8188664.13346  23119507.768    23119512.484
  22156470.870   -18969761.84349 -13019429.18247  22156470.435    22156475.305
  22972897.980   -13920445.47749 -10833496.16446  22972897.494    22972903.089
  22629618.706    -9188592.36349  -7139541.51046  22629618.851    22629624.254
  20308070.136   -30333792.27249 -23625782.18248  20308069.966    20308074.552
 04  1  7  2  6  0.0000000  0 10G30G21G16G10G15G29G18G17G26G 6
  22824942.524   -13573767.90849 -10557913.29846  22824942.731    22824948.336
  21105727.552   -26356507.67949 -20516365.05147  21105727.079    21105730.662
  23728361.919    -9963579.51049  -7722931.38545  23728361.567    23728366.223
  23472039.104   -10298065.19949  -7758255.33545  23472038.276    23472043.823
  24324864.853    -6880717.24949  -5339222.87645  24324864.247    24324872.626
  23114822.871   -11036334.63149  -8207848.48446  23114822.751    23114827.360
  22139791.639   -19057410.81249 -13087727.01147  22139791.252    22139796.190
  22985584.658   -13853776.68749 -10781546.45246  22985584.161    22985589.682
  22617611.817    -9251688.66949  -7188707.39246  22617611.983    22617617.306
  20308787.571   -30330022.10549 -23622844.36648  20308787.409    20308791.989
 04  1  7  2  6 30.0000000  0 10G30G21G16G10G15G29G18G17G26G 6
  22844185.877   -13472643.58149 -10479115.13846  22844186.089    22844191.668
  21099245.936   -26390568.58149 -20542905.96247  21099245.466    21099249.027
  23716318.934   -10026865.19149  -7772244.84745  23716318.615    23716323.399
  23491309.317   -10196800.16949  -7679347.50945  23491308.455    23491313.903
  24309796.767    -6959901.00449  -5400924.39245  24309796.078    24309804.469
  23110229.771   -11060470.80149  -8226655.84646  23110229.701    23110234.384
  22123173.318   -19144739.87449 -13155775.55147  22123172.986    22123177.971
  22998284.467   -13787038.83449 -10729542.92046  22998283.939    22998289.434
  22605686.161    -9314358.34149  -7237540.82546  22605686.319    22605691.526
  20309585.922   -30325826.56549 -23619575.09448  20309585.766    20309590.343
 04  1  7  2  7  0.0000000  0 10G30G21G16G10G15G29G18G17G26G 6
  22863457.102   -13371372.58249 -10400202.71146  22863457.327    22863462.923
  21092803.947   -26424421.25249 -20569284.61647  21092803.466    21092807.050
  23704361.720   -10089700.27749  -7821207.18245  23704361.442    23704366.244
  23510615.150   -10095347.29749  -7600293.32245  23510614.260    23510619.752
  24294745.157    -7038997.49949  -5462557.88245  24294744.459    24294752.543
  23105729.158   -11084121.78649  -8245085.14746  23105729.127    23105733.727
  22106616.431   -19231746.55449 -13223572.88747  22106616.078    22106621.048
  23010997.339   -13720232.17549 -10677485.77246  23010996.768    23011002.225
  22593842.338    -9376598.05149  -7286039.22246  22593842.419    22593847.623
  20310465.440   -30321204.66149 -23615973.58648  20310465.278    20310469.852
 04  1  7  2  7 30.0000000  0 10G30G21G16G10G15G29G18G17G26G 6
  22882755.766   -13269957.63249 -10321178.10146  22882755.968    22882761.573
  21086401.619   -26458065.44049 -20595500.81947  21086401.158    21086404.751
  23692490.802   -10152082.73949  -7869816.83645  23692490.460    23692495.148
  23529956.147    -9993709.38449  -7521094.92645  23529955.321    23529960.800
  24279709.914    -7118006.26849  -5524123.01545  24279709.376    24279717.271
  23101321.274   -11107285.49149  -8263134.72646  23101321.138    23101325.690
  22090121.375   -19318428.84949 -13291117.45947  22090120.988    22090125.850
  23023723.169   -13653357.15049 -10625375.35246  23023722.668    23023728.082
  22582080.851    -9438404.45849  -7334199.97346  22582080.980    22582086.200
  20311426.311   -30316155.22649 -23612038.94448  20311426.142    20311430.692
 04  1  7  2  8  0.0000000  0 10G30G21G16G10G15G29G18G17G26G 6
  22902080.992   -13168401.76049 -10242043.68146  22902081.419    22902087.016
  21080038.864   -26491501.56349 -20621554.89347  21080038.423    21080041.999
  23680706.262   -10214010.74649  -7918072.38745  23680705.929    23680710.489
  23549331.809    -9891889.37349  -7441754.63745  23549330.977    23549336.393
  24264691.919    -7196927.79349  -5585620.14045  24264691.373    24264699.127
  23097006.291   -11129960.69049  -8280803.67146  23097006.185    23097010.684
  22073688.321   -19404785.25749 -13358408.08147  22073687.934    22073692.696
  23036461.948   -13586414.42249 -10573212.18346  23036461.459    23036466.904
  22570402.472    -9499774.66549  -7382020.84946  22570402.645    22570407.768
  20312468.637   -30310677.45049 -23607770.52748  20312468.481    20312473.044
 04  1  7  2  8 30.0000000  0 10G30G21G16G10G15G29G18G17G26G 6
  22921432.634   -13066708.18249 -10162801.95146  22921433.062    22921438.638
  21073715.714   -26524730.01549 -20647447.14347  21073715.241    21073718.770
  23669008.527   -10275482.41749  -7965972.33945  23669008.188    23669012.812
  23568741.672    -9789889.98849  -7362274.57945  23568740.870    23568746.156
  24249690.374    -7275761.84849  -5647049.13345  24249689.660    24249697.655
  23092784.577   -11152145.98049  -8298090.86746  23092784.468    23092788.984
  22057317.511   -19490814.25149 -13425443.58547  22057317.097    22057321.839
  23049213.610   -13519404.24249 -10520996.44946  23049213.142    23049218.531
  22558807.650    -9560705.56649  -7429499.39446  22558807.822    22558812.879
  20313592.708   -30304770.33149 -23603167.55348  20313592.543    20313597.112
 04  1  7  2  9  0.0000000  0 10G30G21G16G10G15G29G18G17G26G 6
  22940810.161   -12964879.04849 -10083454.58946  22940810.488    22940816.051
  21067432.089   -26557750.48049 -20673177.33047  21067431.621    21067435.141
  23657398.114   -10336495.27049  -8013514.74645  23657397.745    23657402.335
  23588185.209    -9687713.21049  -7282656.28645  23588184.420    23588189.738
  24234704.824    -7354507.78749  -5708409.46145  24234704.263    24234712.318
  23088656.504   -11173839.19149  -8314994.61246  23088656.366    23088660.855
  22041009.409   -19576513.21949 -13492221.93047  22041009.057    22041013.803
  23061978.200   -13452326.47949 -10468728.04046  23061977.635    23061983.076
  22547297.196    -9621193.41449  -7476632.72146  22547297.331    22547302.363
  20314798.767   -30298432.41549 -23598228.89848  20314798.598    20314803.152
 04  1  7  2  9 30.0000000  0 10G30G21G16G10G15G29G18G17G26G 6
  22960212.754   -12862917.66149 -10004004.18746  22960213.105    22960218.676
  21061188.052   -26590562.79349 -20698745.32647  21061187.583    21061191.134
  23645875.338   -10397047.69449  -8060698.39845  23645874.932    23645879.470
  23607661.900    -9585361.91449  -7202902.02545  23607661.117    23607666.548
  24219736.735    -7433165.86949  -5769701.29145  24219736.165    24219743.727
  23084622.194   -11195039.00649  -8331513.90946  23084622.109    23084626.609
  22024764.461   -19661880.58749 -13558741.88947  22024764.123    22024768.821
  23074755.356   -13385181.70649 -10416407.41846  23074754.859    23074760.304
  22535871.584    -9681235.33649  -7523418.56546  22535871.721    22535876.719
  20316086.944   -30291663.08049 -23592954.07348  20316086.766    20316091.298
 04  1  7  2 10  0.0000000  0 10G30G21G16G10G15G29G18G17G26G 6
  22979639.913   -12760827.46049  -9924453.40046  22979640.206    22979645.822
  21054983.505   -26623167.73649 -20724151.73447  21054983.039    21054986.556
  23634440.487   -10457137.94849  -8107521.91945  23634440.178    23634444.685
  23627171.282    -9482839.13449  -7123014.13245  23627170.561    23627176.044
  24204785.406    -7511736.36949  -5830924.89245  24204784.726    24204792.411
  23080682.056   -11215744.15649  -8347647.74946  23080682.006    23080686.527
  22008582.952   -19746915.04149 -13625002.43047  22008582.575    22008587.230
  23087545.098   -13317970.83149 -10364035.29846  23087544.606    23087550.131
  22524531.376    -9740828.60649  -7569854.80946  22524531.502    22524536.470
  20317457.272   -30284461.76749 -23587342.64448  20317457.117    20317461.617
 04  1  7  2 10 30.0000000  0 10G30G21G16G10G15G29G18G17G26G 6
  22999090.987   -12658610.86049  -9844804.12046  22999091.370    22999097.020
  21048818.439   -26655565.51349 -20749396.71047  21048817.937    21048821.400
  23623093.994   -10516764.01349  -8153983.72145  23623093.613    23623098.203
  23646712.858    -9380147.44549  -7042994.62245  23646712.152    23646717.612
  24189850.404    -7590219.24449  -5892080.24545  24189849.776    24189857.738
  23076836.459   -11235953.19449  -8363394.98946  23076836.349    23076840.749
  21992465.185   -19831614.31949 -13691001.79447  21992464.833    21992469.439
  23100347.439   -13250693.79449 -10311611.61646  23100346.923    23100352.622
  22513277.049    -9799969.92949  -7615938.89546  22513277.153    22513282.054
  20318910.023   -30276827.44449 -23581393.80248  20318909.871    20318914.379
 04  1  7  2 11  0.0000000  0 10G30G21G16G10G15G29G18G17G26G 6
  23018565.789   -12556270.83849  -9765058.68346  23018566.058    23018571.687
  21042692.784   -26687756.11249 -20774480.24847  21042692.267    21042695.697
  23611836.202   -10575923.90249  -8200082.27145  23611835.886    23611840.401
  23666286.085    -9277289.23249  -6962845.35145  23666285.362    23666290.789
  24174932.243    -7668613.99149  -5953166.89645  24174931.623    24174939.502
  23073085.472   -11255664.15549  -8378754.13346  23073085.306    23073089.789
  21976411.596   -19915976.29349 -13756738.32847  21976411.197    21976415.841
  23113162.277   -13183350.88849 -10259136.58846  23113161.702    23113167.499
  22502109.351    -9858655.96549  -7661668.20646  22502109.514    22502114.414
  20320445.353   -30268758.95549 -23575106.65348  20320445.209    20320449.722
 04  1  7  2 11 30.0000000  0 10G30G21G16G10G15G29G18G17G26G 6
  23038063.368   -12453810.77649  -9685219.69246  23038063.610    23038069.269
  21036606.420   -26719739.90549 -20799402.65047  21036605.901    21036609.340
  23600667.337   -10634616.35349  -8245816.57945  23600667.068    23600671.567
  23685890.468    -9174267.68949  -6882568.82745  23685889.680    23685895.228
  24160030.907    -7746921.27149  -6014185.38645  24160030.190    24160037.628
  23069429.478   -11274876.32049  -8393724.60946  23069429.376    23069433.814
  21960422.338   -19999999.87449 -13822211.18847  21960421.967    21960426.579
  23125989.443   -13115942.93849 -10206610.89645  23125988.851    23125994.761
  22491028.880    -9916884.16949  -7707040.76946  22491029.014    22491033.944
  20322063.402   -30260256.04149 -23568480.99048  20322063.248    20322067.769
 04  1  7  2 12  0.0000000  0 10G30G21G16G10G15G29G18G17G26G 6
  23057583.228   -12351233.21749  -9605289.15446  23057583.497    23057589.123
  21030559.407   -26751516.82449 -20824163.85147  21030558.907    21030562.388
  23589587.948   -10692839.10149  -8291184.89545  23589587.628    23589592.117
  23705525.536    -9071084.93249  -6802166.69545  23705524.657    23705530.299
  24145146.098    -7825140.53849  -6075135.31445  24145145.374    24145152.951
  23065868.909   -11293587.76449  -8408304.90346  23065868.731    23065873.071
  21944497.903   -20083682.97649 -13887418.72747  21944497.541    21944502.155
  23138829.009   -13048470.06649 -10154034.60045  23138828.433    23138834.401
  22480036.166    -9974651.08049  -7752053.87646  22480036.245    22480041.221
  20323764.288   -30251317.60549 -23561515.95648  20323764.141    20323768.670
 04  1  7  2 12 30.0000000  0 10G30G21G16G10G15G29G18G17G26G 6
  23077124.805   -12248541.43949  -9525269.59846  23077125.139    23077130.666
  21024551.673   -26783087.34949 -20848764.22247  21024551.176    21024554.669
  23578598.132   -10750590.58849  -8336185.98745  23578597.857    23578602.240
  23725190.819    -8967743.85149  -6721641.16845  23725189.853    23725195.495
  24130278.161    -7903272.08649  -6136016.88645  24130277.357    24130285.090
  23062403.614   -11311797.52149  -8422494.28246  23062403.430    23062407.787
  21928638.547   -20167024.23249 -13952359.89747  21928638.160    21928642.715
  23151680.976   -12980932.72349 -10101408.08446  23151680.435    23151686.375
  22469131.651   -10031953.96549  -7796705.41646  22469131.764    22469136.773
  20325548.248   -30241942.92549 -23554210.99748  20325548.086    20325552.585
 04  1  7  2 13  0.0000000  0 10G30G21G16G10G15G29G18G17G26G 6
  23096687.658   -12145738.14049  -9445163.14846  23096687.956    23096693.381
  21018583.276   -26814451.49749 -20873203.77547  21018582.788    21018586.212
  23567698.365   -10807868.99149  -8380818.44445  23567698.072    23567702.444
  23744885.703    -8864246.77949  -6640994.06945  23744884.718    23744890.263
  24115426.990    -7981315.46049  -6196829.73945  24115426.267    24115433.825
  23059034.057   -11329504.06149  -8436291.54546  23059033.933    23059038.351
  21912844.583   -20250021.74349 -14017033.21847  21912844.253    21912848.714
  23164545.177   -12913331.25549 -10048731.59346  23164544.649    23164550.517
  22458316.117   -10088789.82549  -7840993.02946  22458316.182    22458321.221
  20327415.357   -30232130.95449 -23546565.28948  20327415.223    20327419.718
 04  1  7  2 13 30.0000000  0 10G30G21G16G10G15G29G18G17G26G 6
  23116271.143   -12042826.42849  -9364972.21446  23116271.448    23116276.846
  21012654.109   -26845609.39949 -20897482.62347  21012653.603    21012657.003
  23556888.994   -10864672.61349  -8425080.94245  23556888.675    23556893.015
  23764609.576    -8760596.77349  -6560227.83145  23764608.654    23764614.109
  24100592.550    -8059270.85349  -6257574.02345  24100591.708    24100599.114
  23055760.641   -11346706.09749  -8449695.68246  23055760.489    23055764.915
  21897116.397   -20332673.65649 -14081437.23047  21897116.022    21897120.458
  23177421.469   -12845666.29449  -9996005.64646  23177420.915    23177426.719
  22447589.980   -10145155.63149  -7884914.36646  22447590.087    22447595.137
  20329365.847   -30221881.08349 -23538578.36248  20329365.693    20329370.211
 04  1  7  2 14  0.0000000  0 10G30G21G16G10G15G29G18G17G26G 6
  23135874.653   -11939808.86049  -9284698.78746  23135874.957    23135880.472
  21006764.179   -26876560.96849 -20921600.69247  21006763.680    21006767.104
  23546170.355   -10920999.41849  -8468971.88845  23546169.996    23546174.296
  23784362.040    -8656796.35349  -6479344.38345  23784361.129    23784366.634
  24085774.609    -8137137.73849  -6318249.35245  24085773.946    24085781.234
  23052583.579   -11363401.90049  -8462705.34046  23052583.389    23052587.746
  21881454.311   -20414978.21749 -14145570.57447  21881453.925    21881458.340
  23190309.854   -12777937.56449  -9943230.00646  23190309.263    23190315.128
  22436954.042   -10201048.02749  -7928466.82146  22436954.140    22436959.171
  20331399.867   -30211192.15249 -23530249.30648  20331399.725    20331404.244
 04  1  7  2 14 30.0000000  0 10G30G21G16G10G15G29G18G17G26G 6
  23155497.878   -11836688.28649  -9204345.10746  23155498.232    23155503.714
  21000913.482   -26907306.23349 -20945558.00847  21000912.991    21000916.427
  23535542.764   -10976847.45349  -8512489.78045  23535542.403    23535546.727
  23804142.767    -8552847.80049  -6398345.49245  23804141.975    23804147.390
  24070973.668    -8214916.11949  -6378855.71345  24070972.973    24070980.319
  23049502.880   -11379590.20849  -8475319.56746  23049502.732    23049507.176
  21865858.619   -20496933.50549 -14209431.76847  21865858.271    21865862.705
  23203210.295   -12710145.24249  -9890404.79746  23203209.742    23203215.504
  22426408.593   -10256464.06149  -7971648.07946  22426408.740    22426413.704
  20333517.593   -30200063.28749 -23521577.45248  20333517.459    20333521.975
 04  1  7  2 15  0.0000000  0 10G30G21G16G10G15G29G18G17G26G 6
  23175140.215   -11733467.88649  -9123913.63946  23175140.414    23175146.013
  20995101.936   -26937845.62049 -20969354.89747  20995101.464    20995104.918
  23525006.523   -11032215.18349  -8555633.39845  23525006.217    23525010.477
  23823951.134    -8448753.90249  -6317233.34045  23823950.392    23823955.763
  24056189.452    -8292606.28549  -6439393.35145  24056188.818    24056196.338
  23046519.049   -11395269.85749  -8487537.41646  23046518.967    23046523.428
  21850329.697   -20578537.86849 -14273019.50747  21850329.382    21850333.860
  23216122.662   -12642290.16649  -9837530.67246  23216122.123    23216127.789
  22415954.457   -10311400.89249  -8014455.93646  22415954.568    22415959.534
  20335719.164   -30188493.98249 -23512562.39248  20335719.025    20335723.556
 04  1  7  2 15 30.0000000  0 10G30G21G16G10G15G29G18G17G26G 6
  23194800.954   -11630150.65349  -9043406.72146  23194801.034    23194806.708
  20989329.588   -26968179.40149 -20992991.57147  20989329.110    20989332.545
  23514562.072   -11087101.17849  -8598401.64446  23514561.728    23514565.986
  23843786.702    -8344517.21749  -6236009.94345  23843785.951    23843791.321
  24041422.064    -8370208.30549  -6499862.31245  24041421.471    24041429.032
  23043632.367   -11410439.87449  -8499358.17646  23043632.235    23043636.636
  21834867.934   -20659789.78249 -14336332.61347  21834867.616    21834872.055
  23229046.952   -12574372.59649  -9784607.85445  23229046.376    23229052.023
  22405591.907   -10365855.89249  -8056888.33346  22405592.041    22405597.034
  20338004.638   -30176483.58249 -23503203.61948  20338004.522    20338009.017
 04  1  7  2 16  0.0000000  0 10G30G21G16G10G15G29G18G17G26G 6
  23214479.505   -11526739.80749  -8962826.85946  23214479.540    23214485.138
  20983596.315   -26998307.90849 -21016468.29147  20983595.819    20983599.209
  23504209.536   -11141503.94149  -8640793.34046  23504209.155    23504213.388
  23863648.944    -8240140.56549  -6154677.48045  23863648.130    23863653.561
  24026671.779    -8447722.27049  -6560262.63745  24026671.142    24026678.382
  23040842.709   -11425099.20549  -8510780.98846  23040842.577    23040846.996
  21819473.479   -20740688.16149 -14399370.23047  21819473.094    21819477.528
  23241983.025   -12506393.03949  -9731636.75046  23241982.470    23241988.063
  22395321.649   -10419826.15949  -8098943.02246  22395321.781    22395326.751
  20340374.182   -30164031.52249 -23493500.69748  20340374.042    20340378.539
 04  1  7  2 16 30.0000000  0 10G30G21G16G10G15G29G18G17G26G 6
  23234175.279   -11423237.94249  -8882176.06746  23234175.275    23234180.978
  20977902.109   -27028231.02249 -21039784.96847  20977901.611    20977904.946
  23493949.327   -11195421.49049  -8682806.96646  23493948.948    23493953.115
  23883537.408    -8135626.25849  -6073237.74245  23883536.551    23883541.935
  24011938.007    -8525148.08349  -6620594.28545  24011937.382    24011944.677
  23038150.540   -11439246.23349  -8521804.60946  23038150.460    23038154.925
  21804146.661   -20821230.82649 -14462130.67547  21804146.314    21804150.699
  23254930.909   -12438351.54749  -9678617.39345  23254930.377    23254935.913
  22385144.168   -10473308.68549  -8140617.65846  22385144.288    22385149.262
  20342827.964   -30151136.82549 -23483452.86448  20342827.813    20342832.304
 04  1  7  2 17  0.0000000  0 10G30G21G16G10G15G29G18G17G26G 6
  23253887.773   -11319647.43149  -8801456.19546  23253887.879    23253893.595
  20972247.058   -27057948.58449 -21062941.47247  20972246.566    20972249.872
  23483781.878   -11248851.77449  -8724440.89046  23483781.467    23483785.651
  23903451.532    -8030976.78849  -5991692.69545  23903450.635    23903456.063
  23997220.810    -8602485.05649  -6680856.74245  23997220.341    23997227.740
  23035556.242   -11452879.31949  -8532427.74646  23035556.146    23035560.593
  21788888.025   -20901415.51449 -14524612.18047  21788887.647    21788892.006
  23267890.630   -12370248.04249  -9625549.71645  23267890.035    23267895.473
  22375060.206   -10526300.02249  -8181909.54946  22375060.318    22375065.366
  20345366.152   -30137798.41249 -23473059.28348  20345366.006    20345370.487
 04  1  7  2 17 30.0000000  0 10G30G21G16G10G15G29G18G17G26G 6
  23273616.477   -11215971.76649  -8720669.96846  23273616.720    23273622.435
  20966630.971   -27087461.07949 -21085938.18647  20966630.474    20966633.783
  23473707.303   -11301793.49549  -8765694.11446  23473706.921    23473711.139
  23923390.878    -7926195.12749  -5910044.64745  23923389.972    23923395.313
  23982520.884    -8679733.63549  -6741050.29445  23982520.406    23982527.594
  23033059.896   -11465997.93349  -8542649.99746  23033059.745    23033064.106
  21773697.534   -20981241.24549 -14586813.97847  21773697.213    21773701.612
  23280861.958   -12302083.31449  -9572434.33645  23280861.375    23280866.752
  22365070.225   -10578797.77849  -8222816.82046  22365070.314    22365075.318
  20347988.836   -30124016.04249 -23462319.75648  20347988.691    20347993.170
 04  1  7  2 18  0.0000000  0 10G30G21G16G10G15G29G18G17G26G 6
  23293360.774   -11112213.81049  -8639819.63846  23293361.212    23293366.887
  20961053.931   -27116768.59049 -21108775.17547  20961053.415    20961056.723
  23463725.952   -11354245.31849  -8806565.61646  23463725.600    23463729.799
  23943354.867    -7821283.68449  -5828295.46045  23943353.871    23943359.252
  23967838.036    -8756893.84849  -6801174.98245  23967837.352    23967844.301
  23030661.597   -11478600.57549  -8552470.19846  23030661.505    23030665.867
  21758575.766   -21060706.27549 -14648734.71447  21758575.452    21758579.837
  23293844.780   -12233857.70549  -9519271.52945  23293844.208    23293849.550
  22355174.648   -10630799.14249  -8263337.30346  22355174.715    22355179.680
  20350696.114   -30109789.09049 -23451233.80248  20350695.956    20350700.447
 04  1  7  2 18 30.0000000  0 10G30G21G16G10G15G29G18G17G26G 6
  23313120.492   -11008376.33349  -8558907.33046  23313120.912    23313126.547
  20955515.848   -27145871.32249 -21131452.59547  20955515.339    20955518.637
  23453838.287   -11406205.27049  -8847053.84046  23453837.916    23453842.038
  23963343.132    -7716244.86549  -5746447.05045  23963342.063    23963347.555
  23953171.547    -8833965.70949  -6861230.85445  23953170.846    23953178.031
  23028361.681   -11490686.34349  -8561887.64546  23028361.587    23028365.986
  21743522.973   -21139809.20449 -14710373.29647  21743522.633    21743526.981
  23306839.115   -12165571.30749  -9466061.33145  23306838.532    23306844.043
  22345374.064   -10682301.10149  -8303468.64346  22345374.169    22345379.052
  20353488.159   -30095116.75249 -23439800.79448  20353488.014    20353492.511
 04  1  7  2 19  0.0000000  0 10G30G21G16G10G15G29G18G17G26G 6
  23332894.950   -10904462.30849  -8477935.37346  23332895.182    23332900.856
  20950016.711   -27174769.12349 -21153970.32947  20950016.216    20950019.516
  23444044.509   -11457671.95149  -8887157.68646  23444044.156    23444048.320
  23983355.003    -7611081.07049  -5664501.25145  23983353.970    23983359.668
  23938521.841    -8910948.96449  -6921217.68345  23938521.276    23938528.488
  23026160.359   -11502254.11049  -8570901.43946  23026160.301    23026164.684
  21728539.449   -21218548.25849 -14771728.33347  21728539.066    21728543.332
  23319844.954   -12097224.50949  -9412804.04645  23319844.498    23319849.982
  22335669.041   -10733301.07949  -8343208.82846  22335669.138    22335674.056
  20356365.095   -30079998.26549 -23428020.13748  20356364.962    20356369.436
 04  1  7  2 19 30.0000000  0 10G30G21G16G10G15G29G18G17G26G 6
  23352683.084   -10800474.90849  -8396906.25146  23352683.364    23352689.037
  20944556.506   -27203462.46449 -21176328.74047  20944556.016    20944559.360
  23434344.763   -11508643.86449  -8926875.99346  23434344.442    23434348.699
  24003390.100    -7505795.42549  -5582460.47745  24003389.170    24003394.849
  23923889.232    -8987843.78349  -6981135.59545  23923888.587    23923895.658
  23024057.776   -11513302.98649  -8579510.90946  23024057.677    23024062.123
  21713625.506   -21296921.54349 -14832798.36447  21713625.110    21713629.306
  23332862.243   -12028817.78049  -9359500.05845  23332861.846    23332867.319
  22326059.981   -10783796.35149  -8382555.72746  22326060.120    22326065.109
  20359327.014   -30064433.28649 -23415891.56448  20359326.871    20359331.316
 04  1  7  2 20  0.0000000  0 10G30G21G16G10G15G29G18G17G26G 6
  23372484.810   -10696416.52949  -8315821.81046  23372484.995    23372490.759
  20939135.299   -27231950.98149 -21198527.55247  20939134.819    20939138.126
  23424739.593   -11559119.24149  -8966207.39846  23424739.280    23424743.531
  24023448.048    -7400389.82449  -5500326.24845  24023447.223    24023452.839
  23909273.489    -9064649.75549  -7040984.27845  23909272.855    23909279.721
  23022054.206   -11523831.46949  -8587714.88646  23022054.114    23022058.616
  21698781.362   -21374927.22349 -14893581.95147  21698781.027    21698785.255
  23345891.144   -11960350.88649  -9306149.21045  23345890.666    23345896.144
  22316547.714   -10833783.79249  -8421506.91146  22316547.815    22316552.773
  20362374.044   -30048420.95749 -23403414.40948  20362373.892    20362378.321
 04  1  7  2 20 30.0000000  0 10G30G21G16G10G15G29G18G17G26G 6
  23392299.286   -10592290.63749  -8234684.75946  23392299.518    23392305.257
  20933752.942   -27260235.46349 -21220567.37547  20933752.455    20933755.717
  23415229.220   -11609096.97349  -9005151.04146  23415228.874    23415233.028
  24043528.324    -7294867.28449  -5418100.88645  24043527.622    24043533.079
  23894674.638    -9141367.20149  -7100763.98245  23894673.961    23894680.805
  23020149.709   -11533839.08949  -8595512.98846  23020149.722    23020154.139
  21684007.432   -21452564.56949 -14954078.52647  21684007.084    21684011.306
  23358931.323   -11891824.69449  -9252752.16545  23358930.849    23358936.256
  22307132.486   -10883261.07749  -8460060.57946  22307132.584    22307137.467
  20365506.215   -30031961.02849 -23390588.47448  20365506.074    20365510.498
 04  1  7  2 21  0.0000000  0 10G30G21G16G10G15G29G18G17G26G 6
  23412126.180   -10488099.61349  -8153496.94846  23412126.402    23412132.189
  20928409.409   -27288315.86649 -21242448.17547  20928408.914    20928412.111
  23405813.662   -11658575.31849  -9043705.53746  23405813.343    23405817.546
  24063630.436    -7189230.16849  -5335786.23245  24063629.806    24063635.279
  23880092.594    -9217995.89449  -7160474.53745  23880091.947    23880098.818
  23018344.721   -11543324.52649  -8602904.19646  23018344.711    23018349.122
  21669304.000   -21529831.81749 -15014286.71047  21669303.623    21669307.827
  23371982.790   -11823239.30849  -9199308.99245  23371982.293    23371987.662
  22297814.877   -10932225.30949  -8498214.46546  22297814.934    22297819.858
  20368723.768   -30015052.53749 -23377413.01148  20368723.626    20368728.083
 04  1  7  2 21 30.0000000  0 10G30G21G16G10G15G29G18G17G26G 6
  23431964.997   -10383846.39449  -8072260.69246  23431965.128    23431970.889
  20923104.708   -27316192.04749 -21264169.84347  20923104.206    20923107.404
  23396493.555   -11707552.43349  -9081869.46546  23396493.235    23396497.528
  24083753.792    -7083480.73249  -5253384.08145  24083753.045    24083758.900
  23865527.394    -9294535.69749  -7220115.82845  23865526.729    23865533.613
  23016639.279   -11552286.75449  -8609887.70346  23016639.232    23016643.604
  21654671.173   -21606727.35849 -15074205.25547  21654670.813    21654675.022
  23385045.352   -11754594.59849  -9145819.60245  23385044.831    23385050.306
  22288595.354   -10980673.61149  -8535966.32546  22288595.447    22288600.484
  20372026.822   -29997694.78649 -23363887.47648  20372026.689    20372031.135
 04  1  7  2 22  0.0000000  0 10G30G21G16G10G15G29G18G17G26G 6
  23451814.854   -10279533.70149  -7990978.09046  23451815.086    23451820.877
  20917838.853   -27343864.25049 -21285732.56248  20917838.382    20917841.577
  23387269.178   -11756026.63049  -9119641.51746  23387268.831    23387273.109
  24103898.118    -6977621.26649  -5170896.17245  24103897.429    24103903.198
  23850979.185    -9370986.64249  -7279687.85445  23850978.481    23850985.200
  23015033.537   -11560724.53849  -8616462.56546  23015033.544    23015037.930
  21640109.443   -21683249.31849 -15133832.69947  21640109.114    21640113.272
  23398119.067   -11685890.80549  -9092284.15945  23398118.530    23398124.054
  22279474.682   -11028602.99049  -8573313.83946  22279474.771    22279479.773
  20375415.558   -29979886.98849 -23350011.25448  20375415.433    20375419.858
 04  1  7  2 22 30.0000000  0 10G30G21G16G10G15G29G18G17G26G 6
  23471675.545   -10175164.51949  -7909651.46246  23471675.857    23471681.641
  20912611.830   -27371332.47949 -21307136.34348  20912611.350    20912614.553
  23378140.645   -11803997.12349  -9157021.06546  23378140.270    23378144.580
  24124062.958    -6871654.54949  -5088324.68945  24124062.310    24124067.977
  23836447.874    -9447348.86949  -7339190.76445  23836447.211    23836453.926
  23013527.866   -11568637.13349  -8622628.17846  23013527.846    23013532.152
  21625619.088   -21759396.59049 -15193168.17947  21625618.756    21625622.814
  23411203.928   -11617128.43749  -9038703.05945  23411203.441    23411209.049
  22270453.180   -11076011.08549  -8610255.15346  22270453.276    22270458.091
  20378889.918   -29961628.87549 -23335784.13448  20378889.778    20378894.227
 04  1  7  2 23  0.0000000  0 10G30G21G16G10G15G29G18G17G26G 6
  23491546.530   -10070741.79549  -7828283.13046  23491546.741    23491552.628
  20907423.621   -27398596.70649 -21328381.16248  20907423.122    20907426.324
  23369108.294   -11851462.24349  -9194006.81146  23369107.904    23369112.275
  24144247.695    -6765582.98449  -5005671.50945  24144247.026    24144252.807
  23821933.336    -9523622.13049  -7398624.37145  23821932.640    23821939.607
  23012122.286   -11576023.87249  -8628384.03246  23012122.170    23012126.526
  21611200.401   -21835167.37849 -15252210.28747  21611200.008    21611204.065
  23424300.062   -11548307.73949  -8985076.51545  23424299.564    23424305.217
  22261531.394   -11122895.32249  -8646788.27246  22261531.502    22261536.259
  20382450.092   -29942919.98549 -23321205.76048  20382449.964    20382454.384
 04  1  7  2 23 30.0000000  0 10G30G21G16G10G15G29G18G17G26G 6
  23511427.245    -9966268.41449  -7746875.29846  23511427.397    23511433.263
  20902274.075   -27425657.35749 -21349467.35147  20902273.577    20902276.783
  23360172.351   -11898420.57349  -9230597.65446  23360171.920    23360176.368
  24164451.896    -6659409.20849  -4922938.68245  24164451.239    24164456.957
  23807435.728    -9599806.66049  -7457988.84145  23807435.135    23807442.029
  23010816.793   -11582883.63849  -8633729.27046  23010816.723    23010821.109
  21596853.489   -21910560.56349 -15310958.16947  21596853.110    21596857.183
  23437407.340   -11479428.89649  -8931404.67045  23437406.891    23437412.491
  22252709.773   -11169253.13449  -8682911.19146  22252709.869    22252714.614
  20386096.171   -29923759.86349 -23306275.78448  20386096.010    20386100.419
 04  1  7  2 24  0.0000000  0 10G30G21G16G10G15G29G18G17G26G 6
  23531316.895    -9861747.42349  -7665430.36945  23531317.128    23531323.029
  20897163.247   -27452514.88149 -21370395.26148  20897162.755    20897165.931
  23351333.020   -11944870.72949  -9266792.50646  23351332.628    23351337.182
  24184675.086    -6553135.94149  -4840128.34045  24184674.448    24184679.958
  23792955.295    -9675902.61749  -7517284.25945  23792954.650    23792961.099
  23009611.858   -11589215.68049  -8638663.28846  23009611.767    23009616.057
  21582578.761   -21985574.43149 -15369410.47447  21582578.402    21582582.501
  23450525.630   -11410492.30049  -8877687.81945  23450525.199    23450530.658
  22243988.847   -11215081.89149  -8718621.85846  22243988.947    22243993.640
  20389828.125   -29904148.05349 -23290993.83848  20389827.986    20389832.397
 04  1  7  2 24 30.0000000  0 10G30G21G16G10G15G29G18G17G26G 6
  23551214.997    -9757181.33949  -7583950.30645  23551215.273    23551221.256
  20892091.142   -27479168.80249 -21391164.51748  20892090.647    20892093.812
  23342590.725   -11990811.47349  -9302590.42146  23342590.371    23342594.824
  24204916.822    -6446765.22949  -4757242.06445  24204916.245    24204921.459
  23778491.466    -9751909.70149  -7576510.45545  23778490.774    23778497.307
  23008507.527   -11595019.09349  -8643185.38846  23008507.352    23008511.627
  21568376.509   -22060207.53149 -15427566.07347  21568376.144    21568380.178
  23463654.970   -11341497.87849  -8823925.92145  23463654.480    23463659.858
  22235369.104   -11260378.78749  -8753918.07946  22235369.174    22235373.865
  20393646.227   -29884083.87349 -23275359.39748  20393646.073    20393650.476
 04  1  7  2 25  0.0000000  0 10G30G21G16G10G15G29G18G17G26G 6
  23571121.138    -9652572.80749  -7502437.17545  23571121.483    23571127.604
  20887057.740   -27505619.22449 -21411775.20348  20887057.241    20887060.462
  23333945.743   -12036241.16249  -9337990.12246  23333945.366    23333949.750
  24225176.602    -6340299.24449  -4674281.53545  24225176.049    24225181.172
  23764044.460    -9827827.43149  -7635667.02545  23764043.855    23764050.620
  23007503.913   -11600292.71749  -8647294.66846  23007503.756    23007508.099
  21554247.014   -22134458.16449 -15485423.65147  21554246.646    21554250.657
  23476794.983   -11272446.00549  -8770119.24645  23476794.583    23476799.985
  22226851.087   -11305141.08849  -8788797.74346  22226851.171    22226855.858
  20397550.542   -29863566.53549 -23259371.84648  20397550.380    20397554.791
 04  1  7  2 25 30.0000000  0 10G30G21G16G10G15G29G18G17G26G 6
  23591034.763    -9547924.72949  -7420893.20345  23591035.376    23591041.515
  20882063.108   -27531866.00949 -21432227.21548  20882062.609    20882065.855
  23325398.203   -12081158.34749  -9372990.45446  23325397.833    23325402.213
  24245454.073    -6233740.56649  -4591248.79145  24245453.452    24245458.641
  23749614.928    -9903655.79149  -7694753.92845  23749614.314    23749620.959
  23006601.284   -11605035.67049  -8650990.43346  23006601.222    23006605.551
  21540190.542   -22208324.86949 -15542982.06647  21540190.197    21540194.245
  23489945.987   -11203336.64949  -8716267.77145  23489945.549    23489951.047
  22218435.261   -11349366.20149  -8823258.82146  22218435.378    22218440.029
  20401541.146   -29842595.64949 -23243030.88548  20401540.987    20401545.397
 04  1  7  2 26  0.0000000  0 10G30G21G16G10G15G29G18G17G26G 6
  23610955.499    -9443240.48349  -7339321.07045  23610955.955    23610962.204
  20877107.093   -27557909.81249 -21452521.05648  20877106.610    20877109.858
  23316948.362   -12125562.01349  -9407590.64046  23316948.023    23316952.434
  24265748.636    -6127092.01549  -4508146.03645  24265748.012    24265753.207
  23735202.109    -9979395.28249  -7753771.59445  23735201.483    23735207.995
  23005799.648   -11609247.90049  -8654272.65446  23005799.647    23005803.855
  21526207.395   -22281806.72849 -15600240.59947  21526207.027    21526211.119
  23503107.813   -11134170.34849  -8662371.92545  23503107.308    23503112.930
  22210122.048   -11393052.23349  -8857299.83246  22210122.123    22210126.806
  20405618.038   -29821171.26949 -23226336.54848  20405617.895    20405622.287
 04  1  7  2 26 30.0000000  0 10G30G21G16G10G15G29G18G17G26G 6
  23630882.871    -9338522.27549  -7257722.46945  23630883.270    23630889.471
  20872189.789   -27583750.47149 -21472656.60548  20872189.304    20872192.539
  23308596.607   -12169450.61449  -9441789.48546  23308596.245    23308600.551
  24286059.974    -6020355.32549  -4424974.59245  24286059.250    24286064.528
  23720805.822   -10055045.43049  -7812719.66145  23720805.329    23720812.100
  23005099.168   -11612928.13649  -8657140.33746  23005099.272    23005103.467
  21512297.861   -22354901.77449 -15657197.72247  21512297.447    21512301.543
  23516280.625   -11064946.94449  -8608431.60245  23516280.018    23516285.654
  22201912.016   -11436196.00949  -8890918.29946  22201912.116    22201916.803
  20409781.489   -29799292.31149 -23209287.99848  20409781.333    20409785.715
 04  1  7  2 27  0.0000000  0 10G30G21G16G10G15G29G18G17G26G 6
  23650816.082    -9233773.27349  -7176099.87345  23650816.371    23650822.553
  20867311.055   -27609388.03249 -21492633.89848  20867310.582    20867313.788
  23300342.994   -12212823.28749  -9475586.30346  23300342.629    23300346.914
  24306387.543    -5913533.50649  -4341736.80945  24306386.839    24306392.037
  23706426.904   -10130606.92149  -7871598.62945  23706426.302    23706433.267
  23004500.149   -11616076.00949  -8659593.19046  23004500.246    23004504.445
  21498461.968   -22427609.42049 -15713852.97347  21498461.585    21498465.710
  23529464.106   -10995667.02649  -8554447.25345  23529463.511    23529468.986
  22193805.397   -11478795.56249  -8924112.70046  22193805.598    22193810.278
  20414031.394   -29776958.98849 -23191885.39648  20414031.240    20414035.607
 04  1  7  2 27 30.0000000  0 10G30G21G16G10G15G29G18G17G26G 6
  23670754.378    -9128996.61249  -7094455.72445  23670754.708    23670760.905
  20862470.909   -27634823.10449 -21512453.40448  20862470.432    20862473.646
  23292187.852   -12255678.84949  -9508980.18546  23292187.494    23292191.708
  24326730.728    -5806629.12849  -4258434.69945  24326729.915    24326735.273
  23692065.140   -10206079.66249  -7930408.44945  23692064.385    23692071.283
  23004002.510   -11618690.77749  -8661630.63046  23004002.591    23004006.828
  21484700.132   -22499927.88649 -15770204.97147  21484699.762    21484703.901
  23542658.415   -10926331.02549  -8500419.19845  23542657.847    23542663.277
  22185803.044   -11520848.54649  -8956881.19746  22185803.158    22185807.769
  20418367.772   -29754170.85949 -23174128.39648  20418367.628    20418372.015
 04  1  7  2 28  0.0000000  0 10G30G21G16G10G15G29G18G17G26G 6
  23690697.480    -9024194.68449  -7012791.89645  23690697.862    23690704.160
  20857669.334   -27660055.46249 -21532114.95348  20857668.866    20857672.070
  23284131.310   -12298015.67649  -9541969.87046  23284130.972    23284135.152
  24347089.259    -5699644.34749  -4175069.93045  24347088.422    24347093.826
  23677719.916   -10281462.89149  -7989148.51045  23677719.237    23677726.153
  23003606.547   -11620771.60249  -8663252.01046  23003606.565    23003610.811
  21471012.792   -22571855.14649 -15826252.13447  21471012.397    21471016.540
  23555863.355   -10856938.72849  -8446347.26645  23555862.795    23555868.308
  22177905.170   -11562352.16049  -8989221.62546  22177905.255    22177909.847
  20422790.875   -29730927.18549 -23156016.43148  20422790.736    20422795.125
 04  1  7  2 28 30.0000000  0 10G30G21G16G10G15G29G18G17G26G 6
  23710645.057    -8919370.24249  -6931110.52845  23710645.381    23710651.586
  20852906.408   -27685084.82049 -21551618.31648  20852905.934    20852909.107
  23276173.756   -12339832.61149  -9574554.44746  23276173.450    23276177.595
  24367462.720    -5592581.16949  -4091644.06145  24367461.977    24367467.202
  23663391.917   -10356757.11649  -8047819.20845  23663391.304    23663397.855
  23003312.272   -11622317.83149  -8664456.83646  23003312.268    23003316.545
  21457400.150   -22643390.15449 -15881993.64247  21457399.761    21457403.821
  23569078.853   -10787490.28749  -8392231.55445  23569078.307    23569084.027
  22170112.229   -11603303.91249  -9021132.03546  22170112.390    22170116.950
  20427300.724   -29707227.88149 -23137549.42948  20427300.554    20427304.925
 04  1  7  2 29  0.0000000  0 10G30G21G16G10G15G29G18G17G26G 6
  23730596.344    -8814526.25149  -6849413.92945  23730596.650    23730602.781
  20848181.985   -27709911.68149 -21570963.88748  20848181.514    20848184.643
  23268315.366   -12381128.39549  -9606732.92246  23268315.051    23268319.220
  24387850.610    -5485442.17949  -4008159.12245  24387849.784    24387855.060
  23649080.934   -10431962.28049  -8106420.50845  23649080.273    23649086.751
  23003119.881   -11623328.82849  -8665244.59146  23003119.852    23003124.146
  21443862.266   -22714531.96049 -15937428.76547  21443861.883    21443865.931
  23582305.009   -10717986.11549  -8338072.42645  23582304.460    23582310.290
  22162424.855   -11643701.39949  -9052610.55646  22162425.013    22162429.504
  20431897.331   -29683072.52449 -23118727.06148  20431897.172    20431901.522
 04  1  7  2 29 30.0000000  0 10G30G21G16G10G15G29G18G17G26G 6
  23750550.799    -8709665.59049  -6767704.34245  23750551.026    23750557.153
  20843496.107   -27734536.03149 -21590151.66848  20843495.628    20843498.731
  23260556.279   -12421901.99549  -9638504.49546  23260555.963    23260560.206
  24408252.449    -5378229.79949  -3924617.03445  24408251.569    24408256.823
  23634786.521   -10507078.07349  -8164952.17745  23634785.968    23634792.630
  23003029.478   -11623803.96349  -8665614.78846  23003029.385    23003033.714
  21430399.473   -22785279.01549 -15992556.28747  21430399.103    21430403.226
  23595541.799   -10648426.17749  -8283869.87345  23595541.237    23595547.096
  22154843.293   -11683542.54749  -9083655.55846  22154843.431    22154847.863
  20436580.729   -29658460.85749 -23099549.12548  20436580.590    20436584.948
 04  1  7  2 30  0.0000000  0 10G30G21G16G10G15G29G18G17G26G 6
  23770507.989    -8604790.90249  -6685983.81845  23770508.040    23770514.117
  20838848.791   -27758957.81849 -21609181.60148  20838848.306    20838851.411
  23252896.891   -12462152.21549  -9669868.26346  23252896.595    23252900.720
  24428667.811    -5270946.49549  -3841019.64645  24428666.896    24428672.137
  23620509.371   -10582104.58749  -8223414.26945  23620508.822    23620515.249
  23003041.057   -11623742.60949  -8665566.95546  23003040.996    23003045.349
  21417012.106   -22855630.07549 -16047375.24347  21417011.741    21417015.821
  23608789.186   -10578810.83349  -8229624.15745  23608788.645    23608794.353
  22147368.028   -11722824.73649  -9114265.00446  22147368.206    22147372.613
  20441351.106   -29633392.39849 -23080015.25248  20441350.977    20441355.334
 04  1  7  2 30 30.0000000  0 10G30G21G16G10G15G29G18G17G26G 6
  23790467.123    -8499905.10249  -6604254.61445  23790467.182    23790473.204
  20834239.944   -27783177.31249 -21628053.90648  20834239.456    20834242.623
  23245337.317   -12501877.97649  -9700823.36046  23245337.008    23245341.102
  24449096.250    -5163594.75249  -3757368.92545  24449095.343    24449100.416
  23606249.408   -10657041.82549  -8281806.78845  23606248.793    23606254.905
  23003154.949   -11623144.48149  -8665100.84946  23003154.828    23003159.193
  21403700.327   -22925583.86849 -16101884.64047  21403699.947    21403704.009
  23622047.122   -10509139.98949  -8175335.19445  23622046.647    23622052.124
  22139999.612   -11761545.83149  -9144437.24146  22139999.767    22140004.224
  20446208.473   -29607866.80049 -23060125.16148  20446208.315    20446212.670
 04  1  7  2 31  0.0000000  0 10G30G21G16G10G15G29G18G17G26G 6
  23810427.756    -8395010.72449  -6522518.73545  23810427.884    23810433.882
  20829669.610   -27807194.31149 -21646768.42048  20829669.130    20829672.305
  23237877.723   -12541078.03349  -9731368.81046  23237877.382    23237881.589
  24469537.296    -5056176.59849  -3673666.44145  24469536.373    24469541.333
  23592006.306   -10731889.47649  -8340129.51745  23592005.665    23592011.907
  23003371.046   -11622008.58449  -8664215.70246  23003370.918    23003375.312
  21390464.372   -22995138.91649 -16156083.32847  21390463.990    21390468.022
  23635315.548   -10439413.99949  -8121003.23045  23635315.043    23635320.517
  22132738.488   -11799703.35849  -9174170.33746  22132738.604    22132743.060
  20451152.856   -29581883.69249 -23039878.57148  20451152.712    20451157.036
 04  1  7  2 31 30.0000000  0 10G30G21G16G10G15G29G18G17G26G 6
  23830389.586    -8290110.39549  -6440778.23145  23830389.724    23830395.753
  20825137.892   -27831008.48449 -21665324.89648  20825137.407    20825140.558
  23230518.596   -12579750.87549  -9761503.45846  23230518.226    23230522.330
  24489990.575    -4948694.08049  -3589913.82245  24489989.693    24489994.775
  23577780.044   -10806647.47849  -8398382.40945  23577779.483    23577785.978
  23003689.569   -11620334.41649  -8662911.12646  23003689.457    23003693.809
  21377304.554   -23064293.94849 -16209970.31747  21377304.170    21377308.200
  23648594.346   -10369632.65549  -8066628.13945  23648593.899    23648599.468
  22125584.948   -11837294.88849  -9203462.39546  22125585.096    22125589.491
  20456184.423   -29555442.70549 -23019275.19848  20456184.278    20456188.572
 04  1  7  2 32  0.0000000  0 10G30G21G16G10G15G29G18G17G26G 6
  23850352.023    -8185207.07949  -6359035.39845  23850352.135    23850358.155
  20820644.677   -27854620.27049 -21683723.66048  20820644.198    20820647.328
  23223259.756   -12617895.68549  -9791226.64746  23223259.443    23223263.509
  24510455.438    -4841149.72749  -3506113.01545  24510454.697    24510459.612
  23563571.125   -10881315.97649  -8456565.53045  23563570.549    23563576.829
  23004110.647   -11618121.56949  -8661186.80946  23004110.506    23004114.845
  21364221.183   -23133047.37949 -16263544.37447  21364220.798    21364224.807
  23661883.773   -10299796.26349  -8012210.13445  23661883.279    23661889.001
  22118539.626   -11874318.10749  -9232311.61946  22118539.763    22118544.127
  20461303.159   -29528543.46649 -22998314.73848  20461303.005    20461307.296
 04  1  7  2 32 30.0000000  0 10G30G21G16G10G15G29G18G17G26G 6
  23870314.420    -8080303.49649  -6277292.36345  23870314.565    23870320.631
  20816190.004   -27878029.61549 -21701964.68248  20816189.542    20816192.660
  23216101.690   -12655511.49849  -9820537.63246  23216101.367    23216105.402
  24530931.670    -4733545.93149  -3422265.92845  24530930.910    24530936.137
  23549379.222   -10955895.10749  -8514679.01645  23549378.615    23549384.675
  23004634.317   -11615369.53849  -8659042.32946  23004634.213    23004638.451
  21351214.415   -23201398.06049 -16316804.59847  21351214.052    21351218.044
  23675183.673   -10229905.05849  -7957749.44745  23675183.172    23675188.932
  22111602.854   -11910770.93149  -9260716.37746  22111602.966    22111607.429
  20466509.122   -29501185.88249 -22976997.13248  20466508.971    20466513.288
 04  1  7  2 33  0.0000000  0 10G30G21G16G10G15G29G18G17G26G 6
  23890276.405    -7975402.65249  -6195551.45245  23890276.506    23890282.582
  20811773.860   -27901236.76649 -21720048.15048  20811773.389    20811776.488
  23209044.444   -12692597.68149  -9849435.91446  23209044.083    23209048.174
  24551418.756    -4625884.89349  -3338374.23345  24551418.027    24551423.337
  23535204.138   -11030384.80049  -8572722.81846  23535203.498    23535209.736
  23005260.699   -11612078.20149  -8656477.62446  23005260.589    23005264.732
  21338284.584   -23269344.93349 -16369750.16347  21338284.183    21338288.163
  23688493.978   -10159959.45149  -7903246.35645  23688493.467    23688499.125
  22104774.950   -11946651.28449  -9288675.05246  22104775.112    22104779.546
  20471802.330   -29473369.95149 -22955322.36748  20471802.166    20471806.475
 04  1  7  2 33 30.0000000  0 10G30G21G16G10G15G29G18G17G26G 6
  23910237.381    -7870506.73149  -6113814.38145  23910237.597    23910243.611
  20807396.182   -27924241.48749 -21737973.87648  20807395.690    20807398.793
  23202088.257   -12729152.37549  -9877920.03946  23202087.899    23202092.044
  24571916.378    -4518168.51749  -3254439.36845  24571915.667    24571921.194
  23521046.154   -11104784.44749  -8630696.46446  23521045.579    23521051.976
  23005989.818   -11608246.43549  -8653491.79446  23005989.705    23005993.854
  21325431.838   -23336886.38649 -16422379.81947  21325431.451    21325435.416
  23701814.718   -10089958.90649  -7848700.45245  23701814.236    23701819.595
  22098056.682   -11981956.54049  -9316185.58246  22098056.783    22098061.125
  20477182.891   -29445094.92149 -22933289.86048  20477182.741    20477187.027
 04  1  7  2 34  0.0000000  0 10G30G21G16G10G15G29G18G17G26G 6
  23930196.792    -7765618.90549  -6032083.62045  23930197.059    23930203.047
  20803056.891   -27947044.33549 -21755742.30648  20803056.404    20803059.513
  23195233.366   -12765175.11049  -9905989.67146  23195233.024    23195237.004
  24592424.055    -4410399.48749  -3170463.48245  24592423.440    24592428.879
  23506905.387   -11179094.54649  -8688600.33746  23506904.799    23506911.031
  23006821.705   -11603874.30449  -8650084.91546  23006821.659    23006825.812
  21312656.309   -23404021.65349 -16474692.97047  21312655.955    21312659.907
  23715145.501   -10019903.93249  -7794112.14745  23715145.067    23715150.356
  22091448.054   -12016684.91449  -9343246.61946  22091448.149    22091452.532
  20482650.740   -29416361.07949 -22910899.84748  20482650.576    20482654.886
 04  1  7  2 34 30.0000000  0 10G30G21G16G10G15G29G18G17G26G 6
  23950154.255    -7660741.85649  -5950361.26645  23950154.572    23950160.484
  20798756.103   -27969645.27749 -21773353.40848  20798755.611    20798758.641
  23188479.895   -12800664.93449  -9933644.04946  23188479.490    23188483.429
  24612941.320    -4302580.25949  -3086448.50645  24612940.695    24612945.992
  23492781.688   -11253314.90649  -8746434.27446  23492781.076    23492787.100
  23007756.622   -11598961.43249  -8646256.67546  23007756.532    23007760.687
  21299958.360   -23470749.63749 -16526688.75647  21299958.016    21299961.919
  23728486.591    -9949794.73349  -7739481.58645  23728486.012    23728491.535
  22084949.585   -12050834.13249  -9369856.35946  22084949.727    22084954.105
  20488205.969   -29387168.09249 -22888152.05348  20488205.820    20488210.121
 04  1  7  2 35  0.0000000  0 10G30G21G16G10G15G29G18G17G26G 6
  23970109.253    -7555878.57449  -5868649.61445  23970109.548    23970115.334
  20794493.672   -27992044.55749 -21790807.36548  20794493.152    20794496.186
  23181827.830   -12835621.19749  -9960882.64246  23181827.455    23181831.466
  24633467.685    -4194713.13849  -3002396.18544  24633466.807    24633472.460
  23478674.995   -11327445.88549  -8804198.56246  23478674.273    23478680.345
  23008794.441   -11593507.86149  -8642007.11746  23008794.303    23008798.424
  21287338.143   -23537069.31949 -16578366.38247  21287337.793    21287341.645
  23741838.130    -9879631.78849  -7684809.16245  23741837.658    23741843.105
  22078561.784   -12084402.53049  -9396013.50746  22078561.889    22078566.212
  20493848.525   -29357516.02049 -22865046.53048  20493848.374    20493852.710
 04  1  7  2 35 30.0000000  0 10G30G21G16G10G15G29G18G17G26G 6
  23990061.073    -7451031.66049  -5786950.74245  23990061.246    23990067.070
  20790269.639   -28014241.56349 -21808103.71048  20790269.156    20790272.195
  23175277.615   -12870042.66549  -9987704.51846  23175277.260    23175281.251
  24654002.882    -4086800.21449  -2918308.20544  24654002.189    24654007.487
  23464585.368   -11401487.16049  -8861892.96746  23464584.647    23464590.817
  23009935.177   -11587513.02049  -8637335.77746  23009935.053    23009939.214
  21274795.880   -23602979.23949 -16629724.71747  21274795.526    21274799.391
  23755200.182    -9809414.85849  -7630094.65645  23755199.657    23755204.996
  22072284.846   -12117387.69849  -9421716.19046  22072284.935    22072289.290
  20499578.557   -29327404.43249 -22841582.94448  20499578.427    20499582.735
 04  1  7  2 36  0.0000000  0 10G30G21G16G10G15G29G18G17G26G 6
  24010009.202    -7346203.94949  -5705266.82645  24010009.416    24010015.071
  20786084.066   -28036236.71749 -21825242.76548  20786083.594    20786086.627
  23168829.364   -12903928.51949 -10014109.05246  23168829.033    23168832.862
  24674546.413    -3978843.89249  -2834186.36145  24674545.817    24674550.703
  23450512.713   -11475438.85249  -8919517.58646  23450512.009    23450518.247
  23011178.976   -11580976.54349  -8632242.39846  23011178.862    23011182.991
  21262331.767   -23668478.49849 -16680763.05147  21262331.424    21262335.287
  23768572.492    -9739144.29649  -7575338.36545  23768571.860    23768577.175
  22066119.251   -12149787.73849  -9446962.93046  22066119.364    22066123.758
  20505396.040   -29296833.43049 -22817761.37548  20505395.900    20505400.195
 04  1  7  2 36 30.0000000  0 10G30G21G16G10G15G29G18G17G26G 6
  24029953.099    -7241397.83349  -5623599.73545  24029953.369    24029959.066
  20781936.971   -28058029.63349 -21842224.23448  20781936.515    20781939.511
  23162483.182   -12937277.69549 -10040095.36846  23162482.837    23162486.722
  24695097.877    -3870846.02549  -2750032.14345  24695097.140    24695102.220
  23436457.074   -11549300.59149  -8977072.08446  23436456.399    23436462.487
  23012526.019   -11573898.00249  -8626726.61746  23012525.890    23012529.981
  21249946.031   -23733565.69149 -16731480.30047  21249945.679    21249949.538
  23781954.754    -9668819.78849  -7520540.00945  23781954.186    23781959.534
  22060065.523   -12181600.42749  -9471752.00646  22060065.575    22060069.954
  20511300.969   -29265802.66149 -22793581.54448  20511300.812    20511305.147
 04  1  7  2 37  0.0000000  0  9G30G21G16G15G29G18G17G26G 6
  24049892.713    -7136613.82849  -5541949.87345  24049893.096    24049898.699
  20777828.748   -28079618.60749 -21859046.78848  20777828.279    20777831.239
  23156239.744   -12970087.17249 -10065661.15246  23156239.448    23156243.277
  23422419.217   -11623070.18349  -9034554.77546  23422418.547    23422424.370
  23013976.554   -11566274.89349  -8620786.50546  23013976.456    23013980.587
  21237639.452   -23798237.24349 -16781873.67447  21237639.068    21237642.908
  23795347.408    -9598439.29549  -7465698.05645  23795346.816    23795352.651
  22054124.361   -12212821.33649  -9496079.93746  22054124.417    22054128.710
  20517293.842   -29234309.78249 -22769041.62848  20517293.703    20517298.034
 04  1  7  2 37 30.0000000  0  9G30G21G16G15G29G18G17G26G 6
  24069827.250    -7031855.93949  -5460320.38245  24069827.725    24069833.512
  20773759.005   -28101004.99649 -21875711.48048  20773758.526    20773761.498
  23150098.915   -13002357.40149 -10090806.74546  23150098.590    23150102.367
  23408398.609   -11696749.06749  -9091966.80546  23408397.934    23408403.891
  23015530.563   -11558108.25849  -8614422.86946  23015530.450    23015534.570
  21225411.850   -23862493.27649 -16831943.26747  21225411.513    21225415.364
  23808750.414    -9528004.29749  -7410813.60045  23808749.866    23808755.802
  22048295.894   -12243449.95849  -9519946.36346  22048295.972    22048300.231
  20523374.430   -29202356.14349 -22744142.68248  20523374.274    20523378.590
 04  1  7  2 38  0.0000000  0  9G30G21G16G15G29G18G17G26G 6
  24089756.079    -6927128.98149  -5378714.98345  24089756.559    24089762.385
  20769727.623   -28122190.06349 -21892219.30248  20769727.147    20769730.104
  23144060.463   -13034089.47749 -10115533.00546  23144060.141    23144063.852
  23394394.711   -11770339.10049  -9149309.62246  23394394.039    23394400.352
  23017187.640   -11549400.05149  -8607637.23046  23017187.543    23017191.707
  21213263.243   -23926334.88449 -16881689.92747  21213262.834    21213266.690
  23822163.712    -9457517.02149  -7355888.46245  23822163.279    23822168.820
  22042580.136   -12273486.40149  -9543351.35346  22042580.229    22042584.495
  20529542.315   -29169943.73849 -22718886.25548  20529542.164    20529546.486
 04  1  7  2 38 30.0000000  0  9G30G21G16G15G29G18G17G26G 6
  24109678.751    -6822435.03549  -5297135.29745  24109679.117    24109685.078
  20765734.507   -28143173.92149 -21908570.34048  20765734.012    20765736.971
  23138124.673   -13065282.18449 -10139838.97846  23138124.370    23138128.044
  23380407.837   -11843839.65949  -9206582.70446  23380407.211    23380413.453
  23018948.041   -11540149.58849  -8600429.03846  23018947.923    23018952.056
  21201193.620   -23989760.63249 -16931112.54947  21201193.259    21201197.117
  23835587.246    -9386976.71049  -7300921.98145  23835586.717    23835592.223
  22036977.537   -12302928.14549  -9566292.93346  22036977.618    22036981.837
  20535797.631   -29137071.91349 -22693271.84048  20535797.483    20535801.792
 04  1  7  2 39  0.0000000  0  9G30G21G16G15G29G18G17G26G 6
  24129594.550    -6717776.96449  -5215583.55945  24129594.889    24129600.824
  20761779.665   -28163956.49349 -21924764.52748  20761779.209    20761782.181
  23132291.647   -13095934.86149 -10163724.14146  23132291.318    23132295.001
  23366438.201   -11917250.74749  -9263786.04846  23366437.532    23366443.428
  23020811.501   -11530356.96549  -8592798.40746  23020811.354    23020815.496
  21189203.358   -24052769.57649 -16980210.38047  21189203.010    21189206.834
  23849020.813    -9316383.85749  -7245914.55845  23849020.227    23849025.606
  22031488.397   -12331773.41449  -9588769.71946  22031488.518    22031492.757
  20542140.297   -29103740.90249 -22667299.60948  20542140.152    20542144.437
 04  1  7  2 39 30.0000000  0  9G30G21G16G15G29G18G17G26G 6
  24149503.094    -6613157.01749  -5134061.52345  24149503.467    24149509.389
  20757863.280   -28184537.40549 -21940801.58148  20757862.811    20757865.771
  23126561.535   -13126046.55649 -10187187.75846  23126561.205    23126564.852
  23352485.669   -11990571.94449  -9320919.36446  23352484.981    23352490.743
  23022778.214   -11520021.38649  -8584744.67246  23022778.072    23022782.291
  21177292.728   -24115360.52449 -17028982.50847  21177292.336    21177296.133
  23862464.265    -9245738.14949  -7190865.92445  23862463.591    23862469.157
  22026113.324   -12360019.90549  -9610779.93646  22026113.419    22026117.598
  20548570.484   -29069950.15349 -22640969.14947  20548570.321    20548574.605
 04  1  7  2 40  0.0000000  0  9G30G21G16G15G29G18G17G26G 6
  24169404.024    -6508577.54749  -5052571.02845  24169404.280    24169410.223
  20753985.282   -28204916.33749 -21956681.24348  20753984.795    20753987.753
  23120934.697   -13155615.98749 -10210228.83746  23120934.370    23120938.030
  23338550.203   -12063802.79549  -9377982.29346  23338549.548    23338555.387
  23024848.386   -11509142.54149  -8576267.62946  23024848.259    23024852.460
  21165461.930   -24177531.40249 -17077427.30447  21165461.546    21165465.349
  23875917.558    -9175039.34849  -7135775.91145  23875916.978    23875922.715
  22020852.455   -12387665.44649  -9632321.88446  22020852.552    22020856.779
  20555088.192   -29035699.19249 -22614280.07947  20555088.059    20555092.345
 04  1  7  2 40 30.0000000  0  9G30G21G16G15G29G18G17G26G 6
  24189296.638    -6404041.24849  -4971114.18145  24189296.978    24189302.841
  20750145.670   -28225093.52749 -21972403.70748  20750145.184    20750148.152
  23115411.143   -13184642.50949 -10232846.86446  23115410.784    23115414.483
  23324631.868   -12136943.67249  -9434975.10546  23324631.233    23324637.106
  23027021.852   -11497720.32949  -8567367.17046  23027021.755    23027025.988
  21153711.197   -24239281.55449 -17125544.26447  21153710.841    21153714.651
  23889381.055    -9104287.66349  -7080644.69145  23889380.416    23889386.336
  22015706.310   -12414708.34749  -9653394.23046  22015706.443    22015710.664
  20561693.450   -29000988.25849 -22587232.58847  20561693.296    20561697.606
 04  1  7  2 41  0.0000000  0  9G30G21G16G15G29G18G17G26G 6
  24209180.656    -6299550.60849  -4889692.90245  24209180.952    24209186.745
  20746344.545   -28245068.42649 -21987968.54548  20746344.075    20746347.041
  23109990.955   -13213125.40049 -10255041.29446  23109990.686    23109994.301
  23310730.819   -12209994.22949  -9491897.52546  23310730.157    23310735.919
  23029298.832   -11485754.44749  -8558043.08746  23029298.748    23029302.994
  21142040.780   -24300609.69649 -17173332.38647  21142040.440    21142044.264
  23902855.014    -9033482.69949  -7025472.00445  23902854.368    23902859.849
  22010675.276   -12441146.47349  -9673995.33546  22010675.397    22010679.606
  20568386.323   -28965817.05049 -22559826.44147  20568386.163    20568390.478
 04  1  7  2 41 30.0000000  0  9G30G21G16G15G29G18G17G26G 6
  24229055.238    -6195108.75449  -4808309.65445  24229055.624    24229061.293
  20742581.832   -28264841.74749 -22003376.30848  20742581.340    20742584.313
  23104674.370   -13241064.30449 -10276811.82946  23104674.097    23104677.667
  23296846.771   -12282954.82949  -9548749.86246  23296846.080    23296851.872
  23031679.345   -11473245.45749  -8548295.79646  23031679.200    23031683.333
  21130450.748   -24361515.67249 -17220791.54847  21130450.404    21130454.197
  23916339.055    -8962625.09449  -6970258.30545  23916338.383    23916343.496
  22005759.587   -12466978.55449  -9694124.20046  22005759.690    22005763.893
  20575166.631   -28930186.16349 -22532062.10447  20575166.489    20575170.805
 04  1  7  2 42  0.0000000  0  9G30G21G16G15G29G18G17G26G 6
  24248920.152    -6090717.85649  -4726966.11245  24248920.601    24248926.269
  20738857.530   -28284412.90149 -22018626.54148  20738857.018    20738859.988
  23099461.403   -13268458.12649 -10298157.62646  23099461.176    23099464.803
  23282979.883   -12355824.96049  -9605531.69946  23282979.229    23282985.066
  23034163.255   -11460192.89549  -8538124.94046  23034163.031    23034167.155
  21118941.400   -24421997.72049 -17267920.37747  21118941.022    21118944.776
  23929833.067    -8891714.60049  -6915003.38545  23929832.411    23929837.330
  22000959.588   -12492202.54449  -9713779.22846  22000959.703    22000963.890
  20582034.539   -28894095.13449 -22503939.22247  20582034.404    20582038.651
 04  1  7  2 42 30.0000000  0  9G30G21G16G15G29G18G17G26G 6
  24268775.128    -5986380.61349  -4645664.38845  24268775.356    24268781.099
  20735171.657   -28303782.25449 -22033719.52448  20735171.170    20735174.102
  23094352.310   -13295306.55549 -10319078.45046  23094352.063    23094355.666
  23269130.419   -12428604.44549  -9662242.89246  23269129.737    23269135.562
  23036750.366   -11446596.77749  -8527530.54846  23036750.210    23036754.363
  21107512.779   -24482054.98149 -17314718.20547  21107512.433    21107516.195
  23943336.742    -8820751.28349  -6859707.26845  23943336.104    23943341.307
  21996275.632   -12516816.71049  -9732959.06346  21996275.726    21996279.974
  20588989.985   -28857544.08849 -22475457.88347  20588989.829    20588994.064
 04  1  7  2 43  0.0000000  0  9G30G21G16G15G29G18G17G26G 6
  24288619.347    -5882099.52349  -4564406.41145  24288619.488    24288625.262
  20731524.324   -28322949.05249 -22048654.67348  20731523.835    20731526.771
  23089347.124   -13321608.86349 -10339573.71846  23089346.808    23089350.432
  23255298.050   -12501293.25149  -9718883.43946  23255297.333    23255303.210
  23039441.030   -11432457.10149  -8516512.60046  23039440.877    23039445.018
  21096165.260   -24541686.49149 -17361184.28347  21096164.909    21096168.677
  23956850.315    -8749735.07349  -6804369.92545  23956849.818    23956855.468
  21991708.077   -12540819.13949  -9751662.22746  21991708.167    21991712.432
  20596032.944   -28820533.10849 -22446618.15247  20596032.793    20596037.027
 04  1  7  2 43 30.0000000  0  9G30G21G16G15G29G18G17G26G 6
  24308452.374    -5777877.19649  -4483194.22845  24308452.389    24308458.032
  20727915.469   -28341913.52849 -22063432.16248  20727914.993    20727917.909
  23084445.996   -13347364.11449 -10359642.69746  23084445.721    23084449.411
  23241482.975   -12573891.19249  -9775453.18046  23241482.317    23241488.175
  23042235.134   -11417773.88649  -8505071.09846  23042235.043    23042239.130
  21084898.971   -24600891.16249 -17407317.74947  21084898.628    21084902.345
  23970374.277    -8678666.01049  -6748991.42745  23970373.726    23970379.592
  21987257.228   -12564208.33749  -9769887.54646  21987257.348    21987261.586
  20603163.423   -28783062.27849 -22417420.08847  20603163.277    20603167.517
 04  1  7  2 44  0.0000000  0  9G30G21G16G15G29G18G17G26G 6
  24328273.623    -5673716.69449  -4402030.23145  24328273.656    24328279.179
  20724345.061   -28360676.25549 -22078052.45348  20724344.585    20724347.452
  23079649.085   -13372572.57849 -10379285.63446  23079648.792    23079652.382
  23227685.279   -12646398.55249  -9831952.33246  23227684.599    23227690.504
  23045132.593   -11402547.38949  -8493206.27046  23045132.507    23045136.582
  21073714.055   -24659668.35249 -17453118.12247  21073713.692    21073717.369
  23983908.458    -8607544.49549  -6693572.06545  23983907.816    23983913.424
  21982923.446   -12586982.82549  -9787633.86846  21982923.549    21982927.712
  20610381.271   -28745132.01349 -22387864.03147  20610381.130    20610385.427
 04  1  7  2 44 30.0000000  0  9G30G21G16G15G29G18G17G26G 6
  24348082.447    -5569620.77749  -4320916.55045  24348082.423    24348087.947
  20720812.983   -28379237.38349 -22092515.64948  20720812.490    20720815.381
  23074956.205   -13397233.61949 -10398501.99846  23074955.901    23074959.458
  23213904.816   -12718815.70149  -9888381.18646  23213904.069    23213909.923
  23048133.376   -11386778.01549  -8480918.42046  23048133.260    23048137.380
  21062610.553   -24718017.51249 -17498584.96047  21062610.178    21062613.842
  23997452.550    -8536370.51449  -6638111.83245  23997451.869    23997457.086
  21978706.704   -12609141.40749  -9804900.26846  21978706.848    21978711.015
  20617686.464   -28706742.67049 -22357950.24547  20617686.343    20617690.656
 04  1  7  2 45  0.0000000  0  9G30G21G16G15G29G18G17G26G 6
  24367878.686    -5465591.26049  -4239854.61445  24367878.559    24367884.237
  20717319.485   -28397595.60749 -22106820.74048  20717318.998    20717321.878
  23070367.729   -13421346.19449 -10417290.99546  23070367.427    23070370.905
  23200141.525   -12791141.78949  -9944739.09046  23200140.807    23200146.526
  23051237.556   -11370465.29249  -8468207.19146  23051237.430    23051241.575
  21051588.755   -24775937.28549 -17543717.21847  21051588.409    21051592.065
  24011006.471    -8465143.90449  -6582610.57245  24011005.867    24011011.142
  21974607.708   -12630681.72449  -9821684.89346  21974607.826    21974612.003
  20625079.171   -28667893.84349 -22327678.43247  20625079.025    20625083.287
 04  1  7  2 45 30.0000000  0  9G30G21G16G15G29G18G17G26G 6
  24387661.453    -5361630.86149  -4158846.53645  24387661.463    24387667.262
  20713864.593   -28415751.24249 -22120967.97348  20713864.080    20713866.961
  23065883.687   -13444910.02949 -10435652.41046  23065883.372    23065886.918
  23186395.509   -12863376.66049 -10001025.92646  23186394.843    23186400.500
  23054445.164   -11353609.36249  -8455072.67046  23054444.990    23054449.105
  21040648.892   -24833426.67049 -17588514.10247  21040648.512    21040652.139
  24024570.303    -8393864.60249  -6527068.24745  24024569.726    24024575.157
  21970626.574   -12651602.38649  -9837986.67746  21970626.752    21970630.926
  20632559.242   -28628585.62449 -22297048.64347  20632559.107    20632563.388
 04  1  7  2 46  0.0000000  0  9G30G21G16G15G29G18G17G26G 6
  24407430.496    -5257741.73549  -4077894.00245  24407430.739    24407436.720
  20710448.211   -28433704.38449 -22134957.41648  20710447.695    20710450.582
  23061504.150   -13467924.03649 -10453585.36946  23061503.813    23061507.476
  23172667.017   -12935520.02349 -10057241.44846  23172666.427    23172671.971
  23057756.132   -11336210.00949  -8441514.71946  23057755.958    23057760.049
  21029791.145   -24890484.32349 -17632974.57947  21029790.809    21029794.401
  24038144.201    -8322532.13749  -6471484.49645  24038143.779    24038149.371
  21966763.771   -12671901.30449  -9853803.98646  21966763.926    21966768.153
  20640126.803   -28588817.73649 -22266060.67547  20640126.668    20640130.968
 04  1  7  2 46 30.0000000  0  9G30G21G16G15G29G18G17G26G 6
  24427185.494    -5153927.03749  -3996999.46545  24427185.791    24427192.034
  20707070.436   -28451454.68449 -22148788.80448  20707069.934    20707072.826
  23057229.328   -13490388.40549 -10471090.05646  23057229.003    23057232.583
  23158956.033   -13007572.17449 -10113385.90946  23158955.389    23158960.904
  23061170.338   -11318267.91049  -8427533.84346  23061170.164    23061174.228
  21019015.646   -24947110.17549 -17677098.58247  21019015.249    21019018.826
  24051728.461    -8251146.96949  -6415859.68045  24051728.105    24051733.604
  21963019.460   -12691577.52949  -9869136.08446  21963019.628    21963023.863
  20647781.760   -28548590.97249 -22234715.14147  20647781.578    20647785.851
 04  1  7  2 47  0.0000000  0  9G30G21G16G15G29G18G17G26G 6
  24446925.898    -5050189.46749  -3916165.01745  24446926.425    24446932.636
  20703731.141   -28469002.60749 -22162462.49548  20703730.626    20703733.556
  23053059.042   -13512303.15949 -10488166.46346  23053058.671    23053062.298
  23145262.243   -13079533.46149 -10169459.56746  23145261.590    23145267.183
  23064687.710   -11299783.71949  -8413130.56046  23064687.549    23064691.693
  21008322.337   -25003303.48449 -17720885.54447  21008321.971    21008325.565
  24065322.595    -8179709.71749  -6360194.30945  24065322.234    24065327.539
  21959393.927   -12710629.95549  -9883982.10046  21959394.088    21959398.301
  20655523.829   -28507905.96549 -22203012.53547  20655523.669    20655527.954
 04  1  7  2 47 30.0000000  0  9G30G21G16G15G29G18G17G26G 6
  24466651.118    -4946531.52249  -3835392.63345  24466651.650    24466658.030
  20700430.376   -28486348.07849 -22175978.43148  20700429.871    20700432.806
  23048993.510   -13533667.48249 -10504813.95546  23048993.184    23048996.903
  23131585.654   -13151403.69249 -10225462.27946  23131585.027    23131590.663
  23068308.289   -11280757.41549  -8398304.84846  23068308.203    23068312.315
  20997711.618   -25059063.02249 -17764334.49947  20997711.267    20997714.841
  24078926.563    -8108219.84249  -6304487.90745  24078926.306    24078931.557
  21955887.372   -12729056.92449  -9898340.74746  21955887.516    21955891.688
  20663353.109   -28466762.64349 -22170952.79347  20663352.958    20663357.270
 04  1  7  2 48  0.0000000  0  9G30G21G16G15G29G18G17G26G 6
  24486361.102    -4842955.68049  -3754684.25545  24486361.574    24486367.762
  20697168.144   -28503491.01849 -22189336.55048  20697167.659    20697170.588
  23045032.891   -13554480.96549 -10521032.24046  23045032.536    23045036.204
  23117926.426   -13223182.51449 -10281393.76446  23117925.813    23117931.459
  23072031.965   -11261189.15149  -8383056.84346  23072031.905    23072036.013
  20987183.615   -25114388.11349 -17807444.92847  20987183.245    20987186.802
  24092540.422    -8036677.78849  -6248740.86145  24092540.061    24092545.371
  21952500.103   -12746857.01449  -9912210.91546  21952500.290    21952504.396
  20671269.620   -28425161.27949 -22138536.14547  20671269.458    20671273.744
 04  1  7  2 48 30.0000000  0  9G30G21G16G15G29G18G17G26G 6
  24506054.826    -4739464.76349  -3674042.00645  24506055.520    24506061.413
  20693944.494   -28520431.60049 -22202536.99048  20693943.981    20693946.909
  23041176.931   -13574743.53649 -10536821.24346  23041176.556    23041180.276
  23104284.627   -13294870.10549 -10337254.15346  23104284.037    23104289.573
  23075858.736   -11241079.52249  -8367386.96846  23075858.685    23075862.633
  20976738.312   -25169278.37349 -17850216.52447  20976737.937    20976741.465
  24106164.486    -7965083.43949  -6192953.05545  24106164.079    24106169.368
  21949232.378   -12764029.03449  -9925591.67446  21949232.503    21949236.640
  20679273.160   -28383102.29149 -22105762.90047  20679272.987    20679277.280
 04  1  7  2 49  0.0000000  0  9G30G21G16G15G29G18G17G26G 6
  24525731.901    -4636061.47449  -3593468.03245  24525732.449    24525738.346
  20690759.427   -28537169.27949 -22215579.32148  20690758.906    20690761.826
  23037425.934   -13594455.03549 -10552180.83846  23037425.632    23037429.271
  23090660.333   -13366466.48849 -10393043.48046  23090659.679    23090665.081
  23079788.535   -11220428.69549  -8351295.38046  23079788.465    23079792.229
  20966375.899   -25223732.97849 -17892648.65447  20966375.540    20966379.095
  24119798.564    -7893436.96649  -6137124.64245  24119798.151    24119803.310
  21946084.404   -12780571.78849  -9938482.12046  21946084.532    21946088.636
  20687363.724   -28340586.00849 -22072633.32647  20687363.546    20687367.852
 04  1  7  2 49 30.0000000  0  9G30G21G16G15G29G18G17G26G 6
  24545391.935    -4532748.26949  -3512964.25245  24545392.389    24545398.300
  20687612.835   -28553704.64549 -22228464.00648  20687612.324    20687615.260
  23033779.936   -13613615.30349 -10567110.90246  23033779.617    23033783.215
  23077053.430   -13437971.55849 -10448761.65746  23077052.779    23077058.157
  23083821.164   -11199237.28849  -8334782.56346  23083821.083    23083824.844
  20956096.519   -25277751.16049 -17934740.71147  20956096.177    20956099.753
  24133442.416    -7821738.55049  -6081255.74345  24133442.006    24133447.242
  21943056.347   -12796483.93749  -9950881.16446  21943056.488    21943060.606
  20695541.161   -28297613.06949 -22039147.91347  20695540.985    20695545.298
 04  1  7  2 50  0.0000000  0  9G30G21G16G15G29G18G17G26G 6
  24565034.399    -4429527.31949  -3432532.37645  24565034.620    24565040.609
  20684504.819   -28570037.23449 -22241190.68648  20684504.306    20684507.243
  23030238.758   -13632223.69449 -10581610.92346  23030238.488    23030242.181
  23063463.872   -13509384.87549 -10504408.33246  23063463.276    23063468.777
  23087956.601   -11177505.30949  -8317848.54546  23087956.500    23087960.353
  20945900.421   -25331332.16049 -17976492.10847  20945900.055    20945903.605
  24147095.906    -7749987.90049  -6025346.11245  24147095.514    24147101.067
  21940148.704   -12811763.81749  -9962787.54446  21940148.841    21940152.856
  20703805.561   -28254183.36349 -22005306.58647  20703805.414    20703809.710
 04  1  7  2 50 30.0000000  0  9G30G21G16G15G29G18G17G26G 6
  24584658.843    -4326401.04849  -3352174.27645  24584658.845    24584664.744
  20681435.510   -28586166.47249 -22253758.91048  20681435.020    20681437.913
  23026802.807   -13650279.79949 -10595680.60546  23026802.536    23026806.229
  23049891.825   -13580706.26549 -10559983.38546  23049891.232    23049896.761
  23092194.828   -11155233.19449  -8300493.63746  23092194.657    23092198.638
  20935787.653   -25384474.81149 -18017901.93447  20935787.296    20935790.820
  24160759.286    -7678184.89449  -5969395.70445  24160758.856    24160764.742
  21937361.536   -12826410.14649  -9974200.23946  21937361.681    21937365.763
  20712156.825   -28210297.11249 -21971109.50347  20712156.682    20712161.006
 04  1  7  2 51  0.0000000  0  9G30G21G16G15G29G18G17G26G 6
  24604264.535    -4223371.93349  -3271891.86545  24604264.552    24604270.580
  20678404.892   -28602092.39949 -22266168.70748  20678404.389    20678407.288
  23023471.951   -13667783.59849 -10609319.91146  23023471.642    23023475.345
  23036337.246   -13651935.59649 -10615486.70146  23036336.587    23036342.114
  23096535.759   -11132420.96649  -8282717.86146  23096535.621    23096539.627
  20925758.470   -25437178.39049 -18058969.62847  20925758.119    20925761.631
  24174432.933    -7606329.28049  -5913404.30145  24174432.498    24174438.263
  21934695.200   -12840421.69249  -9985118.30346  21934695.396    21934699.433
  20720594.902   -28165954.63949 -21936556.92447  20720594.771    20720599.106
 04  1  7  2 51 30.0000000  0  9G30G21G16G15G29G18G17G26G 6
  24623851.449    -4120442.40549  -3191687.05445  24623851.582    24623857.329
  20675412.978   -28617814.78149 -22278419.90048  20675412.490    20675415.366
  23020246.202   -13684734.61649 -10622528.47846  23020245.925    23020249.624
  23022800.034   -13723072.76249 -10670918.21146  23022799.498    23022804.938
  23100979.362   -11109069.16149  -8264521.63046  23100979.255    23100983.277
  20915812.991   -25489442.10949 -18099694.57447  20915812.644    20915816.160
  24188116.817    -7534421.10149  -5857371.99545  24188116.474    24188121.751
  21932149.968   -12853797.10849  -9995540.68546  21932150.148    21932154.102
  20729119.772   -28121156.09049 -21901648.96447  20729119.649    20729123.985
 04  1  7  2 52  0.0000000  0  9G30G21G16G15G29G18G17G26G 6
  24643418.967    -4017615.42649  -3111562.14945  24643418.897    24643424.677
  20672459.767   -28633334.07349 -22290512.84048  20672459.264    20672462.151
  23017125.694   -13701133.12749 -10635306.53246  23017125.376    23017129.098
  23009280.685   -13794118.02449 -10726278.10546  23009280.086    23009285.336
  23105525.500   -11085178.61949  -8245905.60446  23105525.428    23105529.461
  20905951.127   -25541266.17449 -18140076.93547  20905950.782    20905954.346
  24201810.596    -7462460.71349  -5801298.96445  24201810.135    24201815.308
  21929725.861   -12866535.66649 -10005466.80446  21929726.057    21929730.028
  20737731.260   -28075902.42549 -21866386.36847  20737731.127    20737735.459
 04  1  7  2 52 30.0000000  0  8G21G16G15G29G18G17G26G 6
  20669545.599   -28648647.92249 -22302445.69748  20669545.132    20669548.007
  23014110.730   -13716976.74749 -10647652.20046  23014110.383    23014114.145
  22995779.300   -13865069.05449 -10781564.56746  22995778.653    22995783.831
  23110174.577   -11060747.68049  -8226868.48446  23110174.539    23110178.486
  20896173.611   -25592647.34249 -18180114.17947  20896173.260    20896176.805
  24215514.515    -7390445.86449  -5745183.50945  24215513.989    24215519.408
  21927423.647   -12878634.00249 -10014894.05746  21927423.801    21927427.734
  20746429.771   -28030191.65849 -21830767.59047  20746429.616    20746433.896
 04  1  7  2 53  0.0000000  0  8G21G16G15G29G18G17G26G 6
  20666670.254   -28663757.92449 -22314219.71148  20666669.762    20666672.650
  23011200.877   -13732267.42249 -10659567.00846  23011200.567    23011204.372
  22982295.238   -13935927.78249 -10836779.12146  22982294.559    22982299.811
  23114926.017   -11035778.85249  -8207412.23646  23114925.900    23114929.893
  20886480.095   -25643587.02949 -18219807.41447  20886479.741    20886483.271
  24229228.315    -7318378.81049  -5689027.34845  24229227.815    24229233.508
  21925243.016   -12890092.94449 -10023823.08546  21925243.180    21925247.170
  20755214.724   -27984026.30649 -21794794.58247  20755214.564    20755218.882
 04  1  7  2 53 30.0000000  0  8G21G16G15G29G18G17G26G 6
  20663833.607   -28678664.62649 -22325835.30948  20663833.126    20663835.978
  23008396.291   -13747005.53249 -10671051.22746  23008396.029    23008399.771
  22968828.498   -14006694.51949 -10891921.99946  22968827.931    22968833.247
  23119779.481   -11010272.89249  -8187537.45546  23119779.390    23119783.499
  20876870.661   -25694084.71549 -18259156.23247  20876870.304    20876873.827
  24242952.168    -7246259.58149  -5632830.53545  24242951.773    24242957.254
  21923184.239   -12900911.89849 -10032253.41146  21923184.386    21923188.326
  20764086.026   -27937407.26149 -21758468.05247  20764085.882    20764090.209
 04  1  7  2 54  0.0000000  0  9G 2G21G16G15G29G18G17G26G 6
  25324851.840    -3865275.70149  -2485029.72445  25324851.320    25324856.851
  20661034.910   -28693371.81949 -22337295.44648  20661034.443    20661037.269
  23005696.068   -13761195.13049 -10682108.03846  23005695.719    23005699.651
  22955378.737   -14077373.38749 -10946996.38946  22955378.172    22955383.447
  23124734.425   -10984234.80649  -8167248.00746  23124734.299    23124738.314
  20867344.591   -25744144.40849 -18298163.75748  20867344.248    20867347.791
  24256685.309    -7174092.59349  -5576596.54445  24256684.866    24256689.918
  21921246.623   -12911094.10949 -10040187.57446  21921246.767    21921250.683
  20773042.780   -27890339.26349 -21721791.68747  20773042.622    20773046.942
 04  1  7  2 54 30.0000000  0  9G 2G21G16G15G29G18G17G26G 6
  25315548.494    -3914165.18249  -2523125.38645  25315547.951    25315553.453
  20658274.805   -28707876.29249 -22348597.62248  20658274.314    20658277.161
  23003100.873   -13774832.48349 -10692734.51946  23003100.595    23003104.523
  22941946.505   -14147960.45549 -11001999.24746  22941945.922    22941951.209
  23129791.264   -10957661.24349  -8146541.31146  23129791.109    23129794.932
  20857902.738   -25793761.51349 -18336826.40547  20857902.395    20857905.903
  24270428.140    -7101873.88849  -5520322.25745  24270427.762    24270432.567
  21919431.089   -12920634.63849 -10047621.73946  21919431.224    21919435.219
  20782085.606   -27842818.89049 -21684762.82347  20782085.452    20782089.741
 04  1  7  2 55  0.0000000  0  9G 2G21G16G15G29G18G17G26G 6
  25306317.827    -3962672.93649  -2560923.58045  25306317.371    25306322.718
  20655553.813   -28722175.13349 -22359739.56448  20655553.318    20655556.177
  23000611.409   -13787915.20349 -10702928.84346  23000611.058    23000614.892
  22928532.051   -14218453.21449 -11056928.63646  22928531.469    22928536.901
  23134950.267   -10930550.30449  -8125415.88646  23134950.157    23134954.001
  20848545.678   -25842933.13649 -18375141.92748  20848545.312    20848548.798
  24284181.114    -7029601.47349  -5464006.09145  24284180.582    24284185.732
  21917738.302   -12929530.16749 -10054553.29846  21917738.436    21917742.411
  20791214.910   -27794844.31849 -21647380.04047  20791214.761    20791219.033
 04  1  7  2 55 30.0000000  0  9G 2G21G16G15G29G18G17G26G 6
  25297159.852    -4010797.99149  -2598423.56845  25297159.362    25297164.855
  20652871.909   -28736268.44249 -22370721.34948  20652871.405    20652874.284
  22998227.299   -13800443.19149 -10712690.88446  22998226.979    22998230.923
  22915135.553   -14288851.74949 -11111784.60046  22915134.972    22915140.405
  23140211.285   -10902903.04349  -8103872.56346  23140211.225    23140215.112
  20839273.402   -25891659.09649 -18413110.18048  20839273.042    20839276.546
  24297944.145    -6957275.27949  -5407647.98445  24297943.734    24297949.088
  21916168.396   -12937780.10749 -10060981.80046  21916168.532    21916172.514
  20800430.441   -27746416.29549 -21609643.91747  20800430.292    20800434.580
 04  1  7  2 56  0.0000000  0  9G 2G21G16G15G29G18G17G26G 6
  25288074.710    -4058540.02749  -2635625.10845  25288074.171    25288079.745
  20650229.057   -28750156.89649 -22381543.50748  20650228.564    20650231.394
  22995948.621   -13812417.71049 -10722021.66246  22995948.336    22995952.177
  22901756.988   -14359156.84249 -11166567.73146  22901756.414    22901761.678
  23145574.205   -10874720.82749  -8081912.37346  23145574.162    23145578.001
  20830085.914   -25939939.39549 -18450731.16648  20830085.562    20830089.087
  24311717.377    -6884896.15249  -5351248.64545  24311716.939    24311722.461
  21914721.370   -12945384.13149 -10066906.99446  21914721.524    21914725.510
  20809732.049   -27697535.96949 -21571555.34547  20809731.882    20809736.223
 04  1  7  2 56 30.0000000  0  9G 2G21G16G15G29G18G17G26G 6
  25279062.852    -4105898.17349  -2672527.53845  25279062.219    25279067.740
  20647625.153   -28763840.48849 -22392206.03648  20647624.637    20647627.454
  22993775.370   -13823838.82949 -10730921.23346  22993775.031    22993778.822
  22888396.192   -14429368.47449 -11221278.04946  22888395.593    22888400.821
  23151038.803   -10846004.57549  -8059536.05346  23151038.700    23151042.498
  20820983.265   -25987773.92549 -18488004.80148  20820982.944    20820986.440
  24325500.827    -6812464.19649  -5294808.18145  24325500.396    24325506.033
  21913397.376   -12952341.65949 -10072328.42546  21913397.531    21913401.524
  20819119.533   -27648204.36149 -21533115.13547  20819119.384    20819123.710
 04  1  7  2 57  0.0000000  0  9G 2G21G16G15G29G18G17G26G 6
  25270124.042    -4152871.95449  -2709130.44845  25270123.278    25270128.651
  20645060.005   -28777320.34149 -22402709.80648  20645059.503    20645062.317
  22991707.100   -13834707.26149 -10739390.11346  22991706.772    22991710.657
  22875052.952   -14499487.02049 -11275915.84046  22875052.331    22875057.738
  23156604.712   -10816755.39949  -8036744.45846  23156604.606    23156608.441
  20811965.466   -26035162.85149 -18524931.20948  20811965.106    20811968.574
  24339294.262    -6739980.10849  -5238327.08745  24339293.608    24339299.168
  21912196.455   -12958652.57549 -10077246.00446  21912196.602    21912200.593
  20828592.691   -27598422.53649 -21494324.10447  20828592.545    20828596.837
 04  1  7  2 57 30.0000000  0  9G 2G21G16G15G29G18G17G26G 6
  25261258.601    -4199459.88849  -2745432.69645  25261257.786    25261263.233
  20642533.840   -28790595.27849 -22413053.89648  20642533.371    20642536.184
  22989744.168   -13845023.09049 -10747428.42046  22989743.882    22989747.578
  22861727.476   -14569512.20649 -11330480.88346  22861726.886    22861732.431
  23162271.870   -10786973.90349  -8013538.09546  23162271.763    23162275.610
  20803032.526   -26082105.43049 -18561509.81748  20803032.191    20803035.694
  24353097.428    -6667443.48149  -5181805.02545  24353096.803    24353102.276
  21911118.871   -12964315.56549 -10081658.69546  21911119.008    21911122.984
  20838151.482   -27548190.89349 -21455182.56247  20838151.328    20838155.643
 04  1  7  2 58  0.0000000  0  9G 2G21G16G15G29G18G17G26G 6
  25252466.853    -4245660.45849  -2781433.11345  25252465.882    25252471.566
  20640046.900   -28803664.28449 -22423237.53048  20640046.423    20640049.206
  22987886.356   -13854785.89949 -10755035.78946  22987885.998    22987889.713
  22848420.070   -14639443.54749 -11384972.78946  22848419.448    22848424.923
  23168040.343   -10756660.49349  -7989917.23846  23168040.239    23168044.032
  20794184.773   -26128600.73349 -18597739.90048  20794184.416    20794187.945
  24366910.768    -6594854.18949  -5125241.94545  24366910.238    24366915.606
  21910164.654   -12969329.74249 -10085565.82546  21910164.789    21910168.771
  20847795.772   -27497509.70749 -21415690.72947  20847795.641    20847799.965
 04  1  7  2 58 30.0000000  0  8G 2G21G16G15G29G18G26G 6
  25243749.216    -4291471.70349  -2817130.14545  25243748.286    25243753.986
  20637599.212   -28816526.83249 -22433260.28248  20637598.738    20637601.524
  22986133.816   -13863994.80049 -10762211.52946  22986133.560    22986137.272
  22835130.688   -14709279.84449 -11439390.64246  22835130.049    22835135.422
  23173910.115   -10725814.89049  -7965881.67646  23173909.996    23173913.744
  20785422.388   -26174647.33749 -18633620.34548  20785422.042    20785425.530
  21909334.282   -12973693.18849 -10088965.90246  21909334.444    21909338.394
  20857525.742   -27446378.44449 -21375848.18747  20857525.586    20857529.895
 04  1  7  2 59  0.0000000  0  8G 2G21G16G15G29G18G26G 6
  25235105.625    -4336893.95449  -2852524.07245  25235104.810    25235110.380
  20635190.527   -28829184.63349 -22443123.49548  20635190.055    20635192.809
  22984486.657   -13872651.46949 -10768956.98146  22984486.321    22984489.999
  22821859.026   -14779022.30549 -11493735.36946  22821858.407    22821863.785
  23179880.744   -10694439.38049  -7941433.21246  23179880.583    23179884.278
  20776745.228   -26220246.01049 -18669151.75748  20776744.869    20776748.334
  21908627.711   -12977406.42949 -10091859.32046  21908627.863    21908631.714
  20867340.983   -27394799.17049 -21335656.54447  20867340.830    20867345.105
 04  1  7  2 59 30.0000000  0  8G 2G21G16G15G29G18G26G 6
  25226536.177    -4381926.42749  -2887614.26945  25226535.214    25226540.807
  20632820.880   -28841637.19149 -22452826.77648  20632820.386    20632823.167
  22982944.248   -13880756.27849 -10775272.40046  22982943.929    22982947.676
  22808605.208   -14848671.22249 -11548007.21346  22808604.631    22808610.051
  23185951.953   -10662534.63349  -7916572.36346  23185951.819    23185955.574
  20768153.345   -26265396.58249 -18704333.99748  20768153.017    20768156.451
  21908044.880   -12980469.01149 -10094245.73146  21908045.036    21908048.875
  20877241.322   -27342772.58049 -21295116.34947  20877241.157    20877245.401
 04  1  7  3  0  0.0000000  0  8G 2G21G16G15G29G18G26G 6
  25218041.070    -4426567.77949  -2922399.67645  25218039.724    25218046.360
  20630490.356   -28853884.15849 -22462369.85648  20630489.869    20630492.652
  22981506.979   -13888309.19649 -10781157.78546  22981506.674    22981510.335
  22795369.427   -14918226.20849 -11602205.86446  22795368.795    22795374.195
  23192123.695   -10630101.39949  -7891299.69846  23192123.587    23192127.398
  20759646.898   -26310098.45249 -18739166.60248  20759646.546    20759649.962
  21907586.024   -12982880.13449 -10096124.51446  21907586.174    21907590.085
  20887226.658   -27290299.07249 -21254227.90247  20887226.494    20887230.778
 04  1  7  3  0 30.0000000  0  8G 2G21G16G15G29G18G26G 6
  25209620.675    -4470817.07149  -2956879.63945  25209619.414    25209625.553
  20628198.989   -28865925.45649 -22471752.68048  20628198.495    20628201.250
  22980174.747   -13895310.60549 -10786613.41846  22980174.446    22980178.065
  22782151.517   -14987686.99149 -11656331.10346  22782150.855    22782156.185
  23198395.898   -10597140.60749  -7865615.95346  23198395.755    23198399.558
  20751225.854   -26354351.30549 -18773649.32148  20751225.495    20751228.879
  21907251.278   -12984639.17149 -10097495.17946  21907251.415    21907255.406
  20897296.907   -27237379.51349 -21212991.88047  20897296.772    20897301.039
 04  1  7  3  1  0.0000000  0  8G 2G21G16G15G29G18G26G 6
  25201275.157    -4514673.19249  -2991053.18145  25201273.800    25201280.168
  20625946.798   -28877760.67649 -22480974.91648  20625946.315    20625949.085
  22978947.254   -13901760.53749 -10791639.32246  22978946.946    22978950.625
  22768951.463   -15057053.40049 -11710382.81546  22768950.784    22768956.105
  23204768.385   -10563652.98349  -7839521.68446  23204768.243    23204772.041
  20742890.332   -26398154.64149 -18807781.76948  20742889.976    20742893.299
  21907040.790   -12985745.42849 -10098357.17246  21907040.901    21907044.815
  20907451.991   -27184014.50249 -21171408.76447  20907451.812    20907456.062
 04  1  7  3  1 30.0000000  0  8G 2G21G16G15G29G18G26G 6
  25193004.617    -4558135.17049  -3024919.66145  25193003.386    25193009.794
  20623733.864   -28889389.62649 -22490036.42348  20623733.386    20623736.154
  22977824.728   -13907659.19649 -10796235.67746  22977824.503    22977828.106
  22755769.362   -15126325.11149 -11764360.74346  22755768.749    22755774.090
  23211241.004   -10529639.27649  -7813017.48446  23211240.893    23211244.733
  20734640.467   -26441508.03449 -18841563.61148  20734640.117    20734643.406
  21906954.528   -12986198.15149 -10098709.92546  21906954.671    21906958.653
  20917691.635   -27130204.74849 -21129479.08647  20917691.464    20917695.756
 04  1  7  3  2  0.0000000  0  8G 2G21G16G15G29G18G26G 6
  25184809.246    -4601201.77949  -3058478.03045  25184808.159    25184814.202
  20621560.212   -28900812.23549 -22498937.14548  20621559.731    20621562.471
  22976807.203   -13913006.98749 -10800402.77246  22976806.848    22976810.508
  22742605.399   -15195502.19749 -11818264.93346  22742604.782    22742610.180
  23217813.520   -10495100.46349  -7786104.11246  23217813.423    23217817.268
  20726476.313   -26484411.09149 -18874994.54048  20726475.949    20726479.248
  21906992.797   -12985996.85749 -10098553.06146  21906992.974    21906996.953
  20928015.747   -27075951.00549 -21087203.44147  20928015.576    20928019.879
 04  1  7  3  2 30.0000000  0  8G 2G21G16G15G29G18G26G 6
  25176689.318    -4643872.33749  -3091727.78145  25176688.191    25176694.102
  20619425.864   -28912028.32849 -22507676.94948  20619425.359    20619428.096
  22975894.127   -13917804.36449 -10804140.96546  22975893.810    22975897.533
  22729459.544   -15264584.34349 -11872095.13546  22729458.903    22729464.251
  23224485.688   -10460037.59149  -7758782.39546  23224485.613    23224489.526
  20718397.798   -26526863.69149 -18908074.47048  20718397.422    20718400.760
  21907155.641   -12985141.08349 -10097886.20346  21907155.842    21907159.820
  20938424.226   -27021254.00049 -21044582.40847  20938424.071    20938428.351
 04  1  7  3  3  0.0000000  0  8G 2G21G16G15G29G18G26G 6
  25168644.946    -4686145.76149  -3124668.07845  25168643.880    25168649.622
  20617330.815   -28923037.57749 -22516255.57748  20617330.349    20617333.075
  22975086.018   -13922051.73449 -10807450.61446  22975085.649    22975089.223
  22716331.788   -15333571.50249 -11925851.33246  22716331.131    22716336.378
  23231257.446   -10424451.57749  -7731053.02046  23231257.345    23231261.225
  20710405.082   -26568865.41749 -18940803.07148  20710404.725    20710408.072
  21907443.092   -12983630.57249 -10096709.17046  21907443.293    21907447.253
  20948916.916   -26966114.46749 -21001616.53947  20948916.767    20948921.058
 04  1  7  3  3 30.0000000  0  8G 2G21G16G15G29G18G26G 6
  25160676.291    -4728021.45149  -3157298.45745  25160675.207    25160681.099
  20615275.132   -28933840.10949 -22524673.11748  20615274.662    20615277.420
  22974382.205   -13925749.89449 -10810332.27746  22974381.817    22974385.511
  22703222.024   -15402463.69549 -11979533.51546  22703221.317    22703226.467
  23238128.555   -10388343.63449  -7702916.93146  23238128.438    23238132.236
  20702498.225   -26610416.21949 -18973180.29548  20702497.889    20702501.184
  21907855.174   -12981465.05049 -10095021.73346  21907855.367    21907859.337
  20959493.627   -26910533.51049 -20958306.70547  20959493.465    20959497.788
 04  1  7  3  4  0.0000000  0  8G 2G21G16G15G29G18G26G 6
  25152783.662    -4769497.67949  -3189617.56745  25152782.661    25152788.401
  20613259.004   -28944434.91549 -22532928.80448  20613258.528    20613261.274
  22973782.998   -13928898.30749 -10812785.56646  22973782.711    22973786.449
  22690130.495   -15471259.94849 -12033140.95646  22690129.830    22690134.898
  23245098.894   -10351714.08849  -7674374.41146  23245098.753    23245102.635
  20694677.370   -26651515.08649 -19005205.36848  20694676.983    20694680.349
  21908392.159   -12978643.13249 -10092822.81946  21908392.296    21908396.277
  20970154.291   -26854511.07949 -20914652.86847  20970154.164    20970158.517
 04  1  7  3  4 30.0000000  0  8G 2G21G16G15G29G18G26G 6
  25144967.042    -4810573.91449  -3221624.99745  25144965.982    25144971.920
  20611282.349   -28954822.28049 -22541022.84648  20611281.857    20611284.610
  22973288.489   -13931497.76449 -10814811.11446  22973288.124    22973291.762
  22677057.208   -15539960.32849 -12086673.68646  22677056.551    22677061.644
  23252168.346   -10314564.05249  -7645426.33446  23252168.179    23252172.120
  20686942.416   -26692162.06349 -19036878.32248  20686942.078    20686945.471
  21909054.013   -12975164.89649 -10090112.49846  21909054.157    21909058.085
  20980898.769   -26798048.41449 -20870655.99047  20980898.656    20980902.965
 04  1  7  3  5  0.0000000  0  8G 2G21G16G15G29G18G26G 6
  25137226.671    -4851249.58649  -3253320.30545  25137225.711    25137231.447
  20609345.201   -28965002.09549 -22548955.15948  20609344.698    20609347.464
  22972898.010   -13933549.17249 -10816409.60246  22972897.614    22972901.368
  22664002.141   -15608565.10649 -12140131.92846  22664001.488    22664006.611
  23259336.465   -10276895.01149  -7616073.83246  23259336.327    23259340.328
  20679293.566   -26732357.19049 -19068199.17848  20679293.223    20679296.569
  21909840.784   -12971030.31049 -10086890.72546  21909840.943    21909844.821
  20991726.903   -26741146.47949 -20826316.82847  20991726.770    20991731.070
 04  1  7  3  5 30.0000000  0  8G 2G21G16G15G29G18G26G 6
  25129562.836    -4891523.24449  -3284702.36145  25129561.936    25129567.609
  20607447.601   -28974973.94349 -22556725.42548  20607447.111    20607449.902
  22972611.985   -13935052.50149 -10817581.01246  22972611.622    22972615.314
  22650965.336   -15677073.85349 -12193515.33446  22650964.684    22650969.767
  23266603.286   -10238707.54149  -7586317.34746  23266603.185    23266607.135
  20671730.823   -26772099.52449 -19099167.20948  20671730.469    20671733.812
  21910752.676   -12966238.50049 -10083156.82546  21910752.821    21910756.738
  21002638.470   -26683805.80749 -20781635.78747  21002638.336    21002642.648
 04  1  7  3  6  0.0000000  0  8G 2G21G16G15G29G18G26G 6
  25121975.536    -4931394.39649  -3315770.76845  25121974.589    25121980.336
  20605589.499   -28984738.17949 -22564333.91048  20605589.027    20605591.828
  22972430.144   -13936008.81549 -10818326.18446  22972429.668    22972433.373
  22637946.733   -15745486.84449 -12246824.13146  22637946.056    22637951.107
  23273968.477   -10200003.40249  -7556158.25746  23273968.397    23273972.195
  20664254.082   -26811389.86749 -19129783.04548  20664253.725    20664257.068
  21911789.541   -12960789.93049 -10078911.16946  21911789.633    21911793.516
  21013633.244   -26626027.79649 -20736613.96947  21013633.115    21013637.441
 04  1  7  3  6 30.0000000  0  8G 2G21G16G15G29G18G26G 6
  25114465.155    -4970861.81749  -3346524.57845  25114464.338    25114469.809
  20603771.163   -28994293.72849 -22571779.78548  20603770.686    20603773.437
  22972351.958   -13936418.17149 -10818645.14746  22972351.642    22972355.448
  22624946.460   -15813803.30049 -12300057.70546  22624945.786    22624950.812
  23281431.890   -10160783.05749  -7525596.93946  23281431.800    23281435.537
  20656863.567   -26850227.32549 -19160045.97948  20656863.221    20656866.552
  21912951.475   -12954683.64749 -10074153.01346  21912951.589    21912955.487
  21024711.143   -26567812.91349 -20691251.72247  21024711.025    21024715.383
 04  1  7  3  7  0.0000000  0  8G 2G21G16G15G29G18G26G 6
  25107031.677    -5009924.61049  -3376963.09745  25107030.754    25107036.410
  20601992.526   -29003640.49349 -22579062.96848  20601992.018    20601994.773
  22972378.239   -13936280.97749 -10818538.24146  22972377.894    22972381.584
  22611964.620   -15882022.59449 -12353215.56846  22611963.963    22611969.061
  23288993.276   -10121047.35349  -7494634.03146  23288993.215    23288996.978
  20649559.313   -26888611.49649 -19189955.70548  20649558.958    20649562.295
  21914238.681   -12947919.24249 -10068882.03746  21914238.798    21914242.714
  21035872.120   -26509161.73449 -20645549.51347  21035871.989    21035876.340
 04  1  7  3  7 30.0000000  0  8G 2G21G16G15G29G18G26G 6
  25099675.227    -5048582.75949  -3407086.29645  25099674.357    25099679.918
  20600253.530   -29012778.74749 -22586183.67548  20600253.052    20600255.839
  22972508.126   -13935598.72449 -10818006.60446  22972507.724    22972511.438
  22599001.288   -15950145.41649 -12406298.26746  22599000.607    22599005.792
  23296652.410   -10080798.43549  -7463271.21646  23296652.353    23296656.074
  20642341.113   -26926543.22349 -19219512.87648  20642340.765    20642344.101
  21915651.016   -12940497.55749 -10063098.88546  21915651.091    21915654.973
  21047115.768   -26450076.04449 -20599508.72047  21047115.635    21047119.951
 04  1  7  3  8  0.0000000  0  8G 2G21G16G15G29G18G26G 6
  25092396.113    -5086834.87249  -3436893.12145  25092395.336    25092400.693
  20598554.374   -29021707.72949 -22593141.31848  20598553.888    20598556.678
  22972741.583   -13934371.32749 -10817050.18546  22972741.222    22972744.867
  22586056.364   -16018171.22649 -12459305.37246  22586055.689    22586060.949
  23304409.054   -10040036.76749  -7431508.87546  23304409.013    23304412.769
  20635209.171   -26964021.82849 -19248716.96748  20635208.832    20635212.129
  21917188.556   -12932417.66049 -10056802.84946  21917188.626    21917192.519
  21058442.013   -26390556.29049 -20553129.70147  21058441.864    21058446.170
 04  1  7  3  8 30.0000000  0  8G 2G21G16G15G29G18G26G 6
  25085194.367    -5124680.12749  -3466382.93145  25085193.502    25085198.781
  20596895.071   -29030427.18449 -22599935.68748  20596894.587    20596897.383
  22973078.818   -13932599.45549 -10815669.50346  22973078.389    22973082.106
  22573130.026   -16086099.83449 -12512236.73246  22573129.368    22573134.586
  23312263.094    -9998763.47449  -7399347.86846  23312263.086    23312266.843
  20628163.594   -27001046.81049 -19277567.58348  20628163.220    20628166.517
  21918851.345   -12923679.36749 -10049993.77646  21918851.445    21918855.375
  21069850.707   -26330603.18049 -20506412.99547  21069850.566    21069854.879
 04  1  7  3  9  0.0000000  0  8G 2G21G16G15G29G18G26G 6
  25078070.049    -5162118.17849  -3495555.41345  25078069.364    25078074.583
  20595275.663   -29038937.25049 -22606566.90048  20595275.178    20595278.002
  22973519.235   -13930284.05749 -10813865.27746  22973518.894    22973522.760
  22560222.218   -16153931.00849 -12565092.17646  22560221.543    22560226.622
  23320214.325    -9956979.99649  -7366789.29246  23320214.232    23320218.004
  20621204.201   -27037618.36649 -19306064.88448  20621203.848    20621207.159
  21920639.471   -12914282.95849 -10042671.88046  21920639.557    21920643.398
  21081341.608   -26270217.95549 -20459359.58047  21081341.471    21081345.826
 04  1  7  3  9 30.0000000  0  8G 2G21G16G15G29G18G26G 6
  25071023.513    -5199147.69549  -3524409.56045  25071022.852    25071028.283
  20593696.251   -29047237.18549 -22613034.37348  20593695.781    20593698.573
  22974063.239   -13927425.35949 -10811637.71846  22974062.917    22974066.689
  22547333.002   -16221664.05049 -12617871.14146  22547332.317    22547337.366
  23328262.363    -9914687.18449  -7333833.83046  23328262.330    23328266.001
  20614331.203   -27073736.07849 -19334208.53648  20614330.846    20614334.135
  21922552.874   -12904227.77349 -10034836.66346  21922552.962    21922556.845
  21092914.726   -26209401.02349 -20411969.76547  21092914.569    21092918.921
 04  1  7  3 10  0.0000000  0  8G 2G21G16G15G29G18G26G 6
  25064054.787    -5235768.51649  -3552945.25845  25064054.037    25064059.314
  20592156.784   -29055327.26449 -22619338.32248  20592156.317    20592159.070
  22974710.410   -13924024.61949 -10808987.79546  22974710.089    22974713.750
  22534462.355   -16289299.22349 -12670573.85246  22534461.697    22534466.822
  23336406.982    -9871886.73449  -7300482.81646  23336406.922    23336410.570
  20607544.484   -27109400.40749 -19361998.90748  20607544.124    20607547.431
  21924591.503   -12893514.36349 -10026488.53046  21924591.611    21924595.518
  21104569.712   -26148153.91849 -20364244.75747  21104569.540    21104573.871
 04  1  7  3 10 30.0000000  0  8G 2G21G16G15G29G18G26G 6
  25057164.029    -5271979.51149  -3581161.58445  25057163.217    25057168.740
  20590657.360   -29063206.71949 -22625478.14948  20590656.895    20590659.626
  22975460.647   -13920082.16049 -10805915.74046  22975460.320    22975464.025
  22521610.416   -16356836.06049 -12723199.94046  22521609.794    22521614.976
  23344647.992    -9828579.68049  -7266737.05746  23344647.937    23344651.652
  20600844.206   -27144610.58149 -19389435.38848  20600843.853    20600847.156
  21926755.456   -12882142.35349 -10017627.21446  21926755.583    21926759.536
  21116306.357   -26086477.51049 -20316185.22347  21116306.175    21116310.525
 04  1  7  3 11  0.0000000  0  8G 2G21G16G15G29G18G26G 6
  25050351.382    -5307779.92349  -3609057.98845  25050350.673    25050356.109
  20589198.062   -29070875.33149 -22631453.68448  20589197.585    20589200.311
  22976313.763   -13915598.86349 -10802422.25746  22976313.439    22976317.149
  22508777.350   -16424274.38849 -12775749.26046  22508776.718    22508781.876
  23352985.197    -9784767.15049  -7232597.42046  23352985.145    23352988.921
  20594230.276   -27179366.79749 -19416518.14048  20594229.921    20594233.245
  21929044.793   -12870111.94649 -10008252.86646  21929044.898    21929048.803
  21128124.469   -26024372.80349 -20267791.95447  21128124.304    21128128.611
 04  1  7  3 11 30.0000000  0  8G 2G21G16G15G29G18G26G 6
  25043617.085    -5343169.37949  -3636634.19445  25043616.315    25043621.735
  20587778.867   -29078333.30949 -22637265.08848  20587778.398    20587781.127
  22977269.729   -13910575.62149 -10798508.04846  22977269.397    22977272.989
  22495963.097   -16491614.22849 -12828221.83746  22495962.459    22495967.540
  23361418.386    -9740450.80349  -7198065.19446  23361418.326    23361422.114
  20587702.628   -27213669.59749 -19443247.58048  20587702.280    20587705.574
  21931459.364   -12857423.34149  -9998365.62846  21931459.447    21931463.417
  21140023.887   -25961841.10249 -20219065.96347  21140023.716    21140028.013
 04  1  7  3 12  0.0000000  0  8G 2G21G16G15G29G18G26G 6
  25036960.961    -5378147.46749  -3663889.81645  25036960.223    25036965.648
  20586399.764   -29085580.44049 -22642912.19848  20586399.292    20586402.025
  22978328.057   -13905013.62049 -10794174.01546  22978327.705    22978331.347
  22483167.543   -16558855.53249 -12880617.62946  22483166.877    22483171.905
  23369947.099    -9695632.06949  -7163141.49646  23369947.053    23369950.822
  20581261.350   -27247518.81749 -19469623.57848  20581261.000    20581264.292
  21933999.123   -12844076.69549  -9987965.62646  21933999.228    21934003.242
  21152004.304   -25898883.53349 -20170008.12147  21152004.142    21152008.474
 04  1  7  3 12 30.0000000  0  8G 2G21G16G15G29G18G26G 6
  25030383.248    -5412712.83049  -3690823.83245  25030382.528    25030388.107
  20585060.990   -29092615.63349 -22648394.16248  20585060.539    20585063.297
  22979488.936   -13898912.83049 -10789420.15446  22979488.621    22979492.359
  22470390.796   -16625997.38749 -12932935.93546  22470390.133    22470395.202
  23378571.158    -9650311.47449  -7127826.75246  23378571.212    23378575.014
  20574906.495   -27280913.56049 -19495645.44548  20574906.139    20574909.461
  21936664.197   -12830071.53549  -9977052.51046  21936664.303    21936668.320
  21164065.660   -25835500.61149 -20120618.83847  21164065.542    21164069.884
 04  1  7  3 13  0.0000000  0  8G 2G21G16G15G29G18G26G 6
  25023884.239    -5446864.71949  -3717435.66745  25023883.636    25023889.117
  20583762.662   -29099438.43349 -22653710.62148  20583762.188    20583764.962
  22980752.242   -13892274.40249 -10784247.34346  22980751.916    22980755.677
  22457632.955   -16693039.79149 -12985176.74246  22457632.335    22457637.379
  23387290.569    -9604490.59649  -7092122.16846  23387290.616    23387294.406
  20568638.147   -27313853.77949 -19521313.12948  20568637.808    20568641.131
  21939454.457   -12815408.13249  -9965626.47646  21939454.601    21939458.597
  21176207.838   -25771693.33449 -20070898.88447  21176207.676    21176211.971
 04  1  7  3 13 30.0000000  0  8G 2G21G16G15G29G18G26G 6
  25017464.998    -5480598.67849  -3743721.85845  25017464.350    25017469.759
  20582505.412   -29106045.26149 -22658858.79348  20582504.958    20582507.735
  22982118.451   -13885095.04049 -10778653.05246  22982118.140    22982121.699
  22444894.986   -16759978.34149 -13037336.62546  22444894.323    22444899.396
  23396105.752    -9558166.97049  -7056025.82446  23396105.793    23396109.555
  20562456.995   -27346335.96049 -19546623.90748  20562456.658    20562459.979
  21942370.840   -12800082.71549  -9953684.58046  21942370.973    21942374.911
  21188431.205   -25707458.84449 -20020846.04847  21188431.074    21188435.351
 04  1  7  3 14  0.0000000  0  8G 2G21G16G15G29G18G26G 6
  25011124.232    -5513919.61149  -3769686.19345  25011123.530    25011128.915
  20581288.319   -29112441.01149 -22663842.48248  20581287.861    20581290.648
  22983586.287   -13877381.46249 -10772642.45446  22983585.984    22983589.688
  22432175.794   -16826818.36649 -13089419.72046  22432175.148    22432180.198
  23405015.279    -9511347.40149  -7019543.02646  23405015.295    23405018.995
  20556361.844   -27378365.89649 -19571582.28148  20556361.497    20556364.840
  21945412.097   -12784101.03949  -9941231.30846  21945412.207    21945416.150
  21200734.628   -25642803.83349 -19970465.52547  21200734.507    21200738.817
 04  1  7  3 14 30.0000000  0  8G 2G21G16G15G29G18G26G 6
  25004862.135    -5546826.85949  -3795328.20545  25004861.455    25004866.845
  20580111.529   -29118625.20049 -22668661.32948  20580111.056    20580113.810
  22985155.721   -13869134.23949 -10766216.03446  22985155.428    22985159.227
  22419475.370   -16893559.39849 -13141425.69746  22419474.721    22419479.813
  23414018.819    -9464033.16649  -6982674.78746  23414018.802    23414022.622
  20550352.843   -27409943.35849 -19596188.08448  20550352.507    20550355.845
  21948578.088   -12767463.17649  -9928266.73646  21948578.215    21948582.171
  21213117.963   -25577729.23849 -19919758.05947  21213117.804    21213122.167
 04  1  7  3 15  0.0000000  0  8G 2G21G16G15G29G18G26G 6
  24998678.982    -5579319.17449  -3820646.88845  24998678.275    24998683.824
  20578975.136   -29124597.00049 -22673314.67148  20578974.662    20578977.415
  22986826.504   -13860353.82449 -10759374.15246  22986826.212    22986829.832
  22406793.935   -16960200.64349 -13193353.90946  22406793.270    22406798.425
  23423116.327    -9416225.16649  -6945421.80246  23423116.334    23423120.216
  20544430.091   -27441067.78349 -19620440.86848  20544429.737    20544433.061
  21951869.130   -12750168.79249  -9914790.58046  21951869.237    21951873.214
  21225580.936   -25512235.66949 -19868724.11247  21225580.796    21225585.170
 04  1  7  3 15 30.0000000  0  8G 2G21G16G15G29G18G26G 6
  24992575.043    -5611395.62749  -3845641.51945  24992574.371    24992580.010
  20577879.216   -29130356.07249 -22677802.25248  20577878.751    20577881.495
  22988598.760   -13851040.97549 -10752117.39146  22988598.434    22988601.949
  22394131.565   -17026741.55349 -13245203.93846  22394130.946    22394136.060
  23432307.644    -9367924.46949  -6907784.90446  23432307.561    23432311.483
  20538593.560   -27471738.76049 -19644340.31548  20538593.208    20538596.544
  21955285.031   -12732218.15949  -9900803.07346  21955285.112    21955289.075
  21238123.531   -25446324.11249 -19817364.46647  21238123.393    21238127.710
 04  1  7  3 16  0.0000000  0  8G 2G21G16G15G29G18G26G 6
  24986550.210    -5643055.67149  -3870311.67545  24986549.472    24986555.167
  20576823.919   -29135901.76349 -22682123.56348  20576823.442    20576826.153
  22990472.080   -13841196.65749 -10744446.47346  22990471.738    22990475.490
  22381488.487   -17093181.64649 -13296975.39946  22381487.848    22381492.843
  23441592.360    -9319132.60449  -6869765.24945  23441592.263    23441596.297
  20532843.277   -27501956.57149 -19667886.64748  20532842.939    20532846.256
  21958825.806   -12713611.29149  -9886304.19746  21958825.901    21958829.808
  21250745.407   -25379995.61849 -19765679.93747  21250745.295    21250749.616
 04  1  7  3 16 30.0000000  0  8G 2G21G16G15G29G18G26G 6
  24980604.860    -5674298.44249  -3894656.66645  24980604.217    24980609.796
  20575809.342   -29141233.44349 -22686278.11448  20575808.844    20575811.565
  22992446.310   -13830821.73149 -10736362.12146  22992446.001    22992449.685
  22368864.630   -17159520.44949 -13348667.94546  22368863.968    22368868.898
  23450970.425    -9269850.58049  -6831363.67046  23450970.361    23450974.259
  20527179.367   -27531720.82149 -19691079.55548  20527179.010    20527182.309
  21962491.379   -12694348.40349  -9871294.14946  21962491.473    21962495.385
  21263446.505   -25313251.12549 -19713671.24947  21263446.382    21263450.708
 04  1  7  3 17  0.0000000  0  8G 2G21G16G15G29G18G26G 6
  24974739.051    -5705123.72149  -3918676.36545  24974738.419    24974744.068
  20574835.491   -29146351.08749 -22690265.88148  20574834.988    20574837.702
  22994521.459   -13819917.00149 -10727864.94646  22994521.124    22994524.596
  22356259.932   -17225757.90249 -13400281.50846  22356259.294    22356264.315
  23460441.524    -9220080.16249  -6792581.50446  23460441.395    23460445.225
  20521601.657   -27561031.68349 -19713919.17148  20521601.301    20521604.627
  21966281.699   -12674429.98249  -9855773.29046  21966281.800    21966285.742
  21276226.484   -25246091.87349 -19661339.36547  21276226.345    21276230.690
 04  1  7  3 17 30.0000000  0  8G 2G21G16G15G29G18G26G 6
  24968952.778    -5735530.76449  -3942370.14245  24968952.174    24968957.878
  20573902.501   -29151253.92249 -22694086.26848  20573902.024    20573904.726
  22996697.117   -13808483.47749 -10718955.68246  22996696.748    22996700.500
  22343674.611   -17291893.41349 -13451815.64746  22343674.027    22343679.118
  23470005.326    -9169822.41249  -6753419.61546  23470005.153    23470009.036
  20516110.139   -27589889.47649 -19736405.74948  20516109.803    20516113.139
  21970196.763   -12653856.09249  -9839741.68246  21970196.879    21970200.781
  21289085.215   -25178518.66549 -19608684.92947  21289085.073    21289089.435
 04  1  7  3 18  0.0000000  0  8G 2G21G16G15G29G18G26G 6
  24963246.174    -5765519.30949  -3965737.85745  24963245.624    24963251.179
  20573010.397   -29155942.04249 -22697739.33848  20573009.892    20573012.617
  22998973.150   -13796522.46749 -10709635.41446  22998972.823    22998976.642
  22331108.918   -17357926.84549 -13503270.24046  22331108.335    22331113.415
  23479661.404    -9119079.38149  -6713879.59246  23479661.228    23479665.174
  20510704.836   -27618294.45349 -19758539.48548  20510704.505    20510707.839
  21974236.456   -12632627.59449  -9823199.97846  21974236.573    21974240.448
  21302022.487   -25110533.06649 -19555709.14147  21302022.337    21302026.676
 04  1  7  3 18 30.0000000  0  8G 2G21G16G15G29G18G26G 6
  24957619.392    -5795088.76649  -3988779.00145  24957618.850    24957624.210
  20572159.190   -29160414.92049 -22701224.69448  20572158.711    20572161.439
  23001349.486   -13784035.01949 -10699904.93246  23001349.137    23001352.788
  22318562.730   -17423857.85649 -13554645.02546  22318562.121    22318567.118
  23489409.534    -9067852.40249  -6673962.47446  23489409.421    23489413.304
  20505385.767   -27646246.50949 -19780320.29548  20505385.427    20505388.713
  21978400.618   -12610744.76149  -9806148.41846  21978400.749    21978404.583
  21315037.901   -25042136.37449 -19502413.02947  21315037.766    21315042.187
